[[{"header":{"parameterUnit":"m.s-1","parameterCategory":1,"la1":30.6,"la2":29.2853,"lo1":-89.7004,"lo2":-87.6739,"dy":0.0162,"dx":0.0183,"nx":112,"ny":82,"refTime":"2023-11-07T06:00:00:Z","depth":0,"parameterNumber":2,"parameterNumberName":"U-component_of_WINDS"},"data":[0.0,0.0,0.0,0.0,0.0,0.0,0.0,0.0,0.0,0.0,0.0,0.0,0.0,0.0,0.0,0.0,0.0,0.0,0.0,0.0,0.0,0.0,0.0,0.0,0.0,0.0,0.0,0.0,0.0,0.0,0.0,0.0,0.0,0.0,0.0,0.0,0.0,0.0,0.0,0.0,0.0,0.0,0.0,0.0,0.0,0.0,0.0,0.0,0.0,0.0,0.0,0.0,0.0,0.0,0.0,0.0,0.0,0.0,0.0,0.0,0.0,0.0,0.0,0.0,0.0,0.0,0.0,0.0,0.0,0.0,0.0,0.0,0.0,0.0,0.0,0.0,0.0,0.0,0.0,0.0,0.0,0.0,0.0,0.0,0.0,0.0,0.0,0.0,0.0,0.0,-1.6856,-1.9618,-2.3317,-2.5222,-2.4297,-2.3281,-2.1973,-2.0308,0.0,0.0,0.0,0.0,0.0,0.0,0.0,0.0,0.0,0.0,0.0,0.0,0.0,0.0,0.0,0.0,0.0,0.0,0.0,0.0,0.0,0.0,0.0,0.0,0.0,0.0,0.0,0.0,0.0,0.0,0.0,0.0,0.0,0.0,0.0,0.0,0.0,0.0,0.0,0.0,0.0,0.0,0.0,0.0,0.0,0.0,0.0,0.0,0.0,0.0,0.0,0.0,0.0,0.0,0.0,0.0,0.0,0.0,0.0,0.0,0.0,0.0,0.0,0.0,0.0,0.0,0.0,0.0,0.0,0.0,0.0,0.0,0.0,0.0,0.0,0.0,0.0,0.0,0.0,0.0,0.0,0.0,0.0,0.0,0.0,0.0,0.0,0.0,0.0,0.0,0.0,0.0,0.0,0.0,0.0,0.0,0.0,0.0,0.0,0.0,0.0,0.0,0.0,0.0,-1.9799,-2.3154,-2.4762,-2.5007,-2.3516,-2.1852,-2.0172,-1.8496,0.0,0.0,0.0,0.0,0.0,0.0,0.0,0.0,0.0,0.0,0.0,0.0,0.0,0.0,0.0,0.0,0.0,0.0,0.0,0.0,0.0,0.0,0.0,0.0,0.0,0.0,0.0,0.0,0.0,0.0,0.0,0.0,0.0,0.0,0.0,0.0,0.0,0.0,0.0,0.0,0.0,0.0,0.0,0.0,0.0,0.0,0.0,0.0,0.0,0.0,0.0,0.0,0.0,0.0,0.0,0.0,0.0,0.0,0.0,0.0,0.0,0.0,0.0,0.0,0.0,0.0,0.0,0.0,0.0,0.0,0.0,0.0,0.0,0.0,0.0,0.0,0.0,0.0,0.0,0.0,0.0,0.0,0.0,0.0,0.0,0.0,0.0,0.0,0.0,0.0,0.0,0.0,0.0,0.0,0.0,0.0,0.0,0.0,0.0,0.0,0.0,0.0,0.0,-1.8522,-2.083,-2.3322,-2.441,-2.4646,-2.3906,-2.0956,-1.9218,-1.9392,-1.6405,0.0,0.0,0.0,0.0,0.0,0.0,0.0,0.0,0.0,0.0,0.0,0.0,0.0,0.0,0.0,0.0,0.0,0.0,0.0,0.0,0.0,0.0,0.0,0.0,0.0,0.0,0.0,0.0,0.0,0.0,0.0,0.0,0.0,0.0,0.0,0.0,0.0,0.0,0.0,0.0,0.0,0.0,0.0,0.0,0.0,0.0,0.0,0.0,0.0,0.0,0.0,0.0,0.0,0.0,0.0,0.0,0.0,0.0,0.0,0.0,0.0,0.0,0.0,0.0,0.0,0.0,0.0,0.0,0.0,0.0,0.0,0.0,0.0,0.0,0.0,0.0,0.0,0.0,0.0,0.0,0.0,0.0,0.0,0.0,0.0,0.0,0.0,0.0,0.0,0.0,0.0,0.0,0.0,0.0,0.0,0.0,0.0,0.0,0.0,0.0,0.0,0.0,-1.9506,-2.1146,-2.282,-2.3836,-2.416,-2.3555,-2.0312,-1.8691,-1.9625,-1.5409,0.0,0.0,0.0,0.0,0.0,0.0,0.0,0.0,0.0,0.0,0.0,0.0,0.0,0.0,0.0,0.0,0.0,0.0,0.0,0.0,0.0,0.0,0.0,0.0,0.0,0.0,0.0,0.0,0.0,0.0,0.0,0.0,0.0,0.0,0.0,0.0,0.0,0.0,0.0,0.0,0.0,0.0,0.0,0.0,0.0,0.0,0.0,0.0,0.0,0.0,0.0,0.0,0.0,0.0,0.0,0.0,0.0,0.0,0.0,0.0,0.0,0.0,0.0,0.0,0.0,0.0,0.0,0.0,0.0,0.0,0.0,0.0,0.0,0.0,0.0,0.0,0.0,0.0,0.0,0.0,0.0,0.0,0.0,0.0,0.0,0.0,0.0,0.0,0.0,0.0,0.0,0.0,0.0,0.0,0.0,0.0,0.0,0.0,0.0,0.0,0.0,0.0,-1.9888,-2.114,-2.2827,-2.3834,-2.3437,-2.1074,-1.9844,-1.8574,-1.707,-1.4414,0.0,0.0,0.0,0.0,0.0,0.0,0.0,0.0,0.0,0.0,0.0,0.0,0.0,0.0,0.0,0.0,0.0,0.0,0.0,0.0,0.0,0.0,0.0,0.0,0.0,0.0,0.0,0.0,0.0,0.0,0.0,0.0,0.0,0.0,0.0,0.0,0.0,0.0,0.0,0.0,0.0,0.0,0.0,0.0,0.0,0.0,0.0,0.0,0.0,0.0,0.0,0.0,0.0,0.0,0.0,0.0,0.0,0.0,0.0,0.0,0.0,0.0,0.0,0.0,0.0,0.0,0.0,0.0,0.0,0.0,0.0,0.0,0.0,0.0,0.0,0.0,0.0,0.0,0.0,0.0,0.0,0.0,0.0,0.0,0.0,0.0,0.0,0.0,0.0,0.0,0.0,0.0,0.0,0.0,0.0,0.0,0.0,0.0,0.0,0.0,0.0,0.0,-2.0087,-2.156,-2.2188,-2.2611,-2.2012,-1.9961,-1.75,-1.6015,-1.5897,0.0,0.0,0.0,0.0,0.0,0.0,0.0,0.0,0.0,0.0,0.0,0.0,0.0,0.0,0.0,0.0,0.0,0.0,0.0,0.0,0.0,0.0,0.0,0.0,0.0,0.0,0.0,0.0,0.0,0.0,0.0,0.0,0.0,0.0,0.0,0.0,0.0,0.0,0.0,0.0,0.0,0.0,0.0,0.0,0.0,0.0,0.0,0.0,0.0,0.0,0.0,0.0,0.0,0.0,0.0,0.0,0.0,0.0,0.0,0.0,0.0,0.0,0.0,0.0,0.0,0.0,0.0,0.0,0.0,0.0,0.0,0.0,0.0,0.0,0.0,0.0,0.0,0.0,0.0,0.0,0.0,0.0,0.0,0.0,0.0,0.0,0.0,0.0,0.0,0.0,0.0,0.0,0.0,0.0,0.0,0.0,0.0,0.0,0.0,0.0,0.0,0.0,-1.7715,-1.9698,-2.1072,-2.1334,-2.1421,-2.0664,-1.8652,-1.6035,-1.4531,-1.4608,0.0,0.0,0.0,0.0,0.0,0.0,0.0,0.0,0.0,0.0,0.0,0.0,0.0,0.0,0.0,0.0,0.0,0.0,0.0,0.0,0.0,0.0,0.0,0.0,0.0,0.0,0.0,0.0,0.0,0.0,0.0,0.0,0.0,0.0,0.0,0.0,0.0,0.0,0.0,0.0,0.0,0.0,0.0,0.0,0.0,0.0,0.0,0.0,0.0,0.0,0.0,0.0,0.0,0.0,0.0,0.0,0.0,0.0,0.0,0.0,0.0,0.0,0.0,0.0,0.0,0.0,0.0,0.0,0.0,0.0,0.0,0.0,0.0,0.0,0.0,0.0,0.0,0.0,0.0,0.0,0.0,0.0,0.0,0.0,0.0,0.0,0.0,0.0,0.0,0.0,0.0,0.0,0.0,0.0,0.0,0.0,0.0,0.0,0.0,0.0,0.0,0.0,-1.7595,-1.8617,-1.9518,-2.0315,-2.0515,-1.9531,-1.6914,-1.5879,-1.4668,0.0,0.0,0.0,0.0,0.0,0.0,0.0,0.0,0.0,0.0,0.0,0.0,0.0,0.0,0.0,0.0,0.0,0.0,0.0,0.0,0.0,0.0,0.0,0.0,0.0,0.0,0.0,0.0,0.0,0.0,0.0,0.0,0.0,0.0,0.0,0.0,0.0,0.0,0.0,0.0,0.0,0.0,0.0,0.0,0.0,0.0,0.0,0.0,0.0,0.0,0.0,0.0,0.0,0.0,0.0,0.0,0.0,0.0,0.0,0.0,0.0,0.0,0.0,0.0,0.0,0.0,0.0,0.0,0.0,0.0,0.0,0.0,0.0,0.0,0.0,0.0,0.0,0.0,0.0,0.0,0.0,0.0,0.0,0.0,0.0,0.0,0.0,0.0,0.0,0.0,0.0,0.0,0.0,0.0,0.0,0.0,0.0,0.0,0.0,0.0,0.0,0.0,0.0,-1.7652,-1.8641,-1.953,-2.0376,-1.9995,-1.8613,-1.6016,-1.4453,-1.3671,-1.3736,0.0,0.0,0.0,0.0,0.0,0.0,0.0,0.0,0.0,0.0,0.0,0.0,0.0,0.0,0.0,0.0,0.0,0.0,0.0,0.0,0.0,0.0,0.0,0.0,0.0,0.0,0.0,0.0,0.0,0.0,0.0,0.0,0.0,0.0,0.0,0.0,0.0,0.0,0.0,0.0,0.0,0.0,0.0,0.0,0.0,0.0,0.0,0.0,0.0,0.0,0.0,0.0,0.0,0.0,0.0,0.0,0.0,0.0,0.0,0.0,0.0,0.0,0.0,0.0,0.0,0.0,0.0,0.0,0.0,0.0,0.0,0.0,0.0,0.0,0.0,0.0,0.0,0.0,0.0,0.0,0.0,0.0,0.0,0.0,0.0,0.0,0.0,0.0,0.0,0.0,0.0,0.0,0.0,0.0,0.0,0.0,0.0,0.0,0.0,0.0,0.0,0.0,-1.7631,-1.8341,-1.9136,-2.0332,-1.9446,-1.7852,-1.5586,-1.3867,-1.2812,-1.2606,0.0,0.0,0.0,0.0,0.0,0.0,0.0,0.0,0.0,0.0,0.0,0.0,0.0,0.0,0.0,0.0,0.0,0.0,0.0,0.0,0.0,0.0,0.0,0.0,0.0,0.0,0.0,0.0,0.0,0.0,0.0,0.0,0.0,0.0,0.0,0.0,0.0,0.0,0.0,0.0,0.0,0.0,0.0,0.0,0.0,0.0,0.0,0.0,0.0,0.0,0.0,0.0,0.0,0.0,0.0,0.0,0.0,0.0,0.0,0.0,0.0,0.0,0.0,0.0,0.0,0.0,0.0,0.0,0.0,0.0,0.0,0.0,0.0,0.0,0.0,0.0,0.0,0.0,0.0,0.0,0.0,0.0,0.0,0.0,0.0,0.0,0.0,0.0,0.0,0.0,0.0,0.0,0.0,0.0,0.0,0.0,0.0,0.0,0.0,0.0,0.0,0.0,-1.7599,-1.7866,-1.8541,-2.0223,-1.8953,-1.7324,-1.5664,-1.3906,-1.2266,-1.0742,0.0,0.0,0.0,0.0,0.0,0.0,0.0,0.0,0.0,0.0,0.0,0.0,0.0,0.0,0.0,0.0,0.0,0.0,0.0,0.0,0.0,0.0,0.0,0.0,0.0,0.0,0.0,0.0,0.0,0.0,0.0,0.0,0.0,0.0,0.0,0.0,0.0,0.0,0.0,0.0,0.0,0.0,0.0,0.0,0.0,0.0,0.0,0.0,0.0,0.0,0.0,0.0,0.0,0.0,0.0,0.0,0.0,0.0,0.0,0.0,-2.2648,-2.1056,0.0,0.0,0.0,0.0,0.0,0.0,0.0,0.0,0.0,0.0,0.0,0.0,0.0,0.0,0.0,0.0,0.0,0.0,0.0,0.0,0.0,0.0,0.0,0.0,0.0,0.0,0.0,0.0,0.0,0.0,0.0,0.0,0.0,0.0,0.0,0.0,0.0,0.0,0.0,0.0,-1.7644,-1.7881,-1.8551,-2.0282,-1.8999,-1.7578,-1.6504,-1.4258,-1.3007,-1.3271,-1.2399,0.0,0.0,0.0,0.0,0.0,0.0,0.0,0.0,0.0,0.0,0.0,0.0,0.0,0.0,0.0,0.0,0.0,0.0,0.0,0.0,0.0,0.0,0.0,0.0,0.0,0.0,0.0,0.0,0.0,0.0,0.0,0.0,0.0,0.0,0.0,0.0,0.0,0.0,0.0,0.0,0.0,0.0,0.0,0.0,0.0,0.0,0.0,0.0,0.0,0.0,0.0,0.0,0.0,0.0,0.0,0.0,0.0,0.0,0.0,-2.6215,-2.4413,0.0,0.0,0.0,0.0,0.0,0.0,0.0,0.0,0.0,0.0,0.0,0.0,0.0,0.0,0.0,0.0,0.0,0.0,0.0,0.0,0.0,0.0,0.0,0.0,0.0,0.0,0.0,0.0,0.0,0.0,0.0,0.0,0.0,0.0,0.0,0.0,0.0,0.0,0.0,0.0,-1.882,-1.8416,-1.8411,-1.9725,-1.8746,-1.748,-1.6191,-1.4473,-1.3496,-1.3511,-1.3454,0.0,0.0,0.0,0.0,0.0,0.0,0.0,0.0,0.0,0.0,0.0,0.0,0.0,0.0,0.0,0.0,0.0,0.0,0.0,0.0,0.0,0.0,0.0,0.0,0.0,0.0,0.0,0.0,0.0,0.0,0.0,0.0,0.0,0.0,0.0,0.0,0.0,0.0,0.0,0.0,0.0,0.0,0.0,0.0,0.0,0.0,0.0,0.0,0.0,0.0,0.0,0.0,0.0,-3.5486,-3.6189,-3.6458,-3.6613,-3.5345,-3.2889,-3.0723,-2.8906,-2.7316,-2.551,0.0,0.0,0.0,0.0,0.0,0.0,0.0,0.0,0.0,0.0,0.0,0.0,0.0,0.0,0.0,0.0,0.0,0.0,0.0,0.0,0.0,0.0,-2.1554,-2.2969,-2.3211,-2.1716,-1.6651,0.0,0.0,0.0,0.0,0.0,0.0,0.0,0.0,0.0,0.0,0.0,-1.9922,-1.9021,-1.8463,-1.9341,-1.8572,-1.7422,-1.5977,-1.4785,-1.3828,-1.3145,-1.4275,-1.4763,0.0,0.0,0.0,0.0,0.0,0.0,0.0,0.0,0.0,0.0,0.0,0.0,0.0,0.0,0.0,0.0,0.0,0.0,0.0,0.0,0.0,0.0,0.0,0.0,0.0,0.0,0.0,0.0,0.0,0.0,0.0,0.0,-2.3496,-2.292,0.0,0.0,0.0,0.0,0.0,0.0,0.0,0.0,0.0,0.0,0.0,0.0,0.0,-3.3652,-3.5917,-3.7676,-3.834,-3.7949,-4.0273,-4.0293,-3.8281,-3.9043,-3.8379,-3.6601,-3.6244,0.0,-2.912,-2.7377,0.0,0.0,0.0,0.0,0.0,0.0,0.0,0.0,0.0,0.0,0.0,0.0,0.0,0.0,0.0,0.0,0.0,0.0,0.0,0.0,0.0,0.0,-2.478,-2.494,-2.446,-2.3527,-2.2049,-2.0764,-1.9854,-1.9745,-1.8811,-1.8001,0.0,0.0,0.0,0.0,0.0,0.0,-1.9388,-1.921,-1.9387,-2.0312,-1.8965,-1.791,-1.7676,-1.5469,-1.4043,-1.3945,-1.3496,-1.3828,-1.5176,-1.5775,0.0,0.0,0.0,0.0,0.0,0.0,0.0,0.0,0.0,0.0,0.0,0.0,0.0,0.0,0.0,0.0,0.0,0.0,0.0,0.0,0.0,0.0,0.0,0.0,0.0,0.0,0.0,0.0,0.0,-2.3826,-2.6028,-2.4634,-2.7284,-2.8202,0.0,0.0,0.0,0.0,0.0,0.0,0.0,0.0,0.0,-3.4997,-3.6348,-3.7597,-3.875,-4.0449,-4.1367,-4.1484,-4.3086,-4.3281,-4.2207,-4.2598,-4.1562,-3.9492,-3.9491,-3.7362,-3.375,-3.1519,-3.0225,-2.9321,0.0,0.0,0.0,0.0,-2.3156,-2.4047,-2.4503,-2.5251,-2.5948,-2.5402,0.0,0.0,0.0,0.0,0.0,0.0,0.0,-2.2191,-2.339,-2.5234,-2.6809,-2.677,-2.6155,-2.5468,-2.5104,-2.3742,-2.2447,-2.1954,-2.1652,-2.1339,-2.0846,-2.0308,0.0,0.0,0.0,-1.9953,-2.1913,-2.0897,-2.0135,-2.0566,-1.9043,-1.7793,-1.7305,-1.5762,-1.4824,-1.4824,-1.4492,-1.4629,-1.5371,-1.5878,-1.6071,0.0,0.0,0.0,0.0,0.0,0.0,0.0,0.0,0.0,0.0,0.0,0.0,0.0,0.0,0.0,0.0,0.0,0.0,0.0,0.0,0.0,0.0,0.0,0.0,0.0,0.0,0.0,0.0,-2.6191,-2.8366,-2.6178,-3.0271,-3.1962,0.0,0.0,0.0,0.0,0.0,0.0,-3.5898,-3.746,-3.8476,-3.8925,-4.041,-4.1308,-4.1543,-4.2773,-4.3711,-4.4375,-4.5019,-4.5332,-4.5332,-4.5332,-4.418,-4.2168,-4.2168,-4.0703,-3.8086,-3.5232,-3.3295,-3.1887,-2.9515,-2.8657,-2.8573,-2.7048,-2.7268,-2.8401,-2.8796,-2.9256,-2.9625,-2.9358,-2.875,-2.7615,-2.4679,0.0,0.0,0.0,0.0,-2.4716,-2.601,-2.7271,-2.8261,-2.8486,-2.7904,-2.7325,-2.7361,-2.609,-2.4624,-2.3533,-2.3694,-2.3784,-2.3132,-2.2177,0.0,-2.2944,-2.1677,-2.1444,-2.3769,-2.2422,-2.1172,-2.0957,-1.957,-1.8301,-1.7441,-1.6562,-1.5977,-1.5742,-1.5723,-1.5625,-1.541,-1.6016,-1.6172,-1.5739,0.0,0.0,0.0,0.0,0.0,0.0,0.0,0.0,0.0,0.0,0.0,0.0,0.0,0.0,0.0,0.0,0.0,0.0,0.0,0.0,0.0,0.0,0.0,0.0,0.0,0.0,0.0,0.0,0.0,-2.714,-3.2665,0.0,0.0,0.0,0.0,-3.6777,-3.6952,-3.7753,-3.9548,-4.0447,-4.1678,-4.332,-4.4277,-4.5137,-4.5976,-4.6055,-4.6133,-4.6172,-4.6211,-4.623,-4.623,-4.623,-4.5703,-4.4805,-4.4805,-4.3359,-4.0742,-3.7285,-3.582,-3.5546,-3.3637,-3.3393,-3.3981,-3.3003,-3.2706,-3.2677,-3.1942,-3.115,-3.0716,-3.2384,-3.2311,-3.0916,-2.7528,-2.5824,0.0,0.0,-2.5813,-2.5808,-2.828,-2.8973,-2.9261,-3.0077,-2.9608,-2.9013,-2.9136,-2.7868,-2.6196,-2.4555,-2.365,-2.3149,-2.3098,0.0,-2.3945,-2.3218,-2.369,-2.3906,-2.3242,-2.3105,-2.2754,-2.1914,-2.1016,-2.0117,-1.9238,-1.8379,-1.7519,-1.6699,-1.6621,-1.6269,-1.543,-1.5449,-1.582,-1.6621,-1.6882,0.0,0.0,0.0,0.0,0.0,0.0,0.0,0.0,0.0,0.0,0.0,0.0,0.0,0.0,0.0,0.0,0.0,0.0,0.0,0.0,0.0,0.0,0.0,0.0,0.0,0.0,0.0,0.0,-3.4233,-3.8723,0.0,-3.7163,-3.7939,-3.8931,-3.9639,-4.1284,-4.2773,-4.3964,-4.5351,-4.6406,-4.7031,-4.6797,-4.6816,-4.7129,-4.6582,-4.6308,-4.6308,-4.6308,-4.6308,-4.6308,-4.6308,-4.5527,-4.4199,-4.4766,-4.3848,-4.1875,-4.0625,-3.9141,-3.7539,-3.6215,-3.5872,-3.6057,-3.5645,-3.5452,-3.5374,-3.5089,-3.4458,-3.3631,-3.2672,-3.1691,-3.0683,-2.9491,-2.8869,-2.8654,-2.8962,-2.8827,-2.8788,-2.9692,-2.9948,-3.0,-3.0327,-2.9737,-2.9143,-2.9276,-2.8418,-2.7322,-2.6242,-2.49,-2.4119,-2.4687,-2.4101,-2.3848,-2.4648,-2.4551,-2.4492,-2.4746,-2.4297,-2.3632,-2.2767,-2.1398,-2.0187,-1.9308,-1.8448,-1.7827,-1.7559,-1.7012,-1.6562,-1.6244,-1.5702,-1.5546,-1.5869,-1.5951,-1.4895,0.0,0.0,0.0,0.0,0.0,0.0,0.0,0.0,0.0,0.0,0.0,0.0,0.0,0.0,0.0,0.0,0.0,0.0,0.0,0.0,0.0,0.0,0.0,0.0,0.0,0.0,-3.8573,-3.8219,-4.2461,-4.4341,-4.1524,-4.2376,-4.325,-4.3645,-4.5309,-4.6562,-4.7148,-4.8262,-4.8906,-4.8906,-4.8047,-4.7598,-4.7598,-4.6738,-4.6308,-4.6308,-4.6308,-4.6308,-4.6308,-4.6308,-4.5664,-4.4609,-4.5195,-4.4629,-4.3262,-4.324,-4.189,-3.9759,-3.874,-3.8319,-3.8227,-3.8108,-3.8021,-3.7892,-3.7334,-3.6626,-3.5606,-3.3389,-3.2225,-3.1634,-3.1397,-3.1281,-3.1192,-3.0904,-3.0846,-3.0769,-3.0481,-3.0404,-3.0404,-3.0404,-2.9967,-2.9582,-2.9706,-2.908,-2.8383,-2.7967,-2.6465,-2.5449,-2.6013,-2.5153,-2.4762,-2.5929,-2.5616,-2.5343,-2.5637,-2.5172,-2.4507,-2.3637,-2.2254,-2.1043,-2.0157,-1.9278,-1.8679,-1.8415,-1.7593,-1.7122,-1.7142,-1.6284,-1.595,-1.6268,-1.6434,-1.5542,-1.3619,0.0,0.0,0.0,0.0,0.0,0.0,0.0,0.0,0.0,0.0,0.0,0.0,0.0,0.0,0.0,0.0,0.0,0.0,0.0,0.0,0.0,0.0,0.0,-3.2011,-3.7804,-4.1098,-3.8736,-4.3647,-4.6601,-4.5012,-4.6474,-4.7892,-4.8828,-4.8945,-4.8965,-4.8945,-4.8965,-4.8965,-4.8945,-4.8105,-4.7637,-4.7598,-4.6738,-4.6308,-4.6308,-4.6308,-4.6308,-4.6308,-4.6308,-4.6289,-4.6269,-4.6289,-4.5801,-4.498,-4.4859,-4.3843,-4.2278,-4.1243,-4.0781,-4.068,-4.0545,-4.0477,-4.0189,-3.8565,-3.743,-3.6423,-3.4776,-3.4263,-3.4129,-3.3237,-3.2987,-3.2814,-3.2006,-3.1775,-3.1583,-3.0692,-3.0462,-3.0442,-3.0442,-3.0423,-3.0444,-3.0565,-2.9935,-2.9392,-2.9568,-2.8223,-2.703,-2.6917,-2.6874,-2.6865,-2.685,-2.6864,0.0,-2.5701,-2.5654,-2.5375,-2.4534,-2.3727,-2.2869,-2.1915,-2.1038,-2.016,-1.9294,-1.8416,-1.7979,-1.8027,-1.7134,-1.7064,-1.7973,-1.8452,-1.9199,-2.0225,0.0,0.0,0.0,0.0,0.0,0.0,0.0,0.0,0.0,0.0,0.0,0.0,0.0,0.0,0.0,0.0,0.0,0.0,0.0,0.0,0.0,0.0,-3.8283,-3.9024,-4.1769,-4.4353,-4.6089,-4.8392,-4.9426,-4.8367,-4.9407,-4.9768,-4.8825,-4.9977,-5.0469,-4.9863,-5.0391,-5.0449,-4.9863,-4.9004,-4.8242,-4.7617,-4.6738,-4.6308,-4.6308,-4.6308,-4.6308,-4.6308,-4.6308,-4.5957,-4.5391,-4.6035,-4.5801,-4.498,-4.4859,-4.4501,-4.3876,-4.2291,-4.1275,-4.068,-4.0545,-3.9727,-3.8623,-3.8161,-3.743,-3.6519,-3.5481,-3.5545,-3.5853,-3.5019,-3.4788,-3.4615,-3.3757,-3.3506,-3.3314,-3.2449,-3.1775,-3.1346,-3.1346,-3.0865,-3.0417,-3.0516,-3.0383,-3.0105,-2.9626,-2.9176,-2.8476,-2.7186,-2.6444,-2.6032,-2.603,-2.603,0.0,-2.5698,-2.5681,-2.5599,-2.5294,-2.455,-2.3687,-2.276,-2.1864,-2.1,-2.0136,-1.9246,-1.8788,-1.88,-1.793,-1.7587,-1.7847,-1.8358,-1.8578,0.0,0.0,0.0,0.0,0.0,0.0,0.0,0.0,0.0,0.0,0.0,0.0,0.0,0.0,0.0,0.0,0.0,0.0,0.0,0.0,0.0,0.0,-3.7822,-4.228,-4.4858,-4.5945,-4.7225,-4.9173,-5.0281,-5.0724,-5.0261,-5.0813,-5.0824,-4.9907,-5.0818,-5.1191,-5.0723,-5.1152,-5.1191,-5.0723,-4.9883,-4.9023,-4.8144,-4.7285,-4.666,-4.6308,-4.6308,-4.6308,-4.6308,-4.6308,-4.6016,-4.5566,-4.6074,-4.6016,-4.5527,-4.5345,-4.5043,-4.4552,0.0,0.0,0.0,0.0,-3.9881,-3.8988,-3.8661,-3.7969,-3.7123,-3.6269,-3.6096,-3.6115,-3.5635,-3.55,-3.5327,-3.4449,-3.4205,-3.3994,-3.3122,-3.2545,-3.2199,-3.2199,-3.1564,-3.106,-3.1453,-3.1045,-3.0586,-3.0544,-3.0032,0.0,-2.8262,-2.7342,-2.6752,-2.6746,-2.6432,-2.6061,-2.5711,-2.5678,-2.5695,-2.5651,-2.4907,-2.4183,-2.3622,-2.2429,0.0,0.0,0.0,-1.906,-1.9098,-1.8964,0.0,0.0,0.0,-1.9512,-1.8844,-1.9146,0.0,0.0,-1.8533,-1.8283,0.0,0.0,0.0,0.0,0.0,0.0,0.0,0.0,0.0,0.0,0.0,0.0,0.0,0.0,0.0,0.0,-4.0723,-4.4729,-4.9428,-4.9804,-4.9584,-4.9576,-5.0356,-5.0952,-5.1078,-5.1151,-5.1242,-5.1366,-5.1464,-5.1484,-5.1406,-5.1484,0.0,0.0,0.0,-4.9629,-4.8769,-4.7891,-4.707,-4.6308,-4.6308,-4.6308,-4.6308,-4.6308,-4.6308,-4.6308,-4.6308,-4.6308,-4.6289,-4.6001,-4.5477,-4.4686,-4.3497,-4.2469,-4.1566,-4.0785,-4.0439,-4.0265,-3.9554,0.0,0.0,-3.7142,-3.6423,-3.5885,-3.5692,-3.5635,-3.5462,-3.4584,-3.4359,-3.416,-3.3391,-3.3122,-3.3045,-3.3045,-3.2429,-3.2042,-3.2816,-3.1883,-3.1109,-3.1859,-3.0849,-2.9863,-2.9766,-2.8804,-2.8062,-2.8055,-2.7326,-2.6486,-2.5712,-2.5659,-2.5749,-2.5845,0.0,0.0,-2.4533,-2.2965,-2.1944,-2.1831,-2.0221,-1.9312,-1.9371,-2.003,-2.0385,-2.0389,-2.1097,-2.107,-2.03,-2.1012,-2.1,-2.0288,-1.9377,-1.9416,0.0,0.0,0.0,0.0,0.0,0.0,0.0,0.0,0.0,0.0,0.0,0.0,0.0,0.0,0.0,-4.0963,-4.5308,-4.9265,-5.1507,-5.1208,-5.0726,-5.0619,-5.0789,-5.0903,-5.0939,-5.1109,-5.1208,-5.1238,-5.1898,-5.2031,-5.1426,-5.1956,-5.1719,-5.0469,-4.9609,-4.873,-4.7851,-4.6992,-4.6465,-4.6308,-4.6308,0.0,-4.6308,-4.6308,-4.6308,-4.6308,-4.6308,-4.6308,-4.6289,-4.6001,-4.5714,-4.5198,-4.2946,-4.152,-4.0727,-4.0554,-4.0092,-3.9515,-3.9361,-3.9188,-3.8892,-3.8027,-3.8123,-3.8296,-3.6885,-3.6462,0.0,-3.5481,-3.525,-3.5212,-3.5038,-3.4487,-3.3955,-3.3955,-3.3295,-3.2705,-3.289,-3.2806,-3.2535,-3.2018,-3.1793,-3.1465,-3.0762,-2.875,-2.7225,-2.7224,-2.6482,-2.5876,-2.57,-2.5682,-2.5974,-2.6668,-2.5974,-2.5426,-2.5368,-2.4407,-2.3478,-2.2715,-2.1624,-2.1012,-2.1039,-2.0569,-2.0319,-2.0312,-2.0473,-2.0469,-2.0296,-2.0465,-2.0442,-2.0308,-2.01,-2.0119,0.0,0.0,0.0,0.0,0.0,0.0,0.0,0.0,0.0,0.0,0.0,-3.4705,0.0,0.0,-4.332,-4.4115,-4.7548,-5.0508,-5.1674,-5.1444,-5.1234,-5.1474,-5.1148,-5.0908,-5.0908,-5.0989,-5.1234,-5.1717,-5.221,-5.2342,-5.1976,-5.1958,-5.1419,-5.0234,-4.9355,-4.8476,-4.7617,-4.7168,-4.6738,-4.6308,-4.6308,-4.6308,-4.6308,-4.6308,-4.6308,-4.6308,-4.6308,-4.6308,-4.6289,-4.6001,-4.5524,-4.4816,-4.3547,-4.2547,-4.17,-4.0823,-4.0246,-3.99,-3.99,-3.965,-3.9227,-3.8796,-3.8642,-3.8411,-3.7103,-3.6692,-3.6519,-3.5731,-3.55,-3.55,-3.55,-3.5173,-3.4853,-3.4853,-3.418,-3.366,-3.4103,-3.3624,-3.299,-3.2626,-3.2313,-3.1849,-3.1035,-2.9453,-2.8301,-2.8301,-2.7187,-2.6348,-2.6348,-2.5977,-2.5879,-2.6306,-2.5956,-2.5683,-2.5651,-2.4815,-2.3898,-2.2966,-2.2015,-2.1696,-2.212,-2.135,-2.1119,-2.1543,-2.1119,-2.0904,-2.0904,-2.05,-2.0308,-2.0308,-2.0308,-2.0308,0.0,0.0,0.0,0.0,0.0,0.0,0.0,0.0,-3.3997,-3.5369,-3.7597,-3.9452,-3.9998,-4.3339,-4.623,-4.6933,-4.8965,-5.0723,-5.1543,-5.1279,-5.1232,-5.1857,-5.1326,-5.0908,-5.0908,-5.0925,-5.125,-5.2013,-5.2347,-5.2435,-5.2286,-5.1709,-5.0995,-5.0215,-4.9199,-4.8301,-4.7617,-4.7422,-4.6992,-4.6308,-4.6308,-4.6308,-4.6308,-4.6308,-4.6308,-4.6308,-4.6308,-4.6268,-4.6201,-4.5988,-4.5368,-4.4528,-4.4374,-4.3893,-4.3124,-4.1393,-4.065,-4.0496,-4.0496,-4.0073,-3.9534,-3.9534,-3.9065,-3.8334,-3.7469,-3.7084,-3.6769,-3.5962,-3.5731,-3.5692,-3.5538,-3.5615,-3.5692,-3.5538,-3.4968,-3.4641,-3.5346,-3.4446,-3.3495,-3.3425,-3.2917,-3.2218,-3.1266,-3.0547,-2.998,-2.9648,-2.8262,-2.7187,-2.7012,-2.6387,-2.5898,-2.5723,-2.5703,-2.5683,-2.5683,-2.4984,-2.4207,-2.3428,-2.2516,-2.2312,-2.3028,-2.2216,-2.2081,-2.2797,-2.1947,-2.1504,-2.1504,-2.0846,-2.0442,-2.0308,-2.0462,-2.0442,-2.4875,-2.4857,-2.5933,-2.7517,-2.9132,-3.1776,0.0,0.0,-3.9921,-4.3066,-4.5176,-4.623,-4.5566,-4.7734,-4.9648,-4.9746,-5.0605,-5.1562,-5.2422,-5.1269,-5.0559,-5.1227,-5.1056,-5.0908,-5.0908,-5.101,-5.1113,-5.1225,-5.2028,-5.2214,-5.1561,-5.1325,-5.0914,-5.0215,-4.8594,-4.7695,-4.7598,-4.6836,-4.6406,-4.6308,-4.6308,-4.6308,-4.6308,-4.6308,-4.6308,-4.6308,-4.6308,-4.6152,-4.5936,-4.5912,-4.5717,-4.5383,-4.4605,-4.4239,-4.3951,-4.2277,-4.1162,-4.0496,-4.0496,-4.0439,-4.0362,-4.0362,-4.0304,-4.0073,-3.9265,-3.8469,-3.768,-3.6808,-3.6577,-3.6404,-3.5692,-3.6038,-3.6385,-3.5673,-3.5423,-3.5385,-3.5481,-3.5403,-3.5083,-3.4308,-3.4251,-3.3793,-3.2155,-3.1888,-3.1387,-2.9824,-2.8789,-2.7871,-2.7109,-2.6914,-2.6562,-2.5781,-2.5703,-2.5682,-2.5628,-2.5469,-2.5304,-2.5135,-2.4306,-2.386,-2.3956,-2.3124,-2.2701,-2.2797,-2.1947,-2.1504,-2.1504,-2.1408,-2.1,-2.0327,-2.1019,-2.0981,-2.8867,-2.8728,-2.9394,0.0,-3.4394,-3.6339,-4.0429,-4.2148,-4.3555,-4.6016,-4.75,-4.8398,-4.8535,-4.9453,-5.0351,0.0,-5.1172,-5.1523,-5.1894,-5.0937,-5.0117,-4.9895,-4.9728,-4.975,-5.0102,-5.0189,-5.0623,-5.1619,-5.213,-5.2061,-5.1325,-5.0864,-5.0014,-4.873,-4.748,-4.6836,-4.6836,-4.6484,-4.6308,-4.6308,-4.6308,-4.6308,-4.6308,-4.6308,-4.6308,-4.6308,-4.6308,-4.6147,-4.5899,-4.5899,-4.5776,-4.5518,-4.4643,-4.4008,-4.3451,-4.2258,-4.1566,-4.1181,-4.0689,-4.0496,-4.0496,-4.0496,-4.0496,-4.0342,-3.9534,-3.9053,-3.8469,-3.7084,-3.7065,-3.7161,-3.5846,-3.6462,-3.7142,-3.5808,-3.5865,-3.6077,-3.5596,-3.5522,-3.5307,-3.4471,-3.4378,-3.4066,-3.2959,-3.2379,-3.1867,-3.1211,-2.9941,-2.8926,-2.8555,-2.8066,-2.7422,-2.6543,-2.5996,-2.5683,-2.5661,-2.5559,-2.5498,-2.5465,-2.4594,-2.4317,-2.4774,-2.4009,-2.3778,-2.4255,-2.3447,-2.3009,-2.3009,-2.2509,-2.1812,-2.1,-2.135,-2.1331,-3.0898,-3.1205,-3.2092,-3.65,-3.8557,-4.0127,-4.2558,-4.4473,-4.6074,-4.7344,-4.8281,-4.9082,-4.9726,-4.9844,-5.0117,-5.0937,-5.1074,-5.1074,-5.1074,-5.0156,-4.9258,-4.8613,-4.8037,-4.8005,-4.8864,-4.9162,-4.9905,-5.1353,-5.1585,-5.156,-5.1273,-5.0581,-4.9512,-4.8008,-4.7109,-4.6543,-4.6308,-4.6308,-4.6308,-4.6308,-4.6308,-4.6308,-4.6308,-4.6308,-4.6308,-4.6308,-4.6308,-4.6147,-4.5899,-4.5899,-4.5776,-4.5537,-4.4921,-4.4297,-4.3682,-4.2816,-4.2047,-4.1354,-4.0727,-4.0496,-4.0496,-4.0496,-4.0496,-4.04,-3.9804,-3.9477,-3.9034,-3.7777,-3.7873,-3.8027,-3.6558,-3.7276,-3.7988,-3.6538,-3.6635,-3.6827,-3.6,-3.5827,-3.5592,-3.4791,-3.4654,-3.4429,-3.3698,-3.2909,-3.2316,-3.2163,-3.0898,-2.9863,-2.9629,-2.8633,-2.7695,-2.707,-2.6211,-2.5703,-2.5703,-2.559,-2.5491,-2.5491,-2.483,-2.4697,-2.5288,-2.4736,-2.4716,-2.5288,-2.4509,-2.411,-2.411,-2.3471,-2.272,-2.187,-2.21,-2.2081,-2.9038,-3.065,-3.2914,-3.7279,-4.0295,-4.2664,-4.4491,-4.6269,-4.7539,-4.7598,-4.8281,-4.8906,-4.8926,-4.8945,-4.9219,-5.0098,-5.0234,-5.0234,-5.0234,-4.8769,-4.7676,-4.7637,-4.6133,-4.5687,0.0,-4.8034,-4.8895,-4.9795,-4.9994,-5.0466,-5.1347,-5.0625,-4.9785,-4.8887,-4.8027,-4.7148,-4.6308,-4.6308,-4.6308,-4.6308,-4.6308,-4.6308,-4.6308,-4.6308,-4.6308,-4.6308,-4.6308,-4.6147,-4.5899,-4.5899,-4.5776,-4.5594,-4.5575,-4.5556,-4.5421,-4.4547,-4.2662,-4.0535,-4.0516,-4.0496,-4.0496,-4.0496,-4.0496,-4.0496,-4.0477,-3.9919,-3.9284,-3.9246,-3.9246,-3.9053,-3.8161,-3.8584,-3.9034,-3.8142,-3.795,-3.7719,-3.6846,-3.6654,-3.6423,-3.5622,-3.5525,-3.5296,-3.4419,-3.3699,-3.2989,-3.2131,-3.1341,-3.0566,-2.9707,-2.8105,-2.7031,-2.6992,-2.6211,-2.5703,-2.5703,-2.559,-2.5491,-2.5491,-2.5344,-2.5269,-2.5308,-2.5288,-2.5288,-2.5308,-2.4509,-2.411,-2.411,-2.4072,-2.3605,-2.2778,-2.3624,-2.3567,-3.3691,-3.6243,-3.8711,-4.1968,-4.381,-4.5166,-4.6425,-4.7187,-4.7598,-4.7598,-4.6445,-4.5449,-4.5449,-4.4061,-4.3964,-4.7109,-4.7617,-4.8222,-4.9961,-4.9621,-4.8553,-4.6817,-4.6599,0.0,0.0,0.0,0.0,-4.8889,-4.9601,-4.9918,-4.9746,-5.0039,-4.9805,-4.8926,-4.8047,-4.7461,-4.7168,-4.6582,-4.6308,-4.6308,-4.6308,-4.6308,-4.6308,-4.6308,-4.6308,-4.6308,-4.6308,-4.62,-4.603,-4.5932,-4.5834,-4.5672,-4.4999,-4.4739,-4.4643,-4.3816,-4.2951,-4.2143,-4.1566,-4.0969,-4.0496,-4.0496,-4.0496,-4.0496,-4.0496,-4.0304,-3.9977,-3.9457,-3.9688,-3.9765,-3.8354,-3.9046,-3.9746,-3.8334,-3.843,-3.8469,-3.7,-3.6692,-3.6462,-3.5654,-3.5509,-3.5449,-3.5217,-3.4093,-3.2783,-3.1475,-3.1054,-3.0781,-3.0508,-2.8945,-2.7851,-2.7851,-2.6562,-2.5703,-2.5703,-2.559,-2.5491,-2.5491,-2.5364,-2.5308,-2.5308,-2.5308,-2.5308,-2.5308,-2.5019,-2.4909,-2.4909,-2.4909,-2.4466,-2.3663,-2.3956,-2.3937,-3.7715,-4.0439,-4.2612,-4.5578,-4.6445,-4.6749,-4.744,-4.6875,-4.6113,-4.5801,-4.3672,-4.1777,-4.1464,-4.0076,-4.027,-4.4257,-4.5174,-4.6385,-4.9316,-4.9114,-4.8164,-4.6799,-4.6855,-4.6642,0.0,0.0,0.0,-4.807,-4.9285,-4.9801,-4.9394,-5.0176,-5.0234,-4.9394,-4.8828,-4.8379,-4.8066,-4.7519,-4.707,-4.6758,-4.6445,-4.6308,-4.6308,-4.6308,-4.6308,-4.6308,-4.6308,-4.6224,-4.6084,-4.5963,-4.5866,-4.5725,-4.5043,-4.4759,-4.4701,-4.4182,-4.3797,-4.3355,-4.22,-4.1643,-4.1324,-4.0708,-4.0708,-4.0912,-4.0593,-4.0496,-4.0458,-4.0239,-4.0342,-4.0323,-3.9565,-3.9931,-4.0227,-3.9142,-3.9323,-3.9265,-3.7546,-3.7161,-3.6827,-3.5712,-3.55,-3.5521,-3.555,-3.4253,-3.2775,-3.1493,-3.1073,-3.0898,-3.0898,-2.9375,-2.8301,-2.8301,-2.6738,-2.5683,-2.5661,-2.5561,-2.5481,-2.5477,-2.5363,-2.5308,-2.5308,-2.5308,-2.5308,-2.5308,-2.5308,-2.5308,-2.5308,-2.5308,-2.5019,-2.4529,-2.4529,-2.4529,-4.0962,-4.3177,-4.466,-4.7992,-4.8127,-4.7416,-4.746,-4.5449,-4.3301,-4.2344,-4.0078,-3.8008,0.0,0.0,-3.818,-4.1699,-4.3102,-4.4996,-4.8535,-4.7637,-4.6894,0.0,0.0,0.0,0.0,0.0,0.0,-4.7543,0.0,-5.004,-5.0254,-5.0996,-5.1074,-5.0351,-5.0234,-4.9805,-4.8965,-4.8926,-4.8457,-4.7598,-4.6758,-4.6348,-4.6308,-4.6308,-4.6308,-4.6308,-4.6308,-4.6225,-4.6108,-4.5967,-4.5866,-4.5796,-4.5648,-4.5594,-4.5594,-4.5594,-4.5075,-4.4124,-4.2508,-4.245,-4.2816,-4.1131,-4.1123,-4.1643,-4.0766,-4.0496,-4.0669,-4.1508,-4.1143,-4.0689,-4.1527,-4.1123,-4.0496,-4.0496,-4.0496,-4.0054,-3.8411,-3.8065,-3.7565,-3.5885,-3.5538,-3.5481,-3.5456,-3.4197,-3.293,-3.212,-3.1379,-3.0898,-3.0898,-2.9375,-2.8301,-2.8301,-2.6738,-2.5662,-2.5604,-2.5543,-2.5463,-2.5397,-2.5344,-2.5308,-2.5308,-2.5308,-2.5308,-2.5308,-2.5308,-2.5308,-2.5308,-2.5308,-2.5308,-2.5308,-2.5308,-2.5308,-4.6073,-4.783,-4.8846,-5.0349,-4.9118,-4.7225,-4.5957,-4.3672,-4.1211,-3.9043,-3.6015,-3.3516,0.0,0.0,0.0,-3.9764,-4.2869,0.0,-5.0195,-5.0851,0.0,-4.9508,0.0,-4.8874,-4.8417,-4.9075,0.0,0.0,-4.9294,-4.9745,-5.1035,-5.1289,-5.1601,-5.2051,-5.0859,-5.0098,-4.9863,-4.9219,-4.8457,-4.7598,-4.7363,-4.6933,-4.6308,-4.6308,-4.6308,-4.6308,-4.6308,-4.6289,-4.6225,-4.5995,-4.5881,-4.5871,-4.5665,-4.5594,-4.5594,-4.5594,-4.546,-4.5114,-4.4047,-4.3412,-4.2912,-4.1816,-4.1623,-4.1643,-4.0766,-4.0496,-4.0554,-4.0766,-4.0669,-4.0554,-4.0766,-4.0669,-4.0496,-4.0496,-4.0496,-4.0227,-3.9188,-3.8977,-3.845,-3.6731,-3.5904,-3.5309,-3.4701,-3.3826,-3.293,-3.212,-3.1379,-3.0898,-3.0898,-2.9375,-2.8301,-2.8301,-2.6738,-2.5662,-2.5604,-2.5543,-2.5463,-2.5397,-2.5344,-2.5308,-2.5308,-2.5308,-2.5308,-2.5308,-2.5308,-2.5308,-2.5308,-2.5308,-2.5308,-2.5308,-2.5308,-2.5308,-4.9629,-5.0918,-5.1308,-5.1387,-4.9473,-4.6933,-4.4433,-4.1582,-3.8633,-3.5644,-3.2578,0.0,-2.9336,-3.0154,0.0,0.0,0.0,0.0,-4.9648,-5.0659,-5.0708,0.0,-5.0083,0.0,-4.9401,-4.9861,-5.0351,0.0,-5.0625,-5.0801,-5.1367,-5.1758,-5.2012,-5.2129,-5.1211,-5.0723,-5.0723,-4.9883,-4.9023,-4.8164,-4.7773,-4.7148,-4.6308,-4.6308,-4.6308,-4.6308,-4.6308,-4.6308,-4.6289,-4.6001,-4.5899,-4.5876,-4.5688,-4.5594,-4.5594,-4.5594,-4.5594,-4.5479,-4.4605,-4.3989,-4.3412,-4.22,-4.1788,-4.1643,-4.0766,-4.0496,-4.0573,-4.095,-4.0804,-4.0593,-4.0969,-4.0785,-4.0496,-4.0496,-4.0227,-3.9746,-3.8911,-3.8719,-3.8334,-3.6962,-3.6346,-3.5777,-3.498,-3.4244,-3.3488,-3.2649,-3.1919,-3.1308,-3.0875,-2.9687,-2.8867,-2.8867,-2.7283,-2.62,-2.6128,-2.5703,-2.5428,-2.5363,-2.5331,-2.5308,-2.5308,-2.5308,-2.5308,-2.5308,-2.5308,-2.5308,-2.5308,-2.5308,-2.5308,-2.5308,-2.5308,-2.5308,-5.2187,-5.2969,-5.2656,-5.1797,-4.9394,-4.6348,-4.2851,-3.9238,-3.5664,-3.2284,0.0,-2.7715,-2.6972,-2.8299,-3.0973,-3.5449,0.0,-4.3141,-4.8476,-4.9238,-4.9609,-5.0586,-5.0508,-5.0391,-5.0527,-5.043,-5.0703,-5.1504,-5.2266,-5.2363,-5.1601,-5.2187,-5.2187,-5.1426,-5.1406,-5.1406,-5.1406,-5.0605,-4.9824,-4.9062,-4.8066,-4.7207,-4.6465,-4.6348,-4.6308,-4.6308,-4.6308,-4.6308,-4.6289,-4.6001,-4.5907,-4.5899,-4.5696,-4.5612,-4.5618,-4.5603,-4.5594,-4.5498,-4.472,-4.4393,-4.4028,-4.2335,-4.1885,-4.1816,-4.0931,-4.0669,-4.0843,-4.1585,-4.1162,-4.0669,-4.1431,-4.1066,-4.0496,-4.0496,-3.9977,-3.9246,-3.8507,-3.8161,-3.7777,-3.7019,-3.6692,-3.6327,-3.5615,-3.4928,-3.4181,-3.3329,-3.2604,-3.1813,-3.0836,-3.0051,-2.9531,-2.9433,-2.7995,-2.6947,-2.6651,-2.5971,-2.5499,-2.5313,-2.5308,-2.5308,-2.5308,-2.5308,-2.5308,-2.5308,-2.5308,-2.5308,-2.5308,-2.5308,-2.5308,-2.5308,-2.5308,-2.5308,-5.4297,-5.4316,-5.3574,-5.2695,-4.8926,-4.4551,-4.1113,-3.6523,0.0,0.0,-2.746,-2.6093,-2.5957,-2.793,-3.123,-3.6269,0.0,0.0,0.0,0.0,-5.1562,0.0,0.0,0.0,-5.2207,-5.1601,0.0,0.0,-5.2617,-5.2637,-5.248,-5.1933,-5.1562,-5.1406,-5.1406,-5.1406,-5.1406,-5.0605,-5.0117,-4.9961,-4.8359,-4.7519,-4.7344,-4.6621,-4.6308,-4.6308,-4.6308,0.0,-4.6289,-4.6001,-4.5971,-4.6033,-4.5728,-4.5665,-4.5754,-4.5643,-4.5594,-4.5575,-4.5441,-4.4893,-4.4028,-4.2335,-4.2297,-4.272,-4.1835,-4.1566,-4.1604,-4.175,-4.1162,-4.0535,-4.0689,-4.0612,-4.0496,-4.0496,-4.04,-4.0246,-4.0092,-3.8969,-3.7969,-3.7796,-3.6654,-3.5654,-3.5519,-3.4842,-3.4089,-3.3299,-3.253,-3.1711,-3.0812,-3.0016,-2.9238,-2.8514,-2.8102,-2.7301,-2.5844,-2.6191,-2.6148,-2.5351,-2.5308,-2.5308,-2.5308,-2.5308,-2.5308,-2.5308,-2.5308,-2.5308,-2.5308,-2.5308,-2.5308,-2.5308,-2.5308,-2.5308,-5.2109,-5.2969,-5.3672,-5.2344,-4.8144,-4.3183,-3.8867,0.0,0.0,0.0,-2.6288,-2.5703,-2.5703,0.0,0.0,0.0,0.0,0.0,0.0,0.0,0.0,0.0,0.0,0.0,0.0,-5.1641,-5.1562,-5.1992,-5.2012,-5.2226,-5.2676,-5.1875,-5.1406,-5.1406,-5.1406,-5.1406,-5.1406,-5.0605,-5.0195,-5.0176,-4.8437,-4.7598,-4.7578,-4.6699,-4.6308,-4.6308,-4.6308,-4.6308,-4.6289,-4.6082,-4.6042,-4.6077,-4.5855,-4.5764,-4.579,-4.5737,-4.5657,-4.5537,-4.5075,-4.4643,-4.4105,-4.2874,-4.2758,-4.2931,-4.2058,-4.2124,-4.2374,-4.1923,-4.1508,-4.1066,-4.0631,-4.0496,-4.0496,-4.0496,-4.0189,-3.9881,-3.9881,-3.9246,-3.8546,-3.8084,-3.7353,-3.6519,-3.5654,-3.521,-3.4705,-3.3885,-3.3532,-3.2855,-3.1445,-3.0995,-3.0451,-2.9544,-2.8601,-2.7718,-2.6871,-2.6293,-2.5774,-2.5327,-2.5308,-2.5308,-2.5308,-2.5308,-2.5308,-2.5308,-2.5308,-2.5308,-2.5308,-2.5308,-2.5308,-2.5308,-2.5308,-2.5308,-5.0507,-5.2109,-5.3574,-5.1836,-4.7246,-4.1914,-3.7109,-3.3066,0.0,0.0,-2.5703,-2.5703,-2.5703,0.0,-2.8437,0.0,0.0,0.0,0.0,0.0,0.0,0.0,0.0,0.0,0.0,-5.1504,0.0,-5.1406,-5.1406,-5.1699,-5.2383,-5.1777,-5.1406,-5.1406,-5.123,-5.1133,-5.1133,-5.0332,-4.9922,-4.9902,-4.834,-4.7598,-4.7578,-4.6699,-4.6308,-4.6308,-4.6308,-4.6308,-4.6289,-4.6168,-4.6108,-4.6084,-4.5944,-4.5881,-4.5808,-4.5816,-4.5725,-4.5539,-4.4833,-4.4586,-4.4432,-4.3624,-4.3355,-4.3239,-4.2547,-4.2816,-4.3201,-4.2527,-4.222,-4.1873,-4.0989,-4.092,-4.1016,-4.0823,-4.0296,-3.9777,-3.9611,-3.9419,-3.9111,-3.8411,-3.7988,-3.7296,-3.5981,-3.5655,-3.5298,-3.4424,-3.4468,-3.3977,-3.2302,-3.204,-3.1714,-3.0965,-2.9465,-2.8396,-2.8024,-2.6679,-2.5788,-2.5596,-2.5404,-2.5308,-2.5308,-2.5308,-2.5308,-2.5308,-2.5308,-2.5308,-2.5308,-2.5308,-2.5308,-2.5308,-2.5308,-2.5308,-5.3496,-5.4355,-5.3574,-5.1836,-4.6367,-4.0488,-3.6836,0.0,0.0,-2.6093,-2.5703,-2.5703,-2.5703,-2.584,-2.703,0.0,0.0,-3.3782,0.0,0.0,0.0,0.0,0.0,0.0,0.0,-5.1855,-5.1406,-5.1406,-5.1406,-5.1426,-5.1523,-5.1445,-5.1406,-5.1406,-5.0683,-5.0312,-5.0312,-4.9453,-4.9023,-4.9004,-4.8047,-4.7598,-4.7578,-4.6699,-4.6308,-4.6308,-4.6308,-4.6308,0.0,-4.6168,-4.6108,-4.6084,-4.5944,-4.5894,-4.5872,-4.5814,-4.579,-4.5749,-4.5547,-4.5479,-4.5344,-4.447,-4.4182,-4.4162,-4.4085,-4.4124,-4.4162,-4.4085,-4.3547,-4.2777,-4.1912,-4.2277,-4.2662,-4.1873,-4.1615,-4.1354,-4.0554,-3.9823,-3.9284,-3.9207,-3.7892,-3.6769,-3.6615,-3.5995,-3.5226,-3.4427,-3.4431,-3.4166,-3.3203,-3.2437,-3.1948,-3.1807,-3.0863,-2.9646,-2.8124,-2.7793,-2.7313,-2.6524,-2.5731,-2.5308,-2.5308,-2.5308,-2.5308,-2.5308,-2.5308,-2.5308,-2.5308,-2.5308,-2.5308,-2.5308,-2.5308,-2.5308,-4.6621,-4.9922,-5.293,-5.1699,-4.5859,-3.9648,-3.668,0.0,-2.6387,-2.5176,-2.4922,-2.4922,-2.4922,-2.5349,-2.6302,0.0,0.0,0.0,0.0,0.0,0.0,0.0,0.0,0.0,0.0,0.0,-5.1406,-5.1406,-5.0957,-5.0683,-5.0683,-5.0683,-5.0449,-4.9902,-4.957,-4.9414,-4.9414,-4.8555,-4.8379,-4.8887,-4.748,-4.709,-4.7578,-4.6699,-4.6308,-4.6308,-4.6308,-4.6308,0.0,-4.6247,-4.6223,-4.6222,-4.6152,-4.6087,-4.6024,-4.5986,-4.5901,-4.579,-4.5733,-4.5665,-4.5537,-4.521,-4.5075,-4.4979,-4.4451,-4.4662,-4.4979,-4.4451,-4.4066,-4.3624,-4.2797,-4.2835,-4.3008,-4.2662,-4.2181,-4.1692,-4.1354,-4.0623,-3.9881,-3.94,-3.8315,-3.7315,-3.6788,-3.6038,-3.5406,-3.5115,-3.5169,-3.4925,-3.4095,-3.3775,-3.3185,-3.2027,-3.0591,-2.9457,-2.8771,-2.8253,-2.7581,-2.6664,-2.6302,-2.5887,-2.5327,-2.5308,-2.5308,-2.5308,-2.5308,-2.5308,-2.5308,-2.5308,-2.5308,-2.5308,-2.5308,-2.5308,-4.2128,-4.6055,-5.0019,-4.9922,-4.4473,-3.8379,0.0,0.0,-2.5449,-2.457,-2.4394,-2.4472,-2.4745,-2.5289,-2.5884,0.0,0.0,-2.8297,0.0,0.0,0.0,0.0,0.0,-4.6854,0.0,-5.0469,-5.1191,-5.0703,-5.0371,-4.9961,-4.9453,-4.9433,-4.9277,-4.8906,-4.8652,-4.8516,-4.8516,-4.791,-4.7773,-4.8125,-4.7148,-4.6875,-4.7187,-4.6582,-4.6308,-4.6308,-4.6308,-4.6308,0.0,-4.6308,-4.6288,-4.6246,-4.6246,-4.6177,-4.6084,-4.6021,-4.5929,-4.582,-4.5756,-4.568,-4.5594,-4.5594,-4.5594,-4.5498,-4.4874,-4.5114,-4.5479,-4.4855,-4.4489,-4.422,-4.3912,-4.3643,-4.3451,-4.3451,-4.2989,-4.2412,-4.1904,-4.1316,-4.065,-3.9804,-3.8969,-3.8104,-3.7238,-3.6433,-3.5835,-3.5634,-3.5687,-3.5549,-3.4987,-3.479,-3.4196,-3.2863,-3.1104,-2.991,-2.9644,-2.8888,-2.8012,-2.708,-2.6815,-2.6285,-2.5332,-2.5308,-2.5308,-2.5308,-2.5308,-2.5308,-2.5308,-2.5308,-2.5308,-2.5308,-2.5308,-2.5308,-4.2871,-4.4394,-4.4219,-4.5918,-4.1797,-3.6426,0.0,0.0,-2.5449,-2.4589,-2.4394,-2.4667,-2.5527,-2.5699,-2.5687,-2.5619,0.0,0.0,0.0,0.0,0.0,0.0,0.0,-4.3481,-4.6087,-4.9413,-5.0703,-4.9043,-4.9726,0.0,-4.7715,-4.7637,-4.8027,-4.8867,-4.8066,-4.7617,-4.7617,-4.7598,-4.7168,-4.6348,-4.7187,-4.7148,-4.6308,-4.6308,-4.6308,-4.6308,-4.6308,-4.6308,0.0,-4.6308,-4.6223,-4.6091,-4.6091,-4.6108,-4.6075,-4.5883,-4.5847,-4.5862,-4.5665,-4.5594,-4.5594,-4.5594,-4.5594,-4.5594,-4.5594,-4.5594,-4.5594,-4.5594,-4.4979,-4.4489,-4.5344,-4.494,-4.4297,-4.4297,-4.4278,-4.3816,-4.2162,-4.1788,-4.1527,-4.0669,-3.9842,-3.9015,-3.8142,-3.7379,-3.6593,-3.5727,-3.5778,-3.5882,-3.5882,-3.5189,-3.4687,-3.4668,-3.3057,-3.1595,-3.0667,-2.985,-2.8984,-2.8036,-2.7179,-2.6281,-2.5332,-2.5308,-2.5308,-2.5308,-2.5308,-2.5308,-2.5308,-2.5308,-2.5308,-2.5308,-2.5308,-2.5308,-3.4686,-3.6875,-3.8574,-3.9121,-3.6074,-3.2324,-3.0039,0.0,-2.3691,-2.2851,-2.2695,-2.2948,-2.3767,-2.4408,-2.5177,-2.6309,-2.6695,0.0,0.0,0.0,0.0,0.0,-4.3606,-4.7166,0.0,0.0,-5.0703,-4.9023,-4.916,-4.8808,-4.7656,-4.7031,-4.6836,-4.7109,-4.6855,-4.6719,-4.6719,-4.6719,-4.6562,-4.6308,-4.6582,-4.6562,-4.6308,-4.6308,-4.6308,-4.6308,-4.6308,-4.6308,-4.6308,-4.6308,-4.6269,-4.6225,-4.6142,-4.6168,-4.6201,-4.5967,-4.5886,-4.5876,-4.5777,-4.568,-4.5594,-4.5594,-4.5594,-4.5594,-4.5594,-4.5594,-4.5594,-4.5594,-4.5402,-4.5248,-4.5537,-4.5402,-4.519,-4.519,-4.472,-4.4031,-4.2985,-4.2256,-4.1567,-4.079,-3.9911,-3.9032,-3.8202,-3.7411,-3.6653,-3.5924,-3.586,-3.5913,-3.5952,-3.5742,-3.5351,-3.4766,-3.3651,-3.2588,-3.1636,-3.0773,-2.9876,-2.8873,-2.8081,-2.7239,-2.6303,-2.564,-2.5312,-2.5379,-2.5317,-2.5308,-2.5308,-2.5308,-2.5317,-2.5375,-2.5312,-2.5342,0.0,-3.1464,-3.3242,-3.3906,-3.1972,0.0,0.0,0.0,-2.2598,-2.2382,-2.2342,-2.271,-2.3878,-2.4493,-2.5197,-2.6238,-2.6658,0.0,0.0,0.0,0.0,-3.7572,0.0,0.0,0.0,-4.9062,-4.9746,-4.8047,-4.8223,-4.8027,-4.7168,-4.6582,-4.6308,-4.6308,-4.6308,-4.6308,-4.6308,-4.6308,-4.6308,-4.6308,-4.6308,-4.6308,-4.6308,-4.6308,-4.6308,-4.6308,-4.6308,-4.6308,0.0,-4.6308,-4.6308,-4.6289,-4.6149,-4.6177,-4.6268,-4.5975,-4.5881,-4.5876,-4.5764,-4.5673,-4.5594,-4.5594,-4.5594,-4.5594,-4.5594,-4.5594,-4.5594,-4.5594,-4.5594,-4.5594,-4.5594,-4.5594,-4.5612,-4.5657,-4.5017,-4.4175,-4.3424,-4.2568,-4.1673,-4.09,-4.0269,-3.9615,-3.8792,-3.8261,-3.7594,-3.6557,-3.6404,-3.632,-3.6035,-3.5996,-3.5781,-3.5254,-3.4414,-3.3515,-3.2609,-3.1454,-3.036,-2.9388,-2.8885,-2.806,-2.6783,-2.618,-2.5735,-2.5441,-2.5402,-2.5367,-2.5344,-2.5339,-2.536,-2.5441,-2.5398,-2.5415,0.0,0.0,0.0,0.0,0.0,0.0,0.0,0.0,0.0,0.0,-2.2961,-2.3523,-2.5214,-2.5519,-2.5531,-2.5609,-2.6224,0.0,0.0,-2.9855,0.0,0.0,-4.1283,0.0,-4.3714,-4.6853,-4.8183,-4.6426,-4.7109,-4.7226,-4.6348,-4.6308,-4.6308,-4.6308,-4.6308,-4.6308,-4.6308,-4.6308,-4.6308,-4.6308,-4.6308,-4.6308,-4.6308,-4.6308,-4.6308,0.0,-4.6308,-4.6308,-4.6308,-4.6308,-4.6308,-4.6289,-4.6149,-4.6177,-4.6267,-4.592,-4.5839,-4.59,-4.5688,-4.562,-4.5612,-4.5594,-4.5594,-4.5594,-4.5612,-4.5603,-4.5594,-4.5594,-4.5594,-4.5594,-4.5594,-4.5594,-4.5627,-4.5775,-4.5131,-4.4297,-4.3566,-4.2727,-4.1844,-4.0984,-4.0805,-4.0548,-3.9746,-3.965,-3.9123,-3.7469,-3.726,-3.6992,-3.6113,-3.5996,-3.5996,-3.5996,-3.5156,-3.4277,-3.3476,-3.1914,-3.0584,-2.9649,-2.953,-2.8754,-2.7067,-2.6865,-2.6415,-2.5615,-2.5532,-2.5479,-2.5401,-2.5413,-2.5441,-2.5517,-2.5493,-2.5515,-2.2114,0.0,-2.3492,-2.3903,-2.4666,0.0,0.0,0.0,0.0,0.0,0.0,0.0,0.0,0.0,-2.484,-2.5564,-2.5782,-2.639,-2.7818,0.0,0.0,-3.9879,-4.4019,-4.6152,-4.4804,-4.7246,-4.8183,-4.6426,-4.7109,-4.7226,-4.6348,-4.6308,-4.6308,-4.6308,-4.6308,-4.6308,-4.6308,-4.6308,-4.6308,-4.6308,-4.6308,-4.6308,-4.6308,-4.6308,-4.6308,-4.6308,-4.6308,-4.6308,-4.6308,-4.6308,-4.6308,-4.6289,-4.6149,-4.6177,-4.6268,-4.5971,-4.5952,-4.6024,-4.582,-4.5754,-4.5733,-4.5627,-4.5594,-4.5629,-4.5711,-4.5688,-4.5594,-4.5594,-4.5594,-4.5594,-4.5594,-4.5594,-4.5627,-4.5775,-4.5131,-4.4327,-4.3689,-4.2796,-4.1867,-4.11,-4.087,-4.057,-3.9814,-3.9698,-3.9151,-3.7516,-3.7285,-3.6992,-3.6113,-3.5996,-3.5996,-3.5996,-3.4629,-3.3613,-3.3418,-3.2461,-3.1463,-3.0484,-2.984,-2.9311,-2.8886,-2.7548,-2.6727,-2.6567,-2.5866,-2.5484,-2.5488,-2.5485,-2.552,-2.5588,-2.5513,-2.5556,-2.0584,-2.1509,-2.2354,-2.1984,-2.316,-2.3963,0.0,0.0,0.0,0.0,0.0,0.0,0.0,0.0,0.0,0.0,-2.6875,0.0,0.0,0.0,-3.9497,-4.0884,-4.4217,-4.6191,0.0,-4.6875,-4.7324,-4.6367,-4.6738,-4.6797,-4.6328,-4.6308,-4.6308,-4.6308,-4.6308,-4.6308,-4.6308,-4.6308,-4.6308,-4.6308,-4.6308,-4.6308,-4.6308,-4.6308,-4.6308,-4.6308,-4.6308,-4.6308,-4.6308,-4.6308,-4.6308,-4.6289,-4.6223,-4.6245,-4.6269,-4.6075,-4.6039,-4.6072,-4.5872,-4.5768,-4.5692,-4.561,-4.5643,-4.5708,-4.5769,-4.577,-4.5724,-4.5688,-4.5685,-4.568,-4.562,-4.5651,-4.5718,-4.5813,-4.4958,-4.4012,-4.3704,-4.2607,-4.156,-4.1176,-4.1026,-4.0861,-4.0454,-4.0398,-3.9954,-3.8672,-3.8496,-3.8027,-3.6758,-3.6601,-3.6445,-3.6035,-3.5156,-3.4277,-3.3476,-3.3008,-3.2187,-3.0871,-3.0384,-2.9954,-2.9562,-2.8614,-2.7912,-2.7552,-2.6236,-2.5756,-2.6183,-2.5756,-2.5572,-2.5657,-2.5605,-2.5633,-2.0562,-2.1813,-2.2947,-2.2251,-2.3353,-2.4197,0.0,0.0,0.0,0.0,0.0,0.0,0.0,0.0,0.0,0.0,0.0,0.0,-3.4564,-3.7987,-4.0398,-4.0959,-4.3493,0.0,-4.6035,-4.6211,-4.6308,-4.6308,-4.6308,-4.6308,-4.6308,-4.6308,-4.6308,-4.6308,-4.6308,-4.6308,-4.6308,-4.6308,-4.6308,-4.6308,-4.6308,-4.6308,-4.6308,-4.6308,-4.6308,-4.6308,-4.6308,0.0,-4.6308,-4.6308,-4.6308,-4.6308,-4.6308,-4.6308,-4.6289,-4.6174,-4.612,-4.6106,-4.5911,-4.5763,-4.5657,-4.5657,-4.5711,-4.5809,-4.584,-4.5871,-4.5881,-4.5867,-4.584,-4.5783,-4.5685,-4.5643,-4.5644,-4.5724,-4.454,-4.3427,-4.3495,-4.2285,-4.1191,-4.1191,-4.1191,-4.1191,-4.1191,-4.1191,-4.0898,-4.0039,-3.9785,-3.9121,-3.7519,-3.7187,-3.6816,-3.6074,-3.5879,-3.5156,-3.3535,-3.3281,-3.2559,-3.0996,-3.0898,-3.0508,-2.9648,-2.9609,-2.9121,-2.8125,-2.6595,-2.6145,-2.6797,-2.6008,-2.5637,-2.5703,-2.5703,-2.5703,-2.0509,-2.1779,-2.3074,-2.2941,-2.4217,-2.5234,0.0,0.0,0.0,0.0,0.0,0.0,0.0,0.0,-2.8957,0.0,0.0,-3.5346,0.0,0.0,-4.1703,-4.1142,0.0,-4.5859,-4.5254,-4.5879,-4.6308,-4.6308,-4.6308,-4.6308,-4.6308,-4.6308,-4.6308,-4.6308,-4.6308,-4.6308,-4.6308,-4.6308,-4.6308,-4.6308,-4.6308,-4.6308,-4.6308,-4.6308,-4.6308,-4.6308,0.0,-4.6308,-4.6308,-4.6308,-4.6308,-4.6308,-4.6308,-4.6308,-4.6308,-4.6288,-4.6268,-4.6247,-4.6106,-4.5959,-4.5842,-4.5842,-4.5836,-4.5834,-4.5994,-4.5978,-4.5916,-4.6024,-4.5967,-4.5886,-4.5867,-4.5366,-4.4883,-4.4944,-4.3697,-4.2527,-4.2597,-4.1855,-4.1191,-4.1191,-4.1191,-4.1191,-4.1191,-4.1191,-4.0898,-4.0039,-3.9277,-3.8437,-3.7422,-3.666,-3.6152,-3.6016,-3.5332,-3.4492,-3.3496,-3.2773,-3.1953,-3.0957,-3.0898,-3.0508,-2.9648,-2.9609,-2.8848,-2.7226,-2.6933,-2.6484,-2.5898,-2.5742,-2.5683,-2.5703,-2.5703,-2.5703,-2.0504,-2.1777,-2.3092,-2.3064,-2.4387,-2.5468,0.0,0.0,0.0,0.0,0.0,0.0,0.0,0.0,-3.0573,-3.3875,0.0,-3.9138,-4.0521,-4.2066,-4.3083,0.0,0.0,-4.5625,-4.5703,-4.6055,-4.6308,-4.6308,-4.6308,-4.6308,-4.6308,-4.6308,-4.6308,-4.6308,-4.6308,-4.6308,-4.6308,-4.6308,-4.6308,-4.6308,-4.6308,-4.6308,-4.6308,-4.6308,-4.6308,-4.6308,0.0,-4.6308,-4.6308,-4.6308,-4.6308,-4.6308,-4.6308,-4.6308,-4.6308,-4.6308,-4.6248,-4.6177,-4.6119,-4.6005,-4.5899,-4.5899,-4.5927,-4.5971,-4.6072,-4.6113,-4.6023,-4.5612,-4.5742,-4.5891,-4.5386,-4.5005,-4.464,-4.4246,-4.3237,-4.2357,-4.2382,-4.1777,-4.1191,-4.1191,-4.1191,-4.1191,-4.1191,-4.1191,-4.1055,-4.0664,-3.9863,-3.8984,-3.8105,-3.7246,-3.6523,-3.6055,-3.5644,-3.4863,-3.3516,-3.3066,-3.2285,-3.0976,-3.0898,-3.0723,-3.0312,-2.9394,-2.873,-2.8418,-2.7012,-2.6328,-2.6406,-2.5937,-2.5703,-2.5703,-2.5703,-2.5703,-2.05,-2.1779,-2.3093,-2.3033,0.0,0.0,0.0,0.0,0.0,0.0,0.0,0.0,0.0,-2.9291,0.0,-3.8208,-4.0514,-4.2258,-4.4062,-4.4316,-4.4551,-4.5234,-4.5293,-4.5566,-4.623,-4.6308,-4.6308,-4.6308,-4.6113,-4.5996,-4.5996,-4.5801,-4.5683,-4.5683,-4.5683,-4.5781,-4.5996,-4.5996,-4.6094,-4.6308,-4.6308,-4.6308,-4.6308,-4.6308,-4.6308,-4.6308,-4.6308,-4.6308,-4.6308,-4.6308,-4.6308,-4.6308,-4.6308,-4.6308,-4.6308,-4.6308,-4.6245,-4.6147,-4.6147,-4.608,-4.5992,-4.5992,-4.6042,-4.6071,-4.589,-4.6023,-4.6072,-4.5234,-4.5541,-4.5923,-4.501,-4.4668,-4.4387,-4.3762,-4.2845,-4.2129,-4.2129,-4.1621,-4.1191,-4.1191,-4.1191,-4.1191,-4.1191,-4.1191,-4.1133,-4.0937,-4.0156,-3.9277,-3.8418,-3.7539,-3.6738,-3.6074,-3.582,-3.5,-3.3262,-3.3125,-3.248,-3.0996,-3.0898,-3.0898,-3.0898,-2.9414,-2.8828,-2.9297,-2.7129,-2.623,-2.6699,-2.6035,-2.5703,-2.5703,-2.5703,-2.5703,-2.0505,-2.1771,-2.3097,-2.309,0.0,0.0,0.0,0.0,0.0,0.0,0.0,0.0,0.0,-3.3808,-3.6697,-4.0238,-4.2339,-4.4121,-4.5879,0.0,-4.6133,-4.6191,-4.6211,-4.623,-4.6289,-4.6308,-4.6308,-4.6308,-4.5547,-4.5098,-4.5098,-4.4336,-4.3887,-4.3887,-4.3887,-4.4277,-4.5098,-4.5098,-4.5508,-4.6308,-4.6308,-4.6308,-4.6308,-4.6308,-4.6308,-4.6308,-4.6308,-4.6308,-4.6308,-4.6308,-4.6308,-4.6308,-4.6308,-4.6308,-4.6308,-4.6308,-4.6289,-4.6289,-4.6289,-4.6289,-4.6268,-4.6268,-4.6199,-4.5962,-4.529,-4.5557,-4.5968,-4.5213,-4.5625,-4.6074,-4.5214,-4.4374,-4.3769,-4.3711,-4.2461,-4.1289,-4.1289,-4.123,-4.1191,-4.1191,-4.1191,-4.1191,-4.1191,-4.1191,-4.0937,-4.0117,-3.9258,-3.8379,-3.7519,-3.6621,-3.6074,-3.6016,-3.5273,-3.4101,-3.2422,-3.2285,-3.1894,-3.0957,-3.0898,-3.0898,-3.0898,-3.0,-2.916,-2.8418,-2.7402,-2.6543,-2.5781,-2.5723,-2.5703,-2.5703,-2.5703,-2.5703,-2.0503,-2.2135,-2.3703,-2.3127,0.0,0.0,0.0,0.0,0.0,0.0,0.0,0.0,0.0,0.0,-3.8554,-4.1404,-4.3359,-4.4922,-4.6133,-4.6308,-4.6094,-4.5566,-4.5488,-4.5273,-4.4746,-4.4687,-4.4687,-4.4687,-4.4375,-4.4199,-4.4199,-4.3887,-4.3691,-4.3691,-4.3691,-4.4121,-4.498,-4.5,-4.5449,-4.6308,-4.6308,-4.6308,-4.6308,-4.6308,-4.6308,-4.6308,-4.6308,-4.6308,-4.6308,-4.6308,-4.6308,-4.6308,-4.6308,-4.6308,-4.6308,-4.6308,-4.6308,-4.6308,-4.6308,-4.6308,-4.6308,-4.6308,-4.6268,-4.6069,-4.5254,-4.5194,-4.5132,-4.3769,-4.4004,-4.4609,-4.4277,-4.3945,-4.3437,-4.2383,-4.166,-4.1191,-4.1191,-4.1191,-4.1191,-4.1191,-4.1191,-4.1191,-4.1191,-4.0742,-4.0273,-3.9941,-3.8691,-3.7676,-3.7344,-3.6543,-3.5996,-3.5996,-3.5215,-3.4219,-3.3047,-3.248,-3.1836,-3.0957,-3.0898,-3.0898,-3.0898,-2.9531,-2.8633,-2.8301,-2.6914,-2.6035,-2.5703,-2.5703,-2.5703,-2.5703,-2.5703,-2.5703,-2.0499,-2.2168,-2.3806,0.0,0.0,0.0,0.0,0.0,0.0,0.0,0.0,0.0,0.0,0.0,0.0,0.0,-4.3437,-4.4883,-4.5762,-4.5898,-4.5566,-4.4687,-4.459,-4.4355,-4.3769,-4.3691,-4.3691,-4.3691,-4.3457,-4.3281,-4.3281,-4.3047,-4.291,-4.291,-4.291,-4.332,-4.418,-4.4453,-4.5039,-4.5898,-4.6172,-4.6308,-4.6308,-4.6308,-4.6308,-4.6308,-4.6308,-4.6308,-4.6308,-4.6308,-4.6308,-4.6308,-4.6308,-4.6308,-4.6308,-4.6308,-4.6308,-4.6308,-4.6308,-4.6308,-4.6308,-4.6308,-4.6113,-4.5723,-4.4844,-4.459,-4.4277,-4.2812,-4.3027,-4.3633,-4.3359,-4.3281,-4.3008,-4.1855,-4.1387,-4.1191,-4.1191,-4.1191,-4.1191,-4.1191,-4.1191,-4.1191,-4.1191,-4.0488,-3.9805,-3.9531,-3.8242,-3.7207,-3.6914,-3.6367,-3.5898,-3.5625,-3.5059,-3.4238,-3.3125,-3.2519,-3.1836,-3.0957,-3.0898,-3.0781,-3.0508,-2.9082,-2.8164,-2.7891,-2.6445,-2.5703,-2.5703,-2.5703,-2.5703,-2.5703,-2.5703,-2.5703,-2.0517,-2.1728,-2.3224,0.0,0.0,0.0,0.0,0.0,0.0,0.0,0.0,-3.8117,-3.7185,0.0,0.0,-4.0745,-4.2516,-4.3984,-4.4883,-4.498,-4.4668,-4.3789,-4.3691,-4.3672,-4.3672,-4.3672,-4.3672,-4.3672,-4.2871,-4.2383,-4.2383,-4.1621,-4.1191,-4.1191,-4.1191,-4.1582,-4.2383,-4.3262,-4.4121,-4.5,-4.5859,-4.6289,-4.6308,-4.6308,-4.6308,-4.6308,-4.6308,-4.6308,-4.6308,-4.6308,-4.6308,-4.6308,-4.6308,-4.6308,-4.6308,-4.6308,-4.6308,-4.6308,-4.6289,-4.6289,-4.6289,-4.6289,-4.5683,-4.4824,-4.3945,-4.3691,-4.3516,-4.2637,-4.3008,-4.3476,-4.2617,-4.2383,-4.2383,-4.2383,-4.1777,-4.1191,-4.1191,-4.1191,-4.1191,-4.1191,-4.1191,-4.1191,-4.1191,-4.0469,-3.959,-3.8711,-3.7851,-3.6973,-3.6113,-3.5996,-3.5664,-3.4805,-3.4707,-3.4023,-3.2344,-3.2207,-3.1836,-3.0957,-3.0898,-3.0508,-2.9648,-2.8769,-2.7891,-2.7012,-2.6133,-2.5703,-2.5703,-2.5703,-2.5703,-2.5703,-2.5703,-2.5703,-2.1189,-2.2532,0.0,0.0,0.0,0.0,0.0,0.0,0.0,0.0,0.0,-3.8857,-3.7357,0.0,0.0,-4.1699,-4.2441,-4.3301,-4.4785,-4.4473,-4.3769,-4.2891,-4.2793,-4.2558,-4.1992,-4.1933,-4.1933,-4.1933,-4.1699,-4.1562,-4.1562,-4.1328,-4.1191,-4.1191,-4.1191,-4.1582,-4.2383,-4.2656,-4.3223,-4.4082,-4.4355,-4.5117,-4.6308,-4.6308,-4.6308,-4.6308,-4.6308,-4.6308,-4.6308,-4.6308,-4.6308,-4.6308,-4.6308,-4.6308,-4.6308,-4.6308,-4.6308,-4.6211,-4.5605,-4.5391,-4.5273,-4.4668,-4.4297,-4.3926,-4.3047,-4.2793,-4.2617,-4.1797,-4.1738,-4.1875,-4.1621,-4.1562,-4.1562,-4.1562,-4.1367,-4.1191,-4.1191,-4.1191,-4.1191,-4.1191,-4.1191,-4.1016,-4.0391,-3.9551,-3.8691,-3.7812,-3.6934,-3.6289,-3.6035,-3.5996,-3.5898,-3.5644,-3.5605,-3.4922,-3.3184,-3.3047,-3.2382,-3.0866,-3.0768,-3.0398,-2.956,-2.8749,-2.7847,-2.6871,-2.6053,-2.5633,-2.5633,-2.5633,-2.5659,-2.5703,-2.5703,-2.5703,-2.1382,0.0,0.0,0.0,0.0,0.0,0.0,0.0,0.0,0.0,0.0,-3.9477,-3.8842,-3.9309,0.0,-4.2109,-4.2402,-4.2773,-4.3828,-4.3242,-4.2383,-4.1504,-4.1094,-4.0703,-4.0215,-4.0176,-4.0176,-4.0176,-4.0176,-4.0176,-4.0176,-4.0176,-4.0332,-4.0664,-4.0684,-4.1074,-4.1914,-4.2246,-4.2656,-4.3183,-4.3535,-4.4258,-4.5273,-4.5273,-4.5469,-4.5801,-4.6152,-4.6308,-4.6308,-4.6308,-4.6308,-4.6308,-4.6308,-4.6308,-4.6269,-4.5918,-4.5781,-4.5664,-4.4785,-4.4473,-4.4394,-4.3867,-4.3476,-4.3086,-4.2558,-4.2187,-4.1816,-4.1348,-4.1191,-4.1191,-4.1191,-4.0937,-4.0762,-4.1113,-4.1191,-4.1191,-4.1191,-4.1191,-4.1094,-4.0742,-4.0684,-4.041,-3.9531,-3.8652,-3.791,-3.7383,-3.6562,-3.5996,-3.5996,-3.5703,-3.5605,-3.5933,-3.5034,-3.4114,-3.3379,-3.2696,-3.1829,-3.0728,-3.0667,-3.0133,-2.8948,-2.8462,-2.7602,-2.6315,-2.5818,-2.5559,-2.5559,-2.5559,-2.5572,-2.563,-2.563,-2.563,-2.1227,0.0,0.0,0.0,0.0,0.0,0.0,0.0,0.0,0.0,0.0,-4.0042,-4.0817,-4.0429,-4.0507,-4.2148,-4.2266,-4.2207,-4.2285,-4.1523,-4.0664,-3.9883,-3.9082,-3.8594,-3.8594,-3.8594,-3.8594,-3.8594,-3.8594,-3.8594,-3.8594,-3.8594,-3.8965,-3.9766,-3.9785,-4.0156,-4.0957,-4.1777,-4.2129,-4.2051,-4.2949,-4.3359,-4.3359,-4.3594,-4.4121,-4.4922,-4.5723,-4.6113,-4.6172,-4.6172,-4.6172,-4.6191,-4.6269,-4.6191,-4.5976,-4.5254,-4.4941,-4.4766,-4.3887,-4.3574,-4.3574,-4.3496,-4.2949,-4.2285,-4.2285,-4.1777,-4.1191,-4.1191,-4.1191,-4.1172,-4.1094,-4.0488,-4.0078,-4.0781,-4.0957,-4.0976,-4.1055,-4.1074,-4.082,-3.9941,-3.9844,-3.9609,-3.8652,-3.7812,-3.7266,-3.7187,-3.6504,-3.5957,-3.5879,-3.5234,-3.5013,-3.5589,-3.3597,-3.2467,-3.3025,-3.1637,-3.0681,-3.0594,-3.0594,-2.98,-2.8059,-2.8068,-2.7271,-2.5512,-2.5498,-2.5481,-2.5484,-2.5484,-2.5486,-2.5491,-2.5491,-2.5491,0.0,-2.2214,0.0,0.0,0.0,0.0,0.0,0.0,0.0,0.0,-3.9011,-4.0989,-3.9301,-3.9882,-4.0996,-4.2206,-4.1308,-4.0684,-4.1367,-4.0137,-3.9082,-3.8906,-3.8711,-3.8594,-3.8594,-3.8594,-3.8594,-3.8594,-3.8594,-3.8594,-3.8594,-3.8594,-3.8691,-3.8867,-3.8887,-3.8965,-3.916,-4.0019,-4.0098,-3.9434,-4.0293,-4.0723,-4.0781,-4.2793,-4.3808,-4.3984,-4.418,-4.4648,-4.5273,-4.5273,-4.5273,-4.5351,-4.6035,-4.5469,-4.4316,-4.4824,-4.457,-4.3848,-4.2988,-4.2676,-4.2578,-4.1933,-4.1601,-4.1465,-4.1465,-4.1348,-4.1191,-4.1191,-4.1191,-4.1035,-4.0351,-4.0039,-3.9766,-3.9277,-3.916,-3.9355,-4.0039,-4.0176,-3.9922,-3.9043,-3.9434,-3.9414,-3.7851,-3.7422,-3.707,-3.6387,-3.6087,-3.5663,-3.4985,-3.5245,-3.5051,-3.3896,-3.3891,-3.3473,-3.2288,-3.1837,-3.1304,-3.056,-3.0517,-2.9735,-2.7986,-2.8034,-2.722,-2.5372,-2.5395,-2.5415,-2.5421,-2.5421,-2.5456,-2.5491,-2.5491,-2.5491,0.0,0.0,0.0,0.0,0.0,0.0,0.0,0.0,0.0,0.0,-3.8588,-3.9806,-3.8585,-3.9053,-3.9821,-4.0398,-3.9803,-3.9434,-3.9883,-3.8809,-3.7812,-3.7402,-3.6992,-3.6562,-3.6152,-3.6484,-3.6738,-3.6738,-3.7129,-3.7363,-3.7363,-3.7363,-3.7559,-3.7969,-3.7988,-3.8184,-3.8594,-3.9043,-3.9043,-3.8613,-3.9062,-3.9492,-3.9961,-4.2109,-4.3086,-4.3105,-4.3516,-4.3965,-4.4375,-4.4375,-4.4375,-4.4414,-4.4883,-4.4492,-4.3691,-4.373,-4.3476,-4.2969,-4.2129,-4.1836,-4.1758,-4.1348,-4.1191,-4.1191,-4.1191,-4.0918,-4.0586,-4.0586,-4.0273,-3.9844,-3.9394,-3.8965,-3.8652,-3.8613,-3.8594,-3.8711,-3.918,-3.9277,-3.9023,-3.8144,-3.834,-3.8223,-3.6914,-3.6657,-3.6476,-3.6027,-3.5861,-3.5495,-3.4664,-3.4511,-3.4156,-3.3246,-3.2811,-3.2377,-3.1853,-3.1422,-3.0969,-3.0486,-3.0061,-2.9245,-2.7953,-2.7578,-2.6736,-2.5327,-2.533,-2.5346,-2.535,-2.535,-2.5379,-2.5394,-2.5394,-2.5394,0.0,0.0,0.0,0.0,0.0,0.0,0.0,0.0,0.0,0.0,-3.7887,-3.8188,-3.8264,-3.8321,-3.8361,-3.8372,-3.8343,-3.8316,-3.8316,-3.7574,-3.6695,-3.5836,-3.5115,-3.4335,-3.3476,-3.4043,-3.4473,-3.4473,-3.5137,-3.5547,-3.5547,-3.5547,-3.5879,-3.6601,-3.6777,-3.7207,-3.793,-3.8223,-3.8301,-3.8144,-3.8301,-3.875,-3.9512,-4.1191,-4.2051,-4.2226,-4.2969,-4.3359,-4.3476,-4.3476,-4.3476,-4.3496,-4.3633,-4.3516,-4.3203,-4.2617,-4.2305,-4.2109,-4.1426,-4.1191,-4.1172,-4.1016,-4.1074,-4.1133,-4.084,-4.0351,-3.9863,-3.9726,-3.916,-3.8574,-3.8418,-3.7832,-3.7441,-3.8027,-3.8144,-3.8184,-3.834,-3.8379,-3.8125,-3.7246,-3.707,-3.6835,-3.6112,-3.5919,-3.5873,-3.5901,-3.5647,-3.518,-3.4367,-3.361,-3.3021,-3.2663,-3.1482,-3.0926,-3.1435,-3.0808,-3.0346,-3.0192,-2.9506,-2.8665,-2.7722,-2.6986,-2.6192,-2.5327,-2.5308,-2.5308,-2.5308,-2.5308,-2.5308,-2.5308,-2.5308,-2.5308,0.0,0.0,0.0,0.0,0.0,0.0,0.0,0.0,0.0,0.0,-3.7009,-3.8054,-3.8183,-3.8224,-3.8257,-3.8296,-3.7692,-3.7208,-3.7208,-3.6465,-3.5605,-3.4792,-3.4657,-3.4272,-3.3399,-3.3474,-3.3574,-3.3574,-3.3672,-3.375,-3.375,-3.375,-3.3809,-3.3926,-3.4648,-3.5098,-3.5215,-3.6719,-3.709,-3.6367,-3.7109,-3.7539,-3.7715,-3.9434,-4.0644,-4.1367,-4.1484,-4.1933,-4.2578,-4.2578,-4.2578,-4.2656,-4.3418,-4.2812,-4.1601,-4.2187,-4.1953,-4.1348,-4.123,-4.1191,-4.1074,-4.0312,-4.0586,-4.0918,-3.9414,-3.9394,-3.9746,-3.8984,-3.8691,-3.8437,-3.7676,-3.7383,-3.7148,-3.6504,-3.6348,-3.6543,-3.7305,-3.7461,-3.7226,-3.6348,-3.6125,-3.6048,-3.5931,-3.5809,-3.5764,-3.5877,-3.5093,-3.4192,-3.3386,-3.3086,-3.2368,-3.0926,-3.1228,-3.1274,-3.0635,-3.0462,-3.0077,-2.9319,-2.9165,-2.8396,-2.6832,-2.6659,-2.6192,-2.5327,-2.5308,-2.5308,-2.5308,-2.5308,-2.5308,-2.5308,-2.5308,-2.5308,0.0,0.0,0.0,0.0,0.0,0.0,0.0,0.0,0.0,-3.3212,-3.4314,-3.5457,-3.6504,-3.6723,-3.6745,-3.6787,-3.6495,-3.6119,-3.5655,-3.5266,-3.4523,-3.3203,-3.3073,-3.2753,-3.1924,-3.231,-3.2652,-3.2715,-3.3144,-3.3398,-3.3398,-3.3398,-3.3398,-3.3398,-3.3769,-3.3965,-3.3965,-3.5215,-3.5898,-3.5996,-3.6387,-3.6836,-3.7324,-3.8086,-3.9199,-4.0508,-4.0996,-4.1406,-4.1738,-4.1738,-4.1738,-4.1777,-4.2148,-4.1855,-4.123,-4.1601,-4.1504,-4.1191,-4.1191,-4.0879,-4.041,-4.0019,-3.9824,-3.9609,-3.8828,-3.8535,-3.8359,-3.7988,-3.7519,-3.7051,-3.668,-3.6562,-3.6465,-3.6094,-3.5996,-3.6093,-3.6437,-3.6513,-3.6371,-3.5919,-3.5817,-3.5797,-3.5797,-3.5705,-3.5499,-3.5079,-3.456,-3.3776,-3.2488,-3.2266,-3.1756,-3.0538,-3.0731,-3.0827,-3.0423,-2.9948,-2.9506,-2.9127,-2.8222,-2.7371,-2.664,-2.6135,-2.5692,-2.5308,-2.5308,-2.5308,-2.5308,-2.5308,-2.5308,-2.5308,-2.5308,-2.5308,0.0,0.0,0.0,0.0,0.0,0.0,0.0,0.0,-3.066,0.0,-3.2179,-3.2987,-3.4288,-3.4743,-3.49,-3.49,-3.4952,-3.4781,-3.4179,-3.4086,-3.3538,-3.2023,-3.1866,-3.1556,-3.0733,-3.1074,-3.1487,-3.1795,-3.1992,-3.2305,-3.2734,-3.2559,-3.2539,-3.2754,-3.2988,-3.3105,-3.3105,-3.416,-3.5039,-3.5664,-3.5898,-3.6348,-3.6973,-3.7207,-3.8008,-3.9297,-4.0156,-4.0664,-4.0859,-4.0625,-4.0801,-4.1172,-4.0957,-4.0996,-4.1172,-4.0957,-4.0879,-4.084,-4.0625,-4.0117,-3.9531,-3.9316,-3.8945,-3.8516,-3.8066,-3.7637,-3.7246,-3.7031,-3.6504,-3.5996,-3.5996,-3.5995,-3.5975,-3.5996,-3.5955,-3.5925,-3.5907,-3.5873,-3.5807,-3.5705,-3.5667,-3.5589,-3.5379,-3.5282,-3.4955,-3.412,-3.3751,-3.3103,-3.1852,-3.1506,-3.1115,-3.0462,-3.0404,-3.0308,-3.0096,-2.9467,-2.8915,-2.8492,-2.7294,-2.6505,-2.6269,-2.5604,-2.5219,-2.5219,-2.5187,-2.5182,-2.5219,-2.5219,-2.5219,-2.5219,-2.5274,-2.5308,0.0,0.0,0.0,0.0,0.0,0.0,0.0,0.0,0.0,-3.1025,-3.1737,-3.1795,-3.1891,-3.2513,-3.3038,-3.3038,-3.3044,-3.3038,-3.2999,-3.2974,-3.2666,-3.1819,-3.1767,-3.1461,-3.0593,-2.999,-2.9953,-3.0717,-2.9391,-2.9297,-3.0937,-3.0254,-3.0176,-3.0996,-3.1836,-3.2266,-3.2266,-3.3887,-3.4726,-3.4785,-3.5605,-3.6016,-3.6094,-3.6914,-3.7344,-3.748,-3.8359,-3.9199,-3.9902,-3.9082,-3.9707,-4.1113,-4.0293,-4.0469,-4.1094,-4.0273,-3.9961,-3.9844,-3.9023,-3.8711,-3.8535,-3.7695,-3.7969,-3.8281,-3.6641,-3.668,-3.7129,-3.6309,-3.6035,-3.5996,-3.5996,-3.5949,-3.5916,-3.5976,-3.5848,-3.5758,-3.5873,-3.5802,-3.5686,-3.5626,-3.5601,-3.535,-3.4517,-3.4322,-3.4024,-3.3268,-3.2406,-3.1795,-3.1718,-3.0981,-3.0442,-3.0404,-3.0404,-3.0077,-2.9242,-2.9127,-2.8415,-2.6832,-2.6659,-2.6231,-2.5404,-2.5149,-2.5016,-2.5016,-2.4896,-2.4896,-2.5016,-2.5016,-2.5016,-2.5022,-2.5214,-2.5308,0.0,0.0,0.0,0.0,0.0,0.0,0.0,0.0,-2.6184,-2.7407,-2.8513,-2.9256,-2.9256,-3.0833,-3.1948,-3.1385,-3.1756,-3.1737,-3.0627,-3.0948,-3.0794,-2.941,-2.9286,-2.9183,-2.8911,-2.8673,-2.8677,-2.9018,-2.8531,-2.8507,-2.9132,-2.9432,-2.9492,-2.9238,-3.0625,-3.1581,-3.2079,-3.2665,-3.3525,-3.4638,-3.4999,-3.5469,-3.6016,-3.6282,-3.6392,-3.6411,-3.6723,-3.771,-3.9043,-3.873,-3.8965,-3.9492,-3.9199,-3.9258,-3.9492,-3.918,-3.9062,-3.9023,-3.8711,-3.8223,-3.7715,-3.7402,-3.7129,-3.6816,-3.6191,-3.6211,-3.6406,-3.6094,-3.5996,-3.5996,-3.5947,-3.5914,-3.5878,-3.5828,-3.5726,-3.5653,-3.569,-3.567,-3.5621,-3.5552,-3.554,-3.527,-3.4389,-3.4225,-3.3744,-3.2397,-3.1914,-3.1506,-3.0942,-3.0596,-3.0192,-2.9621,-2.9563,-2.9236,-2.8396,-2.7813,-2.7236,-2.664,-2.6077,-2.558,-2.513,-2.5034,-2.4955,-2.4864,-2.4689,-2.4689,-2.4864,-2.4864,-2.4864,-2.4864,-2.4942,-2.4987,0.0,0.0,0.0,0.0,0.0,0.0,0.0,0.0,-2.4264,-2.5111,-2.6196,-2.7048,-2.7305,-2.8804,-2.989,-2.9615,-3.0044,-3.0025,-2.8857,-2.9198,-2.9159,-2.803,-2.7895,-2.7913,-2.7965,-2.7713,-2.7709,-2.8031,-2.7589,0.0,-2.8162,-2.8483,-2.8665,-2.8708,-3.0069,-3.1058,-3.1555,-3.1835,-3.2549,-3.3704,-3.4333,-3.4947,-3.5493,-3.5738,-3.5836,-3.5838,-3.5875,-3.6758,-3.8102,-3.7832,-3.8066,-3.8574,-3.8281,-3.834,-3.8555,-3.8262,-3.8164,-3.8125,-3.7832,-3.7344,-3.6855,-3.6855,-3.6465,-3.5996,-3.5974,-3.5972,-3.5952,-3.5906,-3.5902,-3.5897,-3.5847,-3.5836,-3.5794,-3.5655,-3.5621,-3.5595,-3.5566,-3.5342,-3.512,-3.5065,-3.4827,-3.4372,-3.3506,-3.3353,-3.2872,-3.1487,-3.125,-3.1058,-3.0462,-3.0135,-2.9737,-2.9165,-2.8857,-2.8335,-2.7445,-2.682,-2.6466,-2.6407,-2.5604,-2.5194,-2.5329,-2.501,-2.4795,-2.47,-2.4503,-2.4461,-2.4591,-2.4662,-2.47,-2.47,-2.4768,-2.4768,0.0,0.0,0.0,0.0,0.0,0.0,-2.1214,0.0,-2.201,-2.4473,-2.5008,-2.5275,-2.6041,-2.6351,-2.6774,-2.764,-2.7832,-2.7857,-2.7838,-2.7857,-2.7857,-2.7838,-2.7818,-2.7818,-2.7818,-2.7112,-2.7005,-2.785,-2.642,-2.6258,-2.8021,-2.7264,-2.7593,-2.9391,-3.0137,-3.0538,-3.0614,-3.1422,-3.1837,-3.1876,-3.3592,-3.4448,-3.4487,-3.5279,-3.5626,-3.5629,-3.5797,-3.6327,-3.7054,-3.6305,-3.6992,-3.8437,-3.7598,-3.7773,-3.8418,-3.7578,-3.7266,-3.7148,-3.6289,-3.5996,-3.5996,-3.5996,-3.5996,-3.5975,-3.5913,-3.588,-3.5871,-3.5749,-3.5707,-3.5703,-3.5703,-3.568,-3.5628,-3.5528,-3.5552,-3.5563,-3.5483,-3.4776,-3.4167,-3.4205,-3.3526,-3.2679,-3.1833,-3.1698,-3.141,-3.0538,-3.0404,-3.0404,-3.0404,-2.966,-2.9127,-2.9069,-2.8376,-2.7451,-2.6352,-2.6263,-2.6179,-2.5982,-2.5235,-2.5141,-2.5921,-2.5013,-2.4503,-2.4495,-2.4303,-2.419,-2.419,-2.4401,-2.4495,-2.4495,-2.4693,-2.4678,-1.841,0.0,0.0,0.0,0.0,0.0,-2.05,-2.1039,-2.1681,-2.2293,-2.2954,-2.3477,-2.3608,-2.3755,-2.4096,-2.4821,-2.6069,-2.6736,-2.6115,-2.6563,-2.6736,-2.6096,-2.6019,-2.6019,-2.6019,-2.5823,-2.5784,0.0,-2.5666,-2.5657,-2.6151,-2.5965,-2.6675,-2.8433,-2.8019,-2.8096,-2.8735,-2.9539,-3.0269,-3.0898,-3.2069,-3.2953,-3.3576,-3.374,-3.382,-3.3859,-3.4466,-3.4882,-3.5158,-3.5747,-3.6289,-3.6699,-3.6445,-3.6504,-3.668,-3.6396,-3.629,-3.6247,-3.5901,-3.579,-3.579,-3.579,-3.579,-3.5785,-3.5766,-3.5758,-3.5755,-3.5713,-3.5707,-3.5689,-3.5648,-3.5111,-3.476,-3.5354,-3.5521,-3.5348,-3.4693,-3.3872,-3.3449,-3.409,-3.4013,-3.3372,-3.1948,-3.1698,-3.141,-3.0538,-3.0404,-3.0404,-3.0404,-3.0192,-2.9583,-2.8357,-2.803,-2.7207,-2.55,-2.5367,-2.5291,-2.5144,-2.4929,-2.4825,-2.4912,-2.464,-2.4426,-2.4284,-2.4228,-2.419,-2.419,-2.4266,-2.4275,-2.4284,-2.433,-2.4348,0.0,0.0,0.0,0.0,0.0,0.0,-2.0215,-2.0327,-2.0485,0.0,-2.1192,-2.1593,-2.1453,-2.2178,-2.279,-2.2759,-2.3987,-2.5027,-2.5259,-2.5447,-2.5486,-2.5327,-2.5308,-2.5308,-2.5308,-2.5308,-2.5308,-2.5308,-2.5339,-2.5363,-2.5363,-2.5763,-2.6478,-2.7484,-2.7319,-2.7467,-2.7993,-2.8446,-2.8907,-2.9419,-3.0681,-3.1545,-3.2053,-3.2711,-3.3023,-3.3042,-3.3563,-3.38,-3.3843,-3.4549,-3.5059,-3.5331,-3.4962,-3.5059,-3.5368,-3.5338,-3.5325,-3.53,-3.5239,-3.5204,-3.5146,-3.4776,-3.4893,-3.5139,-3.473,-3.4851,-3.5111,-3.5082,-3.5069,-3.4972,-3.458,-3.4063,-3.3795,-3.4295,-3.4423,-3.4276,-3.3776,-3.3256,-3.2949,-3.3122,-3.2852,-3.2295,-3.1327,-3.1154,-3.0981,-3.0481,-3.0404,-3.0404,-3.0404,-2.9788,-2.9102,-2.8472,-2.7675,-2.6713,-2.5526,-2.5336,-2.5216,-2.5055,-2.474,-2.4644,-2.4865,-2.456,-2.4321,-2.4199,-2.419,-2.419,-2.419,-2.419,-2.419,-2.419,-2.419,-2.419,0.0,0.0,0.0,0.0,-1.9638,0.0,-2.0072,-1.9384,-1.8916,-1.9367,-1.9601,-1.9697,-1.9565,-2.101,-2.1972,-2.1134,-2.1667,-2.2826,-2.4735,-2.4375,-2.4207,-2.4942,-2.5019,-2.5019,-2.5019,-2.5115,-2.5173,-2.5173,-2.525,-2.5308,-2.5308,-2.6084,-2.6548,-2.6544,-2.7248,-2.7648,-2.7702,-2.7745,-2.7761,-2.7775,-2.9365,-3.0115,-3.0173,-3.1756,-3.2487,-3.2499,-3.2801,-3.2934,-3.2943,-3.3009,-3.356,-3.4276,-3.3501,-3.3676,-3.4351,-3.4341,-3.4338,-3.4335,-3.4325,-3.4321,-3.4185,-3.3414,-3.3683,-3.4171,-3.3339,-3.3587,-3.4132,-3.4071,-3.3994,-3.3763,-3.3083,-3.2833,-3.2795,-3.2872,-3.2891,-3.2872,-3.2795,-3.2776,-3.2526,-3.1718,-3.1,-3.0519,-3.0423,-3.0404,-3.0404,-3.0404,-3.0404,-3.0365,-3.0269,-2.8937,-2.8201,-2.8739,-2.7217,-2.6074,-2.5846,-2.5668,-2.5477,-2.5284,-2.4603,-2.453,-2.5246,-2.4585,-2.419,-2.419,-2.419,-2.418,-2.4133,-2.418,-2.419,-2.419,-2.419,-2.419,0.0,0.0,0.0,0.0,-1.9491,0.0,-1.9154,-1.8893,-1.8631,-1.7979,-1.8006,-1.8098,-1.789,-1.8313,-1.8815,-1.9145,-1.9354,-2.0327,-2.2783,-2.2985,-2.2982,-2.3265,-2.3293,-2.3293,-2.3293,-2.3913,-2.4336,-2.4336,-2.4928,-2.5308,-2.5308,-2.5467,-2.5577,-2.5562,-2.5726,-2.5803,-2.5832,-2.6515,-2.6851,-2.6871,-2.789,-2.839,-2.8409,-2.9396,-2.9838,-2.9915,-3.1349,-3.1964,-3.1964,-3.1998,-3.2569,-3.3442,-3.3267,-3.3306,-3.3453,-3.3394,-3.3361,-3.3367,-3.3249,-3.3205,-3.3186,-3.3012,-3.307,-3.318,-3.2991,-3.3056,-3.3165,-3.3154,-3.2699,-3.2295,-3.2776,-3.2429,-3.2102,-3.2756,-3.2891,-3.2718,-3.2064,-3.1929,-3.1679,-3.0827,-3.1077,-3.1212,-3.0519,-3.0404,-3.0404,-3.0404,-3.0404,-3.0154,-2.9429,-2.8931,-2.8167,-2.6969,-2.6367,-2.5699,-2.4847,-2.4771,-2.466,-2.4448,-2.4281,-2.4263,-2.4438,-2.4281,-2.419,-2.419,-2.419,-2.4074,-2.3795,-2.4074,-2.419,-2.419,-2.419,-2.419,0.0,0.0,0.0,-1.8674,0.0,0.0,0.0,-1.8707,-1.7999,-1.7456,-1.7195,-1.6866,-1.625,-1.6975,-1.7592,-1.7425,-1.7776,-1.8522,-1.9874,-2.1152,-2.2009,-2.2145,-2.2547,-2.2797,-2.2797,-2.3201,-2.3624,-2.4072,-2.4471,-2.4889,-2.5288,-2.5308,-2.5308,-2.5308,-2.5308,-2.5308,-2.5308,-2.5731,-2.5942,-2.5962,-2.6832,-2.7255,-2.7274,-2.8126,-2.8723,-2.9146,-3.0025,-3.066,-3.1058,-3.1058,-3.1353,-3.1794,-3.1794,-3.2066,-3.2444,-3.2415,-3.2403,-3.2392,-3.2325,-3.2295,-3.2237,-3.1795,-3.1948,-3.2218,-3.1795,-3.1968,-3.2295,-3.2295,-3.2006,-3.1698,-3.166,-3.1346,-3.1154,-3.1558,-3.1654,-3.1538,-3.1135,-3.1058,-3.088,-3.0318,-3.0657,-3.0904,-3.0481,-3.0404,-3.0355,-3.0215,-2.9933,-2.9511,-2.8872,-2.807,-2.735,-2.6842,-2.6219,-2.5648,-2.5134,-2.5022,-2.4737,-2.4236,-2.419,-2.419,-2.419,-2.419,-2.4113,-2.3947,-2.4103,-2.3947,-2.3448,-2.3795,-2.3858,-2.3703,-2.3703,-2.3795,0.0,0.0,0.0,0.0,0.0,-1.917,0.0,0.0,0.0,-1.7176,-1.6706,0.0,0.0,0.0,0.0,0.0,0.0,0.0,0.0,-1.9069,0.0,-2.0773,-2.1416,-2.1897,-2.2055,-2.2355,-2.2913,-2.3783,-2.386,-2.4202,-2.5019,-2.5077,-2.5135,-2.5308,-2.5308,-2.5308,-2.5308,-2.5308,-2.5308,-2.5308,-2.6,-2.6351,-2.639,-2.7255,-2.8011,-2.8646,-2.8953,-2.9506,-3.0154,-3.0327,-3.0404,-3.0404,-3.0404,-3.0827,-3.1448,-3.1448,-3.1448,-3.1448,-3.1448,-3.1448,-3.1327,-3.0635,-3.0885,-3.1308,-3.0615,-3.0885,-3.1448,-3.1448,-3.1448,-3.1288,-3.0577,-3.0404,-3.0404,-3.0404,-3.0404,-3.034,-3.0143,-3.0208,-3.019,-2.9782,-3.0001,-3.028,-3.0311,-3.0317,-3.0254,-3.0028,-2.955,-2.8976,-2.8334,-2.7176,-2.6489,-2.6733,-2.5942,-2.5411,-2.5409,-2.5254,-2.4897,-2.4245,-2.419,-2.419,-2.419,-2.4141,-2.3986,-2.3703,-2.3907,-2.3703,-2.3105,-2.338,-2.3403,-2.32,-2.32,-2.3346,0.0,0.0,0.0,0.0,-2.0292,0.0,-1.98,0.0,-1.8071,-1.6611,0.0,-1.5963,0.0,0.0,0.0,0.0,0.0,0.0,-1.5467,-1.6808,-1.7943,-1.8182,-1.831,-1.8644,-1.9367,-2.0789,-2.2004,-2.2874,-2.2951,-2.3317,-2.4182,-2.424,-2.4567,-2.5288,-2.5308,-2.5308,-2.5308,-2.5308,-2.5308,-2.5308,-2.5404,-2.5442,-2.5481,-2.6346,-2.6794,-2.6967,-2.8453,-2.9165,-2.9319,-3.0077,-3.0404,-3.0404,-3.0404,-3.0462,-3.0558,-3.0558,-3.0558,-3.0558,-3.0558,-3.0558,-3.0538,-3.0423,-3.0462,-3.0538,-3.0423,-3.0462,-3.0558,-3.0558,-3.0558,-3.0519,-3.0423,-3.0404,-3.0404,-3.0404,-3.0404,-3.0143,-2.9193,-2.9541,-2.9775,-2.8858,-2.9271,-2.984,-3.0006,-3.0054,-3.0047,-3.0006,-2.9793,-2.9085,-2.7533,-2.7046,-2.6316,-2.4964,-2.4552,-2.4366,-2.4376,-2.4337,-2.43,-2.4208,-2.419,-2.419,-2.419,-2.3917,-2.3735,-2.3703,-2.3455,-2.3129,-2.2759,-2.2797,-2.2947,-2.32,-2.32,-2.3212,0.0,0.0,0.0,0.0,0.0,0.0,-1.9843,0.0,-1.8224,0.0,0.0,0.0,0.0,0.0,0.0,0.0,-1.5232,0.0,0.0,0.0,-1.6284,0.0,0.0,0.0,-1.8819,-1.9177,-1.9888,-2.1135,-2.1312,-2.1922,-2.3279,-2.3835,-2.4471,-2.5269,-2.5308,-2.5308,-2.5308,-2.5308,-2.5308,-2.5308,-2.5308,-2.5308,-2.5308,-2.5673,-2.6409,-2.7371,-2.7563,-2.8203,-2.9088,-2.8986,-2.9217,-2.964,-2.964,-2.9948,-3.0404,-3.0404,-3.0404,-3.0404,-3.0404,-3.0404,-3.0404,-3.0404,-3.0058,-2.9737,-3.025,-3.0404,-3.0404,-3.0404,-3.0404,-3.0288,-2.9775,-3.0019,-3.0246,-2.9615,-2.9838,-2.9886,-2.8852,-2.9257,-2.9525,-2.8462,-2.9042,-2.9687,-2.9652,-2.9756,-2.9618,-2.899,-2.8519,-2.7915,-2.6963,-2.606,-2.5196,-2.4404,-2.4256,-2.419,-2.419,-2.419,-2.419,-2.419,-2.4016,-2.3816,-2.3639,-2.3471,-2.3323,-2.3129,-2.3177,-2.2952,-2.2463,-2.2621,-2.2686,-2.2673,-2.2673,-2.2755,-2.1903,0.0,0.0,0.0,0.0,0.0,0.0,0.0,0.0,0.0,0.0,0.0,0.0,0.0,0.0,0.0,0.0,-1.4988,0.0,-1.5044,0.0,0.0,0.0,0.0,0.0,-1.7956,-1.8259,-1.9381,-1.9552,-2.0452,-2.2377,-2.3062,-2.398,-2.5269,-2.5308,-2.5308,-2.5308,-2.5308,-2.5308,-2.5308,-2.5308,-2.5308,-2.5308,-2.5308,-2.5981,-2.7178,-2.6774,-2.7428,-2.8742,-2.8376,-2.8703,-2.9467,-2.9467,-2.9833,-3.0404,-3.0404,-3.0404,-3.0365,-3.0135,-3.0038,-3.0038,-3.0038,-2.9775,-2.9563,-3.0212,-3.0404,-3.0346,-3.0115,-3.0038,-2.991,-2.9261,-2.9535,-2.9832,-2.926,-2.936,-2.9315,-2.829,-2.8693,-2.8951,-2.7902,-2.866,-2.9391,-2.9015,-2.9129,-2.8998,-2.8231,-2.7502,-2.686,-2.6334,-2.5383,-2.4616,-2.4227,-2.419,-2.4161,-2.4074,-2.4151,-2.4161,-2.4074,-2.3753,-2.3448,-2.32,-2.3105,-2.296,-2.2708,-2.2865,-2.2751,-2.2296,-2.2487,-2.2487,-2.2296,-2.2296,-2.2398,0.0,0.0,0.0,-2.2949,0.0,0.0,0.0,0.0,-1.9182,0.0,0.0,0.0,0.0,0.0,0.0,0.0,0.0,0.0,0.0,0.0,0.0,0.0,0.0,0.0,0.0,-1.7318,-1.7826,-1.7871,-1.7882,-1.8972,-2.1498,-2.166,-2.2797,-2.5212,-2.5308,-2.5308,-2.5308,-2.5308,-2.5308,-2.5308,-2.5308,-2.5308,-2.5308,-2.5308,-2.5327,-2.5423,-2.625,-2.7101,-2.8011,-2.8742,-2.9563,-3.0365,-3.0365,-3.0385,-3.0404,-3.0404,-3.0404,-3.0288,-2.9429,-2.9146,-2.9146,-2.9146,-2.9698,-3.0365,-3.0385,-3.0404,-3.0212,-2.9371,-2.9146,-2.9146,-2.9107,-2.8989,-2.9041,-2.9777,-2.9232,-2.8244,-2.7176,-2.7578,-2.7855,-2.6851,-2.7926,-2.8771,-2.7993,-2.8015,-2.8137,-2.8109,-2.7261,-2.634,-2.554,-2.5403,-2.5072,-2.4281,-2.419,-2.4074,-2.3735,-2.4006,-2.4064,-2.3753,-2.3403,-2.32,-2.32,-2.2898,-2.2708,-2.2708,-2.2467,-2.2324,-2.2296,-2.231,-2.231,-2.2296,-2.2296,-2.231,0.0,0.0,-2.3435,-2.3199,0.0,0.0,0.0,0.0,0.0,0.0,0.0,0.0,0.0,0.0,0.0,0.0,0.0,0.0,0.0,0.0,0.0,0.0,0.0,0.0,0.0,0.0,-1.6337,-1.6763,-1.6927,-1.7879,-1.9841,-2.0999,-2.2493,-2.4432,-2.5019,-2.5308,-2.5308,-2.5308,-2.5308,-2.5308,-2.5308,-2.5308,-2.5308,-2.5308,-2.5615,-2.6173,-2.6467,-2.7082,-2.7915,-2.8184,-2.88,-2.9544,-2.9544,-2.9787,-3.015,-3.0323,-3.0404,-3.0257,-2.9251,-2.8179,-2.7344,-2.7924,-2.7924,-2.7821,-2.8535,-2.9121,-2.9371,-2.8549,-2.8597,-2.8658,-2.7522,-2.7533,-2.7703,-2.7253,-2.73,-2.7157,-2.6134,-2.6952,-2.764,-2.677,-2.7475,-2.8117,-2.7842,-2.6964,-2.649,-2.7034,-2.6373,-2.5705,-2.5429,-2.4934,-2.4511,-2.4226,-2.4006,-2.3816,-2.3703,-2.3599,-2.3392,-2.3057,-2.2935,-2.2789,-2.2611,-2.2508,-2.244,-2.244,-2.2349,-2.2296,-2.2296,-2.2296,-2.2296,-2.2296,-2.2296,-2.2296,-2.418,-2.4199,0.0,-2.3621,-2.3594,0.0,-2.245,0.0,-2.1853,0.0,0.0,0.0,0.0,0.0,0.0,0.0,0.0,0.0,0.0,-1.4917,0.0,0.0,0.0,0.0,0.0,-1.551,-1.548,-1.5909,-1.6058,-1.7009,-1.8997,-2.0125,-2.1756,-2.4033,-2.4601,-2.5,-2.5308,-2.5308,-2.5308,-2.5308,-2.5308,-2.5308,-2.5308,-2.5308,-2.5615,-2.6154,-2.6467,-2.7082,-2.7915,-2.8203,-2.8813,-2.9519,-2.9152,-2.9417,-3.0028,-3.0305,-2.999,-2.9263,-2.8268,-2.7336,-2.6659,-2.6946,-2.7094,-2.7256,-2.7673,-2.8169,-2.8456,-2.7908,-2.7784,-2.7618,-2.6837,-2.6681,-2.6622,-2.6226,-2.6238,-2.618,-2.5543,-2.6201,-2.6788,-2.6264,-2.6814,-2.7365,-2.7365,-2.6274,-2.5576,-2.6098,-2.5485,-2.497,-2.497,-2.453,-2.419,-2.419,-2.3896,-2.366,-2.3533,-2.3141,-2.2832,-2.2708,-2.2612,-2.2473,-2.231,-2.2296,-2.2415,-2.2699,-2.2431,-2.2431,-2.2699,-2.2431,-2.2296,-2.2296,-2.2296,-2.2296]},{"header":{"parameterUnit":"m.s-1","parameterCategory":1,"la1":30.6,"la2":29.2853,"lo1":-89.7004,"lo2":-87.6739,"dy":0.0162,"dx":0.0183,"nx":112,"ny":82,"refTime":"2023-11-07T06:00:00:Z","depth":0,"parameterNumber":3,"parameterNumberName":"V-component_of_WINDS"},"data":[0.0,0.0,0.0,0.0,0.0,0.0,0.0,0.0,0.0,0.0,0.0,0.0,0.0,0.0,0.0,0.0,0.0,0.0,0.0,0.0,0.0,0.0,0.0,0.0,0.0,0.0,0.0,0.0,0.0,0.0,0.0,0.0,0.0,0.0,0.0,0.0,0.0,0.0,0.0,0.0,0.0,0.0,0.0,0.0,0.0,0.0,0.0,0.0,0.0,0.0,0.0,0.0,0.0,0.0,0.0,0.0,0.0,0.0,0.0,0.0,0.0,0.0,0.0,0.0,0.0,0.0,0.0,0.0,0.0,0.0,0.0,0.0,0.0,0.0,0.0,0.0,0.0,0.0,0.0,0.0,0.0,0.0,0.0,0.0,0.0,0.0,0.0,0.0,0.0,0.0,-0.2294,-0.1867,-0.1401,-0.0798,-0.0053,0.0076,-0.0048,-0.0421,0.0,0.0,0.0,0.0,0.0,0.0,0.0,0.0,0.0,0.0,0.0,0.0,0.0,0.0,0.0,0.0,0.0,0.0,0.0,0.0,0.0,0.0,0.0,0.0,0.0,0.0,0.0,0.0,0.0,0.0,0.0,0.0,0.0,0.0,0.0,0.0,0.0,0.0,0.0,0.0,0.0,0.0,0.0,0.0,0.0,0.0,0.0,0.0,0.0,0.0,0.0,0.0,0.0,0.0,0.0,0.0,0.0,0.0,0.0,0.0,0.0,0.0,0.0,0.0,0.0,0.0,0.0,0.0,0.0,0.0,0.0,0.0,0.0,0.0,0.0,0.0,0.0,0.0,0.0,0.0,0.0,0.0,0.0,0.0,0.0,0.0,0.0,0.0,0.0,0.0,0.0,0.0,0.0,0.0,0.0,0.0,0.0,0.0,0.0,0.0,0.0,0.0,0.0,0.0,-0.2541,-0.2026,-0.146,-0.0791,-0.0051,0.0358,0.0374,-0.0121,0.0,0.0,0.0,0.0,0.0,0.0,0.0,0.0,0.0,0.0,0.0,0.0,0.0,0.0,0.0,0.0,0.0,0.0,0.0,0.0,0.0,0.0,0.0,0.0,0.0,0.0,0.0,0.0,0.0,0.0,0.0,0.0,0.0,0.0,0.0,0.0,0.0,0.0,0.0,0.0,0.0,0.0,0.0,0.0,0.0,0.0,0.0,0.0,0.0,0.0,0.0,0.0,0.0,0.0,0.0,0.0,0.0,0.0,0.0,0.0,0.0,0.0,0.0,0.0,0.0,0.0,0.0,0.0,0.0,0.0,0.0,0.0,0.0,0.0,0.0,0.0,0.0,0.0,0.0,0.0,0.0,0.0,0.0,0.0,0.0,0.0,0.0,0.0,0.0,0.0,0.0,0.0,0.0,0.0,0.0,0.0,0.0,0.0,0.0,0.0,0.0,0.0,0.0,-0.2028,-0.1914,-0.1887,-0.1066,-0.0376,-0.0026,0.0206,0.0147,-0.0296,-0.0233,0.0,0.0,0.0,0.0,0.0,0.0,0.0,0.0,0.0,0.0,0.0,0.0,0.0,0.0,0.0,0.0,0.0,0.0,0.0,0.0,0.0,0.0,0.0,0.0,0.0,0.0,0.0,0.0,0.0,0.0,0.0,0.0,0.0,0.0,0.0,0.0,0.0,0.0,0.0,0.0,0.0,0.0,0.0,0.0,0.0,0.0,0.0,0.0,0.0,0.0,0.0,0.0,0.0,0.0,0.0,0.0,0.0,0.0,0.0,0.0,0.0,0.0,0.0,0.0,0.0,0.0,0.0,0.0,0.0,0.0,0.0,0.0,0.0,0.0,0.0,0.0,0.0,0.0,0.0,0.0,0.0,0.0,0.0,0.0,0.0,0.0,0.0,0.0,0.0,0.0,0.0,0.0,0.0,0.0,0.0,0.0,0.0,0.0,0.0,0.0,0.0,0.0,-0.1814,-0.1386,-0.1796,-0.0728,0.0,0.0,0.0,-0.0122,-0.0385,-0.0219,0.0,0.0,0.0,0.0,0.0,0.0,0.0,0.0,0.0,0.0,0.0,0.0,0.0,0.0,0.0,0.0,0.0,0.0,0.0,0.0,0.0,0.0,0.0,0.0,0.0,0.0,0.0,0.0,0.0,0.0,0.0,0.0,0.0,0.0,0.0,0.0,0.0,0.0,0.0,0.0,0.0,0.0,0.0,0.0,0.0,0.0,0.0,0.0,0.0,0.0,0.0,0.0,0.0,0.0,0.0,0.0,0.0,0.0,0.0,0.0,0.0,0.0,0.0,0.0,0.0,0.0,0.0,0.0,0.0,0.0,0.0,0.0,0.0,0.0,0.0,0.0,0.0,0.0,0.0,0.0,0.0,0.0,0.0,0.0,0.0,0.0,0.0,0.0,0.0,0.0,0.0,0.0,0.0,0.0,0.0,0.0,0.0,0.0,0.0,0.0,0.0,0.0,-0.1915,-0.1478,-0.1947,-0.0806,0.0,0.0,0.0,-0.0041,-0.013,-0.011,0.0,0.0,0.0,0.0,0.0,0.0,0.0,0.0,0.0,0.0,0.0,0.0,0.0,0.0,0.0,0.0,0.0,0.0,0.0,0.0,0.0,0.0,0.0,0.0,0.0,0.0,0.0,0.0,0.0,0.0,0.0,0.0,0.0,0.0,0.0,0.0,0.0,0.0,0.0,0.0,0.0,0.0,0.0,0.0,0.0,0.0,0.0,0.0,0.0,0.0,0.0,0.0,0.0,0.0,0.0,0.0,0.0,0.0,0.0,0.0,0.0,0.0,0.0,0.0,0.0,0.0,0.0,0.0,0.0,0.0,0.0,0.0,0.0,0.0,0.0,0.0,0.0,0.0,0.0,0.0,0.0,0.0,0.0,0.0,0.0,0.0,0.0,0.0,0.0,0.0,0.0,0.0,0.0,0.0,0.0,0.0,0.0,0.0,0.0,0.0,0.0,0.0,-0.1669,-0.1342,-0.1308,-0.0518,0.0,0.0,0.0,-0.007,-0.0208,0.0,0.0,0.0,0.0,0.0,0.0,0.0,0.0,0.0,0.0,0.0,0.0,0.0,0.0,0.0,0.0,0.0,0.0,0.0,0.0,0.0,0.0,0.0,0.0,0.0,0.0,0.0,0.0,0.0,0.0,0.0,0.0,0.0,0.0,0.0,0.0,0.0,0.0,0.0,0.0,0.0,0.0,0.0,0.0,0.0,0.0,0.0,0.0,0.0,0.0,0.0,0.0,0.0,0.0,0.0,0.0,0.0,0.0,0.0,0.0,0.0,0.0,0.0,0.0,0.0,0.0,0.0,0.0,0.0,0.0,0.0,0.0,0.0,0.0,0.0,0.0,0.0,0.0,0.0,0.0,0.0,0.0,0.0,0.0,0.0,0.0,0.0,0.0,0.0,0.0,0.0,0.0,0.0,0.0,0.0,0.0,0.0,0.0,0.0,0.0,0.0,0.0,-0.2038,-0.1637,-0.1312,-0.1188,-0.0467,0.0,0.0,0.0,-0.0063,-0.0191,0.0,0.0,0.0,0.0,0.0,0.0,0.0,0.0,0.0,0.0,0.0,0.0,0.0,0.0,0.0,0.0,0.0,0.0,0.0,0.0,0.0,0.0,0.0,0.0,0.0,0.0,0.0,0.0,0.0,0.0,0.0,0.0,0.0,0.0,0.0,0.0,0.0,0.0,0.0,0.0,0.0,0.0,0.0,0.0,0.0,0.0,0.0,0.0,0.0,0.0,0.0,0.0,0.0,0.0,0.0,0.0,0.0,0.0,0.0,0.0,0.0,0.0,0.0,0.0,0.0,0.0,0.0,0.0,0.0,0.0,0.0,0.0,0.0,0.0,0.0,0.0,0.0,0.0,0.0,0.0,0.0,0.0,0.0,0.0,0.0,0.0,0.0,0.0,0.0,0.0,0.0,0.0,0.0,0.0,0.0,0.0,0.0,0.0,0.0,0.0,0.0,0.0,-0.2649,-0.1875,-0.1429,-0.1755,-0.0716,0.0,0.0,0.0,0.0,0.0,0.0,0.0,0.0,0.0,0.0,0.0,0.0,0.0,0.0,0.0,0.0,0.0,0.0,0.0,0.0,0.0,0.0,0.0,0.0,0.0,0.0,0.0,0.0,0.0,0.0,0.0,0.0,0.0,0.0,0.0,0.0,0.0,0.0,0.0,0.0,0.0,0.0,0.0,0.0,0.0,0.0,0.0,0.0,0.0,0.0,0.0,0.0,0.0,0.0,0.0,0.0,0.0,0.0,0.0,0.0,0.0,0.0,0.0,0.0,0.0,0.0,0.0,0.0,0.0,0.0,0.0,0.0,0.0,0.0,0.0,0.0,0.0,0.0,0.0,0.0,0.0,0.0,0.0,0.0,0.0,0.0,0.0,0.0,0.0,0.0,0.0,0.0,0.0,0.0,0.0,0.0,0.0,0.0,0.0,0.0,0.0,0.0,0.0,0.0,0.0,0.0,0.0,-0.207,-0.161,-0.1259,-0.1179,-0.0458,0.0,0.0,0.0,-0.0179,-0.0615,0.0,0.0,0.0,0.0,0.0,0.0,0.0,0.0,0.0,0.0,0.0,0.0,0.0,0.0,0.0,0.0,0.0,0.0,0.0,0.0,0.0,0.0,0.0,0.0,0.0,0.0,0.0,0.0,0.0,0.0,0.0,0.0,0.0,0.0,0.0,0.0,0.0,0.0,0.0,0.0,0.0,0.0,0.0,0.0,0.0,0.0,0.0,0.0,0.0,0.0,0.0,0.0,0.0,0.0,0.0,0.0,0.0,0.0,0.0,0.0,0.0,0.0,0.0,0.0,0.0,0.0,0.0,0.0,0.0,0.0,0.0,0.0,0.0,0.0,0.0,0.0,0.0,0.0,0.0,0.0,0.0,0.0,0.0,0.0,0.0,0.0,0.0,0.0,0.0,0.0,0.0,0.0,0.0,0.0,0.0,0.0,0.0,0.0,0.0,0.0,0.0,0.0,-0.2243,-0.1685,-0.1296,-0.1266,-0.0509,0.0,0.0,0.0,-0.0154,-0.0523,0.0,0.0,0.0,0.0,0.0,0.0,0.0,0.0,0.0,0.0,0.0,0.0,0.0,0.0,0.0,0.0,0.0,0.0,0.0,0.0,0.0,0.0,0.0,0.0,0.0,0.0,0.0,0.0,0.0,0.0,0.0,0.0,0.0,0.0,0.0,0.0,0.0,0.0,0.0,0.0,0.0,0.0,0.0,0.0,0.0,0.0,0.0,0.0,0.0,0.0,0.0,0.0,0.0,0.0,0.0,0.0,0.0,0.0,0.0,0.0,0.0,0.0,0.0,0.0,0.0,0.0,0.0,0.0,0.0,0.0,0.0,0.0,0.0,0.0,0.0,0.0,0.0,0.0,0.0,0.0,0.0,0.0,0.0,0.0,0.0,0.0,0.0,0.0,0.0,0.0,0.0,0.0,0.0,0.0,0.0,0.0,0.0,0.0,0.0,0.0,0.0,0.0,-0.2748,-0.1917,-0.1398,-0.168,-0.0683,0.0,0.0,0.0,-0.0013,-0.0059,0.0,0.0,0.0,0.0,0.0,0.0,0.0,0.0,0.0,0.0,0.0,0.0,0.0,0.0,0.0,0.0,0.0,0.0,0.0,0.0,0.0,0.0,0.0,0.0,0.0,0.0,0.0,0.0,0.0,0.0,0.0,0.0,0.0,0.0,0.0,0.0,0.0,0.0,0.0,0.0,0.0,0.0,0.0,0.0,0.0,0.0,0.0,0.0,0.0,0.0,0.0,0.0,0.0,0.0,0.0,0.0,0.0,0.0,0.0,0.0,-0.0618,-0.0873,0.0,0.0,0.0,0.0,0.0,0.0,0.0,0.0,0.0,0.0,0.0,0.0,0.0,0.0,0.0,0.0,0.0,0.0,0.0,0.0,0.0,0.0,0.0,0.0,0.0,0.0,0.0,0.0,0.0,0.0,0.0,0.0,0.0,0.0,0.0,0.0,0.0,0.0,0.0,0.0,-0.1971,-0.1564,-0.1257,-0.1107,-0.0435,0.0,0.0,0.0,-0.0156,-0.0521,-0.0271,0.0,0.0,0.0,0.0,0.0,0.0,0.0,0.0,0.0,0.0,0.0,0.0,0.0,0.0,0.0,0.0,0.0,0.0,0.0,0.0,0.0,0.0,0.0,0.0,0.0,0.0,0.0,0.0,0.0,0.0,0.0,0.0,0.0,0.0,0.0,0.0,0.0,0.0,0.0,0.0,0.0,0.0,0.0,0.0,0.0,0.0,0.0,0.0,0.0,0.0,0.0,0.0,0.0,0.0,0.0,0.0,0.0,0.0,0.0,-0.0887,-0.1013,0.0,0.0,0.0,0.0,0.0,0.0,0.0,0.0,0.0,0.0,0.0,0.0,0.0,0.0,0.0,0.0,0.0,0.0,0.0,0.0,0.0,0.0,0.0,0.0,0.0,0.0,0.0,0.0,0.0,0.0,0.0,0.0,0.0,0.0,0.0,0.0,0.0,0.0,0.0,0.0,-0.1585,-0.1227,-0.0985,-0.0904,-0.0368,0.0,0.0,0.0,-0.0103,-0.0354,-0.0279,0.0,0.0,0.0,0.0,0.0,0.0,0.0,0.0,0.0,0.0,0.0,0.0,0.0,0.0,0.0,0.0,0.0,0.0,0.0,0.0,0.0,0.0,0.0,0.0,0.0,0.0,0.0,0.0,0.0,0.0,0.0,0.0,0.0,0.0,0.0,0.0,0.0,0.0,0.0,0.0,0.0,0.0,0.0,0.0,0.0,0.0,0.0,0.0,0.0,0.0,0.0,0.0,0.0,-0.0348,-0.0434,-0.0676,-0.0759,-0.0656,-0.0359,-0.1073,-0.1073,-0.0656,-0.1365,0.0,0.0,0.0,0.0,0.0,0.0,0.0,0.0,0.0,0.0,0.0,0.0,0.0,0.0,0.0,0.0,0.0,0.0,0.0,0.0,0.0,0.0,-0.3245,-0.2998,-0.2953,-0.2787,-0.2211,0.0,0.0,0.0,0.0,0.0,0.0,0.0,0.0,0.0,0.0,0.0,-0.124,-0.0914,-0.0705,-0.0739,-0.0304,0.0,0.0,0.0,0.0,0.0,-0.0265,-0.029,0.0,0.0,0.0,0.0,0.0,0.0,0.0,0.0,0.0,0.0,0.0,0.0,0.0,0.0,0.0,0.0,0.0,0.0,0.0,0.0,0.0,0.0,0.0,0.0,0.0,0.0,0.0,0.0,0.0,0.0,0.0,0.0,-0.0077,-0.0675,0.0,0.0,0.0,0.0,0.0,0.0,0.0,0.0,0.0,0.0,0.0,0.0,0.0,0.0147,0.0274,0.0,-0.0084,-0.0041,-0.0044,-0.0088,-0.0125,-0.0128,-0.0084,-0.008,-0.0633,0.0,-0.0286,-0.0567,0.0,0.0,0.0,0.0,0.0,0.0,0.0,0.0,0.0,0.0,0.0,0.0,0.0,0.0,0.0,0.0,0.0,0.0,0.0,0.0,0.0,0.0,-0.3455,-0.409,-0.4121,-0.3779,-0.2952,-0.2366,-0.2065,-0.2337,-0.2081,-0.1753,0.0,0.0,0.0,0.0,0.0,0.0,-0.0508,-0.0587,-0.055,-0.0155,-0.0041,0.0,0.0,0.0,0.0,0.0,-0.0044,-0.0045,0.0,-0.0448,0.0,0.0,0.0,0.0,0.0,0.0,0.0,0.0,0.0,0.0,0.0,0.0,0.0,0.0,0.0,0.0,0.0,0.0,0.0,0.0,0.0,0.0,0.0,0.0,0.0,0.0,0.0,0.0,0.0,-0.0312,-0.0625,-0.0833,-0.0268,0.0185,0.0,0.0,0.0,0.0,0.0,0.0,0.0,0.0,0.0,0.0458,0.004,-0.0082,0.0085,-0.0044,-0.0045,0.0,0.0,0.0,0.0,0.0,0.0,0.0,-0.0258,-0.0245,-0.011,-0.0516,-0.0758,-0.0928,0.0,0.0,0.0,0.0,-0.2766,-0.3193,-0.3171,-0.2654,-0.2128,-0.2894,0.0,0.0,0.0,0.0,0.0,0.0,0.0,-0.3341,-0.3888,-0.411,-0.4276,-0.463,-0.4289,-0.3749,-0.3389,-0.2626,-0.2038,-0.2066,-0.1704,-0.1422,-0.1481,-0.1331,0.0,0.0,0.0,-0.0566,-0.0191,-0.0228,-0.022,-0.0022,0.0,0.0,0.0,0.0,0.0,0.0,0.0,0.0,0.0,-0.0191,-0.0333,0.0,0.0,0.0,0.0,0.0,0.0,0.0,0.0,0.0,0.0,0.0,0.0,0.0,0.0,0.0,0.0,0.0,0.0,0.0,0.0,0.0,0.0,0.0,0.0,0.0,0.0,0.0,0.0,-0.1029,-0.1363,-0.1315,-0.1156,-0.0837,0.0,0.0,0.0,0.0,0.0,0.0,0.0196,0.0163,0.0168,0.017,-0.0088,-0.0135,0.0,0.0,0.0,0.0,0.0,0.0,0.0,0.0,0.0,0.0,0.0,0.0,-0.0042,-0.0423,-0.0617,-0.0696,-0.0966,-0.1753,-0.2814,-0.3112,-0.3711,-0.434,-0.4336,-0.3722,-0.3081,-0.3995,-0.318,-0.2113,-0.3606,0.0,0.0,0.0,0.0,-0.4247,-0.444,-0.4717,-0.4951,-0.5023,-0.4482,-0.3871,-0.345,-0.2713,-0.2019,-0.1697,-0.1319,-0.109,-0.1212,-0.1162,0.0,-0.0501,-0.0355,-0.0234,-0.0026,0.0,0.0,0.0,0.0,0.0,0.0,0.0,0.0,0.0,0.0,0.0,0.0,0.0,-0.0088,-0.0292,0.0,0.0,0.0,0.0,0.0,0.0,0.0,0.0,0.0,0.0,0.0,0.0,0.0,0.0,0.0,0.0,0.0,0.0,0.0,0.0,0.0,0.0,0.0,0.0,0.0,0.0,0.0,0.0,0.0,-0.2404,-0.3109,0.0,0.0,0.0,0.0,-0.016,-0.0202,-0.0288,-0.0431,-0.0441,-0.0318,0.0,0.0,0.0,0.0,0.0,0.0,0.0,0.0,0.0,0.0,0.0,0.0,0.0,0.0,0.0,0.0,-0.0041,-0.0039,-0.0233,-0.191,-0.2628,-0.2861,-0.3979,-0.4451,-0.4375,-0.3639,-0.3687,-0.401,-0.3368,-0.3503,-0.383,-0.3685,-0.4004,0.0,0.0,-0.4551,-0.458,-0.4955,-0.5076,-0.5127,-0.5337,-0.5187,-0.4595,-0.3062,-0.2591,-0.2206,-0.1314,-0.1007,-0.0834,-0.058,0.0,-0.0183,-0.0456,-0.0233,-0.0026,0.0,0.0,0.0,0.0,0.0,0.0,0.0,0.0,0.0,0.0,0.0,0.0,0.0,0.0,0.0,-0.0018,-0.0645,0.0,0.0,0.0,0.0,0.0,0.0,0.0,0.0,0.0,0.0,0.0,0.0,0.0,0.0,0.0,0.0,0.0,0.0,0.0,0.0,0.0,0.0,0.0,0.0,0.0,0.0,0.0,0.0,-0.3523,-0.3771,0.0,-0.3251,-0.2279,-0.1615,-0.1514,-0.0631,-0.014,-0.0192,-0.0198,-0.0101,0.0,0.0,0.0,0.0,0.0,0.0,0.0,0.0,0.0,0.0,0.0,0.0,0.0,0.0,0.0,0.0,0.0,0.0,-0.0123,-0.1581,-0.2469,-0.3115,-0.4416,-0.5259,-0.5761,-0.544,-0.5035,-0.4465,-0.3434,-0.3926,-0.4791,-0.4177,-0.4508,-0.5085,-0.5139,-0.5115,-0.5109,-0.5269,-0.5281,-0.5324,-0.5382,-0.5243,-0.4648,-0.3045,-0.258,-0.209,-0.0659,-0.0353,-0.0289,-0.0189,-0.0079,-0.0052,-0.0161,-0.008,0.0,0.0,0.0,-0.0155,-0.0546,-0.0584,-0.0573,-0.0569,-0.0584,-0.0408,-0.0019,0.0,-0.0145,-0.0443,-0.0154,-0.0187,-0.0571,-0.0435,-0.0471,0.0,0.0,0.0,0.0,0.0,0.0,0.0,0.0,0.0,0.0,0.0,0.0,0.0,0.0,0.0,0.0,0.0,0.0,0.0,0.0,0.0,0.0,0.0,0.0,0.0,0.0,-0.4267,-0.4608,-0.465,-0.4514,-0.4227,-0.2685,-0.1652,-0.1524,-0.0593,0.0,0.0,0.0,0.0,0.0,0.0,0.0,0.0,0.0,0.0,0.0,0.0,0.0,0.0,0.0,0.0,0.0,0.0,0.0,-0.0047,-0.0472,-0.064,-0.0737,-0.1946,-0.3016,-0.4018,-0.5313,-0.615,-0.6681,-0.6583,-0.6088,-0.5282,-0.4359,-0.478,-0.5507,-0.4903,-0.513,-0.5535,-0.5484,-0.5474,-0.546,-0.5409,-0.5395,-0.5395,-0.5395,-0.5284,-0.4751,-0.3057,-0.264,-0.2047,-0.0336,0.0,-0.0083,-0.0341,-0.0384,-0.0432,-0.0651,-0.0671,-0.0664,-0.0615,-0.0439,-0.0455,-0.0851,-0.0729,-0.0689,-0.088,-0.0863,-0.0673,-0.0321,-0.0403,-0.0467,-0.0468,-0.0391,-0.0487,-0.0835,-0.061,-0.0866,-0.1582,0.0,0.0,0.0,0.0,0.0,0.0,0.0,0.0,0.0,0.0,0.0,0.0,0.0,0.0,0.0,0.0,0.0,0.0,0.0,0.0,0.0,0.0,0.0,-0.3365,-0.5229,-0.6326,-0.5746,-0.5892,-0.5412,-0.3839,-0.2537,-0.1306,-0.016,0.0,0.0,0.0,0.0,0.0,0.0,0.0,0.0,0.0,0.0,0.0,0.0,0.0,0.0,0.0,0.0,0.0,0.0,0.0,0.0,-0.0098,-0.1469,-0.1962,-0.1985,-0.3201,-0.4376,-0.5536,-0.6694,-0.7092,-0.7041,-0.68,-0.66,-0.6463,-0.6132,-0.6003,-0.5979,-0.5861,-0.5817,-0.5786,-0.5644,-0.5603,-0.5569,-0.5446,-0.5405,-0.5402,-0.5402,-0.5399,-0.4924,-0.3111,-0.2718,-0.2184,-0.0387,-0.0031,-0.0236,-0.094,-0.1056,-0.1261,-0.1848,-0.1937,0.0,-0.1769,-0.1232,-0.0886,-0.091,-0.0388,-0.0274,-0.0909,-0.0827,-0.0792,-0.0927,-0.1227,-0.1021,-0.0118,-0.0692,-0.0932,-0.0745,-0.127,-0.2124,-0.3271,0.0,0.0,0.0,0.0,0.0,0.0,0.0,0.0,0.0,0.0,0.0,0.0,0.0,0.0,0.0,0.0,0.0,0.0,0.0,0.0,0.0,0.0,-0.3855,-0.5094,-0.6196,-0.7124,-0.7764,-0.707,-0.6288,-0.5778,-0.3509,-0.1901,-0.1492,-0.0545,0.0,0.0,0.0,0.0,0.0,0.0,0.0,0.0,0.0,0.0,0.0,0.0,0.0,0.0,0.0,0.0,0.0,0.0,0.0,-0.0098,-0.1469,-0.2478,-0.3357,-0.4585,-0.5205,-0.5536,-0.6694,-0.696,-0.681,-0.6729,-0.66,-0.648,-0.6296,-0.6268,-0.6322,-0.6214,-0.6173,-0.6143,-0.5952,-0.5908,-0.5874,-0.5722,-0.5603,-0.5562,-0.5562,-0.5477,-0.509,-0.3882,-0.316,-0.2336,-0.1164,-0.0446,-0.0062,-0.0267,-0.0288,-0.0369,-0.0511,-0.054,0.0,-0.0505,-0.0336,-0.0559,-0.1381,-0.0991,-0.106,-0.2041,-0.1745,-0.1515,-0.1541,-0.1642,-0.1726,-0.181,-0.1667,-0.1558,-0.1503,-0.2254,-0.2673,0.0,0.0,0.0,0.0,0.0,0.0,0.0,0.0,0.0,0.0,0.0,0.0,0.0,0.0,0.0,0.0,0.0,0.0,0.0,0.0,0.0,0.0,-0.2852,-0.3467,-0.5012,-0.6662,-0.7956,-0.8615,-0.7515,-0.6453,-0.5726,-0.3553,-0.1886,-0.1198,-0.0443,0.0,0.0,0.0,0.0,0.0,0.0,0.0,0.0,0.0,0.0,0.0,0.0,0.0,0.0,0.0,0.0,0.0,0.0,0.0,-0.0149,-0.2029,-0.3199,-0.3947,0.0,0.0,0.0,0.0,-0.6987,-0.6875,-0.6817,-0.6695,-0.6546,-0.6436,-0.6405,-0.6409,-0.6323,-0.63,-0.6269,-0.6074,-0.5993,-0.5956,-0.584,-0.5739,-0.5677,-0.5677,-0.5566,-0.5267,-0.4386,-0.34,-0.2441,-0.1601,-0.0655,0.0,0.0,-0.0268,-0.0555,-0.0788,-0.0836,-0.0825,-0.0757,-0.0532,-0.0645,-0.1288,-0.087,-0.0897,-0.1807,-0.179,0.0,0.0,0.0,-0.2467,-0.262,-0.2287,0.0,0.0,0.0,-0.3156,-0.2879,-0.3333,0.0,0.0,-0.3834,-0.3886,0.0,0.0,0.0,0.0,0.0,0.0,0.0,0.0,0.0,0.0,0.0,0.0,0.0,0.0,0.0,0.0,-0.1778,-0.2246,-0.3999,-0.6557,-0.8297,-0.8463,-0.7413,-0.62,-0.4862,-0.3185,-0.1677,-0.0336,-0.0281,-0.0225,0.0,-0.0168,0.0,0.0,0.0,0.0,0.0,0.0,0.0,0.0,0.0,0.0,0.0,0.0,0.0,0.0,0.0,0.0,-0.0202,-0.2914,-0.4129,-0.4401,-0.5534,-0.6537,-0.7329,-0.7146,-0.7085,-0.7055,-0.693,0.0,0.0,-0.6549,-0.6463,-0.6368,-0.6334,-0.6323,-0.6293,-0.6098,-0.602,-0.6023,-0.5888,-0.584,-0.5827,-0.5827,-0.5718,-0.5434,-0.4795,-0.3633,-0.2517,-0.1879,-0.0808,0.0,0.0,-0.0534,-0.1164,-0.1685,-0.1761,-0.1736,-0.1601,-0.112,-0.0815,-0.0874,0.0,0.0,-0.0937,-0.1405,-0.1727,-0.191,-0.2774,-0.3167,-0.2917,-0.2726,-0.2729,-0.2979,-0.3389,-0.355,-0.342,-0.3658,-0.3726,-0.36,-0.3898,-0.3906,0.0,0.0,0.0,0.0,0.0,0.0,0.0,0.0,0.0,0.0,0.0,0.0,0.0,0.0,0.0,-0.1654,-0.1978,-0.2636,-0.4223,-0.4931,-0.578,-0.6945,-0.6856,-0.6589,-0.6311,-0.3798,-0.2068,-0.1789,-0.1926,-0.1419,-0.0056,-0.1304,-0.1411,-0.0055,0.0,0.0,0.0,0.0,0.0,0.0,0.0,0.0,0.0,0.0,0.0,0.0,0.0,0.0,-0.0202,-0.2914,-0.5259,-0.7159,-0.7139,-0.7134,-0.7136,-0.7105,-0.7024,-0.6923,-0.6896,-0.6866,-0.6858,-0.6705,-0.6722,-0.6753,-0.6545,-0.647,0.0,-0.6296,-0.6255,-0.6248,-0.6218,-0.6081,-0.5949,-0.5949,-0.5871,-0.573,-0.5578,-0.4137,-0.2811,-0.2661,-0.1214,0.0,0.0,-0.0125,-0.0238,-0.0356,-0.0376,-0.0367,-0.0364,-0.0252,-0.034,-0.0786,-0.034,-0.0416,-0.1468,-0.1787,-0.2131,-0.2663,-0.3304,-0.3658,-0.3615,-0.3465,-0.3423,-0.3467,-0.3564,-0.3586,-0.3556,-0.3609,-0.3628,-0.3604,-0.3657,-0.3661,0.0,0.0,0.0,0.0,0.0,0.0,0.0,0.0,0.0,0.0,0.0,0.0341,0.0,0.0,-0.0095,-0.0722,-0.0986,-0.1378,-0.2143,-0.2865,-0.4201,-0.6434,-0.6677,-0.6702,-0.6702,-0.5359,-0.4201,-0.3503,-0.2793,-0.2057,-0.1304,-0.1247,-0.0841,0.0,0.0,0.0,0.0,0.0,0.0,0.0,0.0,0.0,0.0,0.0,0.0,0.0,0.0,0.0,-0.0202,-0.2914,-0.5539,-0.7902,-0.7678,-0.7502,-0.7353,-0.7152,-0.7051,-0.6991,-0.6991,-0.6947,-0.6873,-0.6841,-0.6814,-0.6773,-0.6542,-0.6511,-0.648,-0.634,-0.63,-0.63,-0.63,-0.6242,-0.6146,-0.6146,-0.6027,-0.5935,-0.6013,-0.48,-0.3577,-0.3106,-0.18,-0.0625,-0.0102,0.0,0.0,0.0,0.0,0.0,0.0,0.0,-0.0113,-0.0373,-0.017,-0.0224,-0.0812,-0.1545,-0.2249,-0.2871,-0.3462,-0.3826,-0.39,-0.3765,-0.3724,-0.3799,-0.3724,-0.3709,-0.3709,-0.3638,-0.3604,-0.3604,-0.3604,-0.3604,0.0,0.0,0.0,0.0,0.0,0.0,0.0,0.0,0.0668,0.0386,0.0246,0.0215,0.0393,0.0189,0.005,0.0205,0.0107,0.0,0.0,-0.1007,-0.2797,-0.5508,-0.6359,-0.6702,-0.6702,-0.6422,-0.5839,-0.4722,-0.3144,-0.2175,-0.1997,-0.1015,-0.0334,0.0,0.0,0.0,0.0,0.0,0.0,0.0,0.0,0.0,0.0,0.0,0.0,0.0,0.0,-0.0303,-0.0958,-0.3115,-0.552,-0.7851,-0.7824,-0.774,-0.7604,-0.7299,-0.7122,-0.7095,-0.7095,-0.7021,-0.6927,-0.6927,-0.6888,-0.6759,-0.6607,-0.6539,-0.6525,-0.6381,-0.634,-0.6334,-0.6306,-0.632,-0.6334,-0.6306,-0.6166,-0.6108,-0.6272,-0.5379,-0.4298,-0.355,-0.2446,-0.1336,-0.0443,-0.0133,0.0,0.0,0.0,0.0,0.0,0.0,0.0,0.0,0.0,-0.0056,-0.0196,-0.1337,-0.2304,-0.2954,-0.3541,-0.3934,-0.4035,-0.3917,-0.3894,-0.3994,-0.387,-0.3792,-0.3792,-0.3699,-0.3628,-0.3604,-0.3631,-0.3628,0.1821,0.1493,0.1104,0.1111,0.0699,0.0243,0.0,0.0,0.0218,0.0094,0.0049,0.005,0.005,0.0,0.0,0.0054,0.0,0.0,0.0,-0.0168,-0.0883,-0.2517,-0.5085,-0.6702,-0.6702,-0.553,-0.4697,-0.4538,-0.3239,-0.1823,-0.0337,-0.1512,-0.1556,-0.0055,0.0,0.0,0.0,0.0,0.0,0.0,0.0,0.0,0.0,0.0,0.0,0.0,0.0,-0.136,-0.3565,-0.3865,-0.5563,-0.7951,-0.7865,-0.7801,-0.775,-0.7455,-0.7258,-0.7095,-0.7095,-0.7085,-0.7071,-0.7071,-0.7061,-0.7021,-0.6879,-0.6783,-0.6644,-0.6532,-0.6491,-0.646,-0.6334,-0.6395,-0.6457,-0.633,-0.6286,-0.6279,-0.6296,-0.5449,-0.4658,-0.4555,-0.2921,-0.1549,-0.1439,-0.0626,0.0,0.0,0.0,0.0,0.0,0.0,0.0,0.0,0.0,-0.0252,-0.0923,-0.1725,-0.252,-0.3309,-0.385,-0.4153,-0.417,-0.4051,-0.3977,-0.3994,-0.387,-0.3792,-0.3792,-0.3775,-0.3726,-0.3607,-0.373,-0.3723,0.1071,0.0407,-0.0128,0.0,-0.0225,-0.0793,-0.0132,0.0046,0.0048,0.0,0.0,0.0,0.0,0.0,0.0,0.0,0.0,0.0,0.0,0.0,-0.0219,-0.0871,-0.2769,-0.479,-0.654,-0.6162,-0.5824,-0.5881,-0.4503,-0.3013,-0.1512,-0.1221,-0.0709,0.0,0.0,0.0,0.0,0.0,0.0,0.0,0.0,0.0,0.0,0.0,0.0,0.0,0.0,-0.1511,-0.4016,-0.4016,-0.557,-0.7975,-0.7872,-0.776,-0.7662,-0.7451,-0.7329,-0.7261,-0.7129,-0.7095,-0.7095,-0.7095,-0.7095,-0.7068,-0.6927,-0.6842,-0.6783,-0.6539,-0.6536,-0.6552,-0.6361,-0.647,-0.6549,-0.6354,-0.6364,-0.6402,-0.6317,-0.5944,-0.5434,-0.4806,-0.3993,-0.3018,-0.1799,-0.1237,-0.073,-0.0102,0.0,0.0,0.0,0.0,0.0,0.0,0.0,-0.0112,-0.042,-0.1535,-0.2343,-0.2676,-0.3648,-0.426,-0.4368,-0.4206,-0.4166,-0.4277,-0.4134,-0.4031,-0.4031,-0.3944,-0.3846,-0.3726,-0.3765,-0.3761,0.0202,-0.0579,-0.1051,-0.0557,-0.1136,-0.1533,-0.0279,0.0,0.0,0.0,0.0,0.0,0.0,0.0,0.0,0.0,0.0,0.0,0.0,0.0,0.0,0.0,-0.0943,-0.2778,-0.5729,-0.6036,-0.6072,-0.6135,-0.4683,-0.321,-0.1903,-0.0662,0.0,0.0,0.0,0.0,0.0,0.0,0.0,0.0,0.0,0.0,0.0,0.0,0.0,0.0,0.0,-0.1511,-0.4016,-0.4016,-0.557,-0.7978,-0.787,-0.7811,-0.7702,-0.755,-0.7414,-0.7292,-0.7136,-0.7095,-0.7095,-0.7095,-0.7095,-0.7078,-0.6974,-0.6916,-0.6839,-0.6661,-0.6678,-0.6705,-0.6487,-0.6573,-0.6698,-0.6484,-0.6501,-0.6535,-0.6388,-0.6358,-0.6116,-0.5316,-0.4909,-0.4227,-0.2726,-0.1977,-0.134,-0.0561,-0.0202,0.0,0.0,0.0,0.0,0.0,0.0,0.0,0.0,-0.1341,-0.2202,-0.2202,-0.3517,-0.4355,-0.4487,-0.4362,-0.4358,-0.4487,-0.4294,-0.4197,-0.4197,-0.4112,-0.3981,-0.3856,-0.3897,-0.3894,-0.0507,-0.0936,-0.1006,-0.1383,-0.1715,-0.163,-0.0291,0.0,0.0,0.0,0.0,0.0,0.0,0.0,0.0,0.0,0.0,0.0,0.0,0.0,0.0,0.0,-0.005,-0.1196,0.0,-0.4255,-0.4278,-0.4302,-0.2894,-0.1487,-0.0168,-0.0055,0.0,0.0,0.0,0.0,0.0,0.0,0.0,0.0,0.0,0.0,0.0,0.0,0.0,0.0,0.0,-0.1511,-0.4016,-0.4016,-0.557,-0.7988,-0.7985,-0.7982,-0.7958,-0.7855,-0.7522,-0.7102,-0.7098,-0.7095,-0.7095,-0.7095,-0.7095,-0.7095,-0.7092,-0.6994,-0.6883,-0.6876,-0.6876,-0.6842,-0.6729,-0.6803,-0.6839,-0.6725,-0.6692,-0.6651,-0.6538,-0.6504,-0.6463,-0.6281,-0.5428,-0.4686,-0.4608,-0.2948,-0.1585,-0.1543,-0.065,0.0,0.0,0.0,0.0,0.0,0.0,0.0,0.0,-0.1341,-0.2202,-0.2202,-0.3647,-0.4484,-0.4491,-0.4487,-0.4487,-0.4491,-0.4294,-0.4197,-0.4197,-0.419,-0.4136,-0.3991,-0.4139,-0.4129,0.0147,-0.0712,-0.1225,-0.0641,-0.1243,-0.1627,-0.0304,0.0,0.0,0.0,-0.0101,-0.0198,-0.0198,-0.0288,-0.0288,-0.0206,-0.0208,-0.0158,0.0,-0.0866,-0.143,-0.1328,-0.1424,0.0,0.0,0.0,0.0,-0.4116,-0.2925,-0.1525,-0.0054,0.0,0.0,0.0,0.0,0.0,0.0,0.0,0.0,0.0,0.0,0.0,0.0,0.0,0.0,0.0,0.0,-0.1008,-0.2765,-0.3615,-0.507,-0.6775,-0.753,-0.7889,-0.7872,-0.7726,-0.7573,-0.7431,-0.7329,-0.7224,-0.7095,-0.7095,-0.7095,-0.7095,-0.7095,-0.7061,-0.7004,-0.6913,-0.6953,-0.6967,-0.6763,-0.6885,-0.6964,-0.6759,-0.6776,-0.6783,-0.6566,-0.6511,-0.647,-0.6327,-0.6022,-0.5535,-0.4832,-0.3546,-0.2113,-0.0755,-0.0237,0.0,0.0,0.0,0.0,0.0,0.0,0.0,0.0,-0.1341,-0.2202,-0.2202,-0.3649,-0.4491,-0.4491,-0.4491,-0.4491,-0.4491,-0.444,-0.4392,-0.4392,-0.4392,-0.4314,-0.4146,-0.417,-0.4167,-0.0082,-0.0927,-0.1442,-0.0845,-0.1368,-0.1633,-0.0311,0.0,0.0,0.0,-0.0048,-0.0137,-0.0226,-0.0393,-0.0483,-0.029,-0.0394,-0.0354,-0.0054,-0.0804,-0.1366,-0.1277,-0.138,-0.1884,0.0,0.0,0.0,-0.3309,-0.2637,-0.1522,-0.0054,0.0,0.0,0.0,0.0,0.0,0.0,0.0,0.0,0.0,0.0,0.0,0.0,0.0,0.0,0.0,0.0,-0.0756,-0.2113,-0.3466,-0.477,-0.6121,-0.7386,-0.7892,-0.7882,-0.779,-0.7723,-0.7645,-0.7441,-0.7343,-0.724,-0.7132,-0.7132,-0.7214,-0.7112,-0.7095,-0.7088,-0.7095,-0.7068,-0.7065,-0.6976,-0.7041,-0.7048,-0.6902,-0.6889,-0.6879,-0.662,-0.6552,-0.6535,-0.6337,-0.63,-0.6064,-0.5392,-0.4054,-0.2508,-0.0825,-0.0237,0.0,0.0,0.0,0.0,0.0,0.0,-0.0112,-0.0364,-0.1507,-0.2313,-0.2565,-0.379,-0.4491,-0.4491,-0.4491,-0.4491,-0.4491,-0.4491,-0.4491,-0.4491,-0.4491,-0.444,-0.4297,-0.4297,-0.4297,-0.1073,-0.1508,-0.156,-0.1833,-0.1891,-0.1552,-0.0311,0.0,0.0,0.0,0.0087,0.0124,0.0,0.0,-0.05,-0.0227,-0.0517,-0.0589,-0.0053,-0.0052,-0.0102,0.0,0.0,0.0,0.0,0.0,0.0,-0.1816,0.0,-0.1365,-0.0055,0.0,0.0,0.0,0.0,0.0,0.0,0.0,0.0,0.0,0.0,0.0,0.0,0.0,0.0,0.0,0.0,-0.0706,-0.2013,-0.3416,-0.477,-0.6029,-0.7434,-0.7988,-0.7988,-0.7988,-0.7897,-0.778,-0.7495,-0.7485,-0.755,-0.7206,-0.7251,-0.7343,-0.7142,-0.7095,-0.7125,-0.7319,-0.7255,-0.7129,-0.7322,-0.7251,-0.7095,-0.7095,-0.7095,-0.7018,-0.6773,-0.6712,-0.6624,-0.6368,-0.6306,-0.6296,-0.6212,-0.4502,-0.2772,-0.1754,-0.0685,0.0,0.0,0.0,0.0,0.0,0.0,-0.0308,-0.1034,-0.1786,-0.2508,-0.3259,-0.4042,-0.4491,-0.4491,-0.4491,-0.4491,-0.4491,-0.4491,-0.4491,-0.4491,-0.4491,-0.4491,-0.4491,-0.4491,-0.4491,-0.0251,-0.0417,-0.0426,-0.0494,-0.0536,-0.0412,-0.01,0.0095,0.0135,0.0128,0.0079,0.0037,0.0,0.0,0.0,-0.0304,-0.0374,0.0,-0.0055,-0.0943,0.0,-0.1513,0.0,-0.176,-0.1955,-0.0803,0.0,0.0,-0.0484,-0.038,0.0,0.0,0.0,0.0,0.0,0.0,0.0,0.0,0.0,0.0,0.0,0.0,0.0,0.0,0.0,0.0,0.0,-0.0202,-0.0706,-0.3015,-0.4216,-0.472,-0.708,-0.7988,-0.7988,-0.7988,-0.7965,-0.7904,-0.7767,-0.7655,-0.7567,-0.7373,-0.7339,-0.7343,-0.7142,-0.7095,-0.7105,-0.7142,-0.7125,-0.7105,-0.7142,-0.7125,-0.7095,-0.7095,-0.7095,-0.7048,-0.6866,-0.6829,-0.678,-0.6518,-0.6371,-0.6028,-0.5263,-0.4004,-0.2772,-0.1754,-0.0685,0.0,0.0,0.0,0.0,0.0,0.0,-0.0308,-0.1034,-0.1786,-0.2508,-0.3259,-0.4042,-0.4491,-0.4491,-0.4491,-0.4491,-0.4491,-0.4491,-0.4491,-0.4491,-0.4491,-0.4491,-0.4491,-0.4491,-0.4491,0.0054,0.0,0.0,0.0,0.0,0.0,0.0097,0.0091,0.0126,0.0194,0.0142,0.0,-0.0064,-0.0329,0.0,0.0,0.0,0.0,-0.0054,-0.0718,-0.1217,0.0,-0.1202,0.0,-0.1132,-0.0435,0.0,0.0,0.0,0.0,0.0,0.0,0.0,0.0,0.0,0.0,0.0,0.0,0.0,0.0,0.0,0.0,0.0,0.0,0.0,0.0,0.0,0.0,-0.0202,-0.2914,-0.4016,-0.4266,-0.693,-0.7988,-0.7988,-0.7988,-0.7988,-0.7968,-0.7865,-0.7756,-0.7655,-0.7441,-0.7415,-0.7343,-0.7142,-0.7095,-0.7109,-0.7221,-0.7149,-0.7112,-0.7224,-0.7146,-0.7095,-0.7095,-0.7048,-0.6964,-0.6861,-0.6827,-0.6759,-0.6559,-0.645,-0.6188,-0.5501,-0.4129,-0.2893,-0.2355,-0.0975,-0.0137,-0.0505,-0.0227,0.0,0.0,-0.0298,-0.0772,-0.1512,-0.2249,-0.301,-0.379,-0.4239,-0.4491,-0.4491,-0.4491,-0.4491,-0.4491,-0.4491,-0.4491,-0.4491,-0.4491,-0.4491,-0.4491,-0.4491,-0.4491,0.0,0.0,0.0,0.0,0.0,0.0051,0.0187,0.0128,0.0078,0.0211,0.0,0.0121,-0.0118,-0.034,-0.0439,-0.0193,0.0,-0.0518,-0.0053,0.0,0.0,0.0,0.0,0.0,0.0,0.0,0.0,0.0,0.0,0.0,0.0,0.0,0.0,0.0,0.0,0.0,0.0,0.0,0.0,0.0,0.0,0.0,0.0,0.0,0.0,0.0,0.0,0.0,-0.0202,-0.2914,-0.3915,-0.4016,-0.688,-0.7889,-0.7736,-0.7939,-0.7988,-0.7971,-0.7885,-0.7828,-0.7763,-0.7465,-0.7433,-0.7373,-0.7217,-0.7125,-0.7156,-0.7333,-0.7258,-0.7125,-0.7305,-0.7241,-0.7095,-0.7095,-0.7004,-0.6876,-0.679,-0.6729,-0.6661,-0.6569,-0.6511,-0.6446,-0.632,-0.4637,-0.3254,-0.3136,-0.1459,-0.0486,-0.1212,-0.0656,-0.0161,-0.0161,-0.0855,-0.156,-0.2156,-0.2902,-0.3669,-0.4463,-0.4491,-0.4491,-0.4491,-0.4491,-0.4491,-0.4491,-0.4491,-0.4491,-0.4491,-0.4491,-0.4491,-0.4491,-0.4491,-0.4491,0.0,0.0,0.0,0.0,0.0,0.0049,0.0179,0.0199,0.0,0.0,0.027,0.0199,0.0142,0.0,-0.0102,-0.004,0.0,0.0,0.0,0.0,0.0,0.0,0.0,0.0,0.0,0.0,0.0,0.0,0.0,0.0,0.0,0.0,0.0,0.0,0.0,0.0,0.0,0.0,0.0,0.0,0.0,0.0,0.0,0.0,0.0,0.0,0.0,0.0,-0.0202,-0.2914,-0.3366,-0.2715,-0.6528,-0.7335,-0.6481,-0.7587,-0.7988,-0.7985,-0.7961,-0.7916,-0.7763,-0.7465,-0.7458,-0.7533,-0.7377,-0.7329,-0.7336,-0.7409,-0.7258,-0.7102,-0.7129,-0.7115,-0.7095,-0.7095,-0.7078,-0.7051,-0.7024,-0.6871,-0.6695,-0.6664,-0.6504,-0.6327,-0.6303,-0.5246,-0.411,-0.3243,-0.2097,-0.1315,-0.1312,-0.1179,-0.1085,-0.1089,-0.1873,-0.2358,-0.2204,-0.3042,-0.382,-0.447,-0.4491,-0.4491,-0.4491,-0.4491,-0.4491,-0.4491,-0.4491,-0.4491,-0.4491,-0.4491,-0.4491,-0.4491,-0.4491,-0.4491,0.0057,0.0058,0.0,0.0,0.0,0.0047,0.017,0.0,0.0,0.0,0.0201,0.0084,0.0084,0.0,0.0,0.0,0.0,0.0,0.0,0.0,0.0,0.0,0.0,0.0,0.0,0.0,0.0,0.0,0.0,0.0,0.0,0.0,0.0,0.0,0.0,0.0,0.0,0.0,0.0,0.0,0.0,0.0,0.0,0.0,0.0,0.0,0.0,0.0,-0.0151,-0.2163,-0.2564,-0.2264,-0.487,-0.5974,-0.6079,-0.6734,-0.7385,-0.7978,-0.7897,-0.7872,-0.7777,-0.756,-0.7539,-0.757,-0.7463,-0.7428,-0.7472,-0.7439,-0.7319,-0.7241,-0.7119,-0.7095,-0.7095,-0.7095,-0.7041,-0.6987,-0.6987,-0.6876,-0.6797,-0.6715,-0.6586,-0.648,-0.6327,-0.5419,-0.4531,-0.401,-0.2602,-0.1902,-0.2717,-0.193,-0.1496,-0.1969,-0.2722,-0.3097,-0.2943,-0.3637,-0.4198,-0.4494,-0.4491,-0.4491,-0.4491,-0.4491,-0.4491,-0.4491,-0.4491,-0.4491,-0.4491,-0.4491,-0.4491,-0.4491,-0.4491,-0.4491,0.0165,0.0057,0.0,0.0,0.0,0.0046,0.0162,0.0108,0.0,0.0,0.0084,0.0,0.0,0.0,-0.0186,0.0,0.0,0.0,0.0,0.0,0.0,0.0,0.0,0.0,0.0,0.0,0.0,0.0,0.0,0.0,0.0,0.0,0.0,0.0,0.0,0.0,0.0,0.0,0.0,0.0,0.0,0.0,0.0,0.0,0.0,0.0,0.0,0.0,-0.0101,-0.1461,-0.2013,-0.2113,-0.3465,-0.462,-0.5625,-0.5879,-0.6681,-0.7621,-0.7805,-0.7862,-0.7834,-0.7692,-0.7645,-0.7624,-0.7502,-0.755,-0.7617,-0.7499,-0.7444,-0.7383,-0.7227,-0.7169,-0.7186,-0.7152,-0.7105,-0.7014,-0.694,-0.6906,-0.6852,-0.6773,-0.6698,-0.6576,-0.6385,-0.5607,-0.4961,-0.4723,-0.3129,-0.2413,-0.3752,-0.2381,-0.1662,-0.2607,-0.3292,-0.3675,-0.3658,-0.4226,-0.4576,-0.4542,-0.4508,-0.4491,-0.4491,-0.4491,-0.4491,-0.4491,-0.4491,-0.4491,-0.4491,-0.4491,-0.4491,-0.4491,-0.4491,-0.4491,0.0117,0.0,0.0,0.0,0.0,0.0044,0.0161,0.0,0.0,0.0171,0.0084,0.0,0.0,-0.0113,-0.0206,0.0,0.0,-0.07,0.0,0.0,0.0,0.0,0.0,0.0,0.0,0.0,0.0,0.0,0.0,0.0,0.0,0.0,0.0,0.0,0.0,0.0,0.0,0.0,0.0,0.0,0.0,0.0,0.0,0.0,0.0,0.0,0.0,0.0,0.0,-0.1461,-0.2013,-0.2113,-0.3465,-0.4066,-0.4316,-0.5575,-0.6079,-0.6379,-0.7571,-0.7968,-0.7944,-0.7841,-0.779,-0.7787,-0.7773,-0.778,-0.7787,-0.7773,-0.7678,-0.7543,-0.739,-0.7455,-0.7522,-0.7383,-0.7385,-0.7292,-0.7105,-0.6977,-0.6883,-0.6869,-0.6681,-0.6525,-0.6497,-0.6306,-0.5816,-0.4838,-0.3695,-0.2989,-0.3014,-0.2019,-0.1674,-0.2608,-0.3448,-0.3903,-0.3796,-0.4433,-0.4816,-0.4677,-0.4566,-0.4491,-0.4491,-0.4491,-0.4491,-0.4491,-0.4491,-0.4491,-0.4491,-0.4491,-0.4491,-0.4491,-0.4491,-0.4491,0.0203,0.0054,0.0,0.0,0.0,0.0,0.008,0.0,0.0029,0.0055,-0.0027,-0.0109,-0.0109,-0.0332,-0.0603,0.0,0.0,0.0,0.0,0.0,0.0,0.0,0.0,0.0,0.0,0.0,0.0,0.0,0.0,0.0,0.0,0.0,0.0,0.0,0.0,0.0,0.0,0.0,0.0,0.0,0.0,0.0,0.0,0.0,0.0,0.0,0.0,0.0,0.0,-0.0555,-0.0807,-0.0857,-0.136,-0.2063,-0.2865,-0.3417,-0.4622,-0.6079,-0.6631,-0.7335,-0.7978,-0.7921,-0.7897,-0.788,-0.7838,-0.7875,-0.788,-0.7838,-0.777,-0.7692,-0.7546,-0.7553,-0.7584,-0.7522,-0.7438,-0.7398,-0.7292,-0.7163,-0.6987,-0.6903,-0.6756,-0.658,-0.6528,-0.6395,-0.5925,-0.4857,-0.3774,-0.3056,-0.2908,-0.1512,-0.1086,-0.2556,-0.3418,-0.3845,-0.382,-0.4002,-0.4276,-0.4672,-0.4107,-0.3984,-0.4494,-0.4491,-0.4491,-0.4491,-0.4491,-0.4491,-0.4491,-0.4491,-0.4491,-0.4491,-0.4491,-0.4491,0.0276,0.005,0.0,0.0,0.0,0.0,0.0,0.0,0.0,0.0054,-0.008,-0.0187,-0.0189,-0.0469,-0.0876,0.0,0.0,-0.1886,0.0,0.0,0.0,0.0,0.0,-0.0358,0.0,-0.011,0.0,0.0,0.0,0.0,0.0,0.0,0.0,0.0,0.0,0.0,0.0,0.0,0.0,0.0,0.0,0.0,0.0,0.0,0.0,0.0,0.0,0.0,0.0,0.0,-0.0252,-0.0605,-0.0605,-0.1159,-0.2113,-0.2916,-0.4119,-0.5525,-0.6329,-0.7235,-0.7988,-0.7988,-0.7988,-0.7971,-0.7913,-0.7904,-0.7968,-0.7909,-0.7845,-0.7797,-0.7743,-0.7695,-0.7662,-0.7662,-0.758,-0.7478,-0.7436,-0.7285,-0.7122,-0.6974,-0.6871,-0.6719,-0.6566,-0.6179,-0.5596,-0.481,-0.3515,-0.2603,-0.2523,-0.1025,-0.0485,-0.1758,-0.2585,-0.3177,-0.3443,-0.3355,-0.3595,-0.4319,-0.3709,-0.3694,-0.4467,-0.4491,-0.4491,-0.4491,-0.4491,-0.4491,-0.4491,-0.4491,-0.4491,-0.4491,-0.4491,-0.4491,0.0187,0.0,0.0,0.0,0.0,0.004,0.0,0.0,0.0028,0.0161,-0.0027,-0.0188,-0.0195,-0.0477,-0.0897,-0.1511,0.0,0.0,0.0,0.0,0.0,0.0,0.0,-0.1139,-0.0804,-0.0323,0.0,0.0,0.0,0.0,0.0,0.0,0.0,0.0,0.0,0.0,0.0,0.0,0.0,0.0,0.0,0.0,0.0,0.0,0.0,0.0,0.0,0.0,0.0,0.0,-0.0807,-0.1962,-0.1962,-0.2013,-0.2314,-0.4974,-0.5122,-0.4416,-0.708,-0.7988,-0.7988,-0.7988,-0.7988,-0.7988,-0.7988,-0.7988,-0.7988,-0.7988,-0.788,-0.7845,-0.7944,-0.7874,-0.7811,-0.7811,-0.7807,-0.7726,-0.7434,-0.7415,-0.7322,-0.7125,-0.698,-0.6836,-0.6725,-0.5711,-0.4858,-0.4704,-0.2934,-0.1606,-0.1606,-0.0653,0.0,-0.0038,-0.0793,-0.169,-0.2649,-0.2579,-0.2823,-0.3567,-0.3488,-0.3723,-0.4467,-0.4491,-0.4491,-0.4491,-0.4491,-0.4491,-0.4491,-0.4491,-0.4491,-0.4491,-0.4491,-0.4491,0.0265,0.008,0.0,0.0,0.0,0.0,0.0066,0.0,0.0,0.005,-0.0074,-0.0225,-0.0311,-0.0533,-0.0962,-0.1753,-0.2101,0.0,0.0,0.0,0.0,0.0,-0.0809,-0.036,0.0,0.0,0.0,0.0,0.0,0.0,0.0,0.0,0.0,0.0,0.0,0.0,0.0,0.0,0.0,0.0,0.0,0.0,0.0,0.0,0.0,0.0,0.0,0.0,0.0,0.0,-0.0252,-0.0706,-0.1662,-0.1461,-0.0958,-0.3668,-0.4368,-0.4266,-0.6027,-0.7235,-0.7988,-0.7988,-0.7988,-0.7988,-0.7988,-0.7988,-0.7988,-0.7988,-0.7955,-0.7928,-0.7978,-0.7955,-0.7917,-0.7917,-0.7885,-0.7516,-0.652,-0.6882,-0.7096,-0.6142,-0.6455,-0.6619,-0.5752,-0.5216,-0.4379,-0.2827,-0.2036,-0.1333,-0.0588,-0.0195,0.0,0.0,-0.0257,-0.0782,-0.1658,-0.1714,-0.2253,-0.3641,-0.3013,-0.2983,-0.3843,-0.4291,-0.4236,-0.368,-0.4208,-0.4491,-0.4491,-0.4491,-0.4208,-0.3707,-0.4236,-0.3929,0.0,0.0206,0.0145,0.0148,0.0105,0.0,0.0,0.0,-0.0025,-0.0171,-0.0292,-0.0446,-0.0625,-0.0962,-0.1376,-0.1921,-0.2303,0.0,0.0,0.0,0.0,-0.1846,0.0,0.0,0.0,-0.0214,0.0,0.0,0.0,0.0,0.0,0.0,0.0,0.0,0.0,0.0,0.0,0.0,0.0,0.0,0.0,0.0,0.0,0.0,0.0,0.0,0.0,0.0,0.0,0.0,0.0,-0.0151,-0.146,-0.1159,-0.0404,-0.3568,-0.4418,-0.4266,-0.6126,-0.7285,-0.7988,-0.7988,-0.7988,-0.7988,-0.7988,-0.7988,-0.7988,-0.7988,-0.7988,-0.7988,-0.7988,-0.7988,-0.7889,-0.7385,-0.718,-0.675,-0.5332,-0.5557,-0.5764,-0.4886,-0.5212,-0.5391,-0.4591,-0.4064,-0.3248,-0.1796,-0.1271,-0.0753,-0.0079,0.0,0.0,0.0,0.0,-0.0219,-0.0747,-0.0824,-0.1359,-0.27,-0.2147,-0.2178,-0.3022,-0.3447,-0.3388,-0.2899,-0.3372,-0.3763,-0.4042,-0.407,-0.3677,-0.2899,-0.34,-0.3121,0.0,0.0,0.0,0.0,0.0,0.0,0.0,0.0,0.0,0.0,-0.0576,-0.0744,-0.1018,-0.1561,-0.1953,-0.1959,-0.2554,0.0,0.0,-0.3138,0.0,0.0,-0.1442,0.0,-0.1192,-0.046,0.0,0.0,0.0,0.0,0.0,0.0,0.0,0.0,0.0,0.0,0.0,0.0,0.0,0.0,0.0,0.0,0.0,0.0,0.0,0.0,0.0,0.0,0.0,0.0,0.0,-0.0151,-0.146,-0.1159,-0.0454,-0.4422,-0.502,-0.4218,-0.693,-0.7839,-0.7889,-0.7988,-0.7988,-0.7988,-0.7889,-0.7939,-0.7988,-0.7988,-0.7988,-0.7988,-0.7988,-0.7988,-0.7686,-0.6331,-0.5992,-0.5586,-0.4003,-0.3738,-0.3753,-0.3496,-0.3525,-0.3548,-0.3303,-0.2468,-0.1708,-0.1513,-0.065,0.0,0.0,0.0,0.0,0.0,0.0,0.0,0.0,0.0,-0.0334,-0.1068,-0.1096,-0.1413,-0.2101,-0.2173,-0.2166,-0.2128,-0.2178,-0.2538,-0.3231,-0.3289,-0.2899,-0.212,-0.2174,-0.2148,0.0821,0.0,0.041,0.0391,0.0296,0.0,0.0,0.0,0.0,0.0,0.0,0.0,0.0,0.0,-0.1465,-0.1452,-0.2001,-0.2657,-0.3416,0.0,0.0,-0.1349,-0.0624,-0.0201,-0.0293,-0.0103,0.0,0.0,0.0,0.0,0.0,0.0,0.0,0.0,0.0,0.0,0.0,0.0,0.0,0.0,0.0,0.0,0.0,0.0,0.0,0.0,0.0,0.0,0.0,0.0,0.0,-0.0151,-0.146,-0.1159,-0.0353,-0.3366,-0.3616,-0.2865,-0.5525,-0.6481,-0.6631,-0.7686,-0.7988,-0.7789,-0.6781,-0.7185,-0.7988,-0.7988,-0.7988,-0.7988,-0.7988,-0.7988,-0.7686,-0.6331,-0.5992,-0.5345,-0.2959,-0.3133,-0.3479,-0.2424,-0.2948,-0.3282,-0.2348,-0.195,-0.1495,-0.0532,-0.0163,0.0,0.0,0.0,0.0,0.0,0.0,0.0,0.0,0.0,-0.0343,-0.1198,-0.1172,-0.1216,-0.1514,-0.1957,-0.1928,-0.1363,-0.1922,-0.2286,-0.2454,-0.2482,-0.2093,-0.1369,-0.1924,-0.1591,0.0944,0.0798,0.0659,0.06,0.043,0.0288,0.0,0.0,0.0,0.0,0.0,0.0,0.0,0.0,0.0,0.0,-0.2056,0.0,0.0,0.0,-0.1638,-0.1071,-0.0434,0.0,0.0,0.0,0.0,0.0,0.0,0.0,0.0,0.0,0.0,0.0,0.0,0.0,0.0,0.0,0.0,0.0,0.0,0.0,0.0,0.0,0.0,0.0,0.0,0.0,0.0,0.0,0.0,-0.005,-0.0807,-0.0656,-0.0252,-0.2314,-0.2614,-0.2364,-0.5074,-0.6381,-0.7033,-0.7786,-0.7587,-0.6933,-0.6229,-0.6077,-0.6274,-0.693,-0.7083,-0.7235,-0.7839,-0.7537,-0.6731,-0.5422,-0.4626,-0.3609,-0.1526,-0.1581,-0.186,-0.1123,-0.1522,-0.1739,-0.1103,-0.097,-0.0741,-0.0084,0.0,0.0,0.0,0.0,0.0,0.0,0.0,0.0,0.0,0.0,-0.0211,-0.0674,-0.063,-0.0621,-0.071,-0.103,-0.1005,-0.0601,-0.1318,-0.1519,-0.12,-0.1519,-0.1312,-0.0616,-0.1006,-0.0755,0.0988,0.1,0.1002,0.0801,0.0535,0.0343,0.0,0.0,0.0,0.0,0.0,0.0,0.0,0.0,0.0,0.0,0.0,0.0,-0.1774,-0.1244,-0.097,-0.1207,-0.0522,0.0,0.0,0.0,0.0,0.0,0.0,0.0,0.0,0.0,0.0,0.0,0.0,0.0,0.0,0.0,0.0,0.0,0.0,0.0,0.0,0.0,0.0,0.0,0.0,0.0,0.0,0.0,0.0,0.0,0.0,0.0,-0.0151,-0.126,-0.1711,-0.2063,-0.4522,-0.6279,-0.7385,-0.7385,-0.6781,-0.5929,-0.5527,-0.472,-0.4216,-0.5125,-0.5527,-0.5977,-0.7083,-0.6567,-0.5352,-0.4,-0.2822,-0.1611,-0.0285,0.0,0.0,0.0,0.0,0.0,0.0,0.0,0.0,0.0,0.0,0.0,0.0,0.0,0.0,0.0,0.0,0.0,0.0,0.0,0.0,0.0,0.0,0.0,0.0,0.0,0.0,0.0,-0.0609,-0.0628,0.0,-0.0624,-0.0615,0.0,0.0,0.0,0.1254,0.1284,0.1209,0.0601,0.0264,0.0055,0.0,0.0,0.0,0.0,0.0,0.0,0.0,0.0,-0.1264,0.0,0.0,-0.1775,0.0,0.0,-0.1138,-0.0898,0.0,0.0,0.0,0.0,0.0,0.0,0.0,0.0,0.0,0.0,0.0,0.0,0.0,0.0,0.0,0.0,0.0,0.0,0.0,0.0,0.0,0.0,0.0,0.0,0.0,0.0,0.0,0.0,0.0,0.0,0.0,0.0,0.0,-0.0252,-0.0303,-0.0504,-0.2063,-0.3516,-0.4616,-0.4616,-0.5222,-0.5577,-0.3317,-0.3265,-0.3815,-0.2865,-0.3416,-0.4368,-0.4568,-0.4468,-0.3976,-0.2601,-0.2147,-0.1624,-0.0279,0.0,0.0,0.0,0.0,0.0,0.0,0.0,0.0,0.0,0.0,0.0,0.0,0.0,0.0,0.0,0.0,0.0,0.0,0.0,0.0,0.0,0.0,0.0,0.0,0.0,0.0,0.0,-0.0118,-0.0116,0.0,-0.0112,-0.0112,0.0,0.0,0.0,0.1321,0.1308,0.1235,0.1007,0.0585,0.0139,0.0,0.0,0.0,0.0,0.0,0.0,0.0,0.0,-0.1402,-0.0887,0.0,-0.1324,-0.0707,-0.0597,-0.0517,0.0,0.0,0.0,0.0,0.0,0.0,0.0,0.0,0.0,0.0,0.0,0.0,0.0,0.0,0.0,0.0,0.0,0.0,0.0,0.0,0.0,0.0,0.0,0.0,0.0,0.0,0.0,0.0,0.0,0.0,0.0,0.0,0.0,0.0,0.0,-0.0454,-0.1159,-0.1762,-0.2864,-0.4016,-0.4016,-0.3917,-0.3618,-0.2364,-0.1913,-0.1708,-0.1095,-0.1897,-0.3108,-0.3821,-0.3443,-0.2779,-0.2125,-0.1463,-0.0739,-0.0139,0.0,0.0,0.0,0.0,0.0,0.0,0.0,0.0,0.0,0.0,0.0,0.0,0.0,0.0,0.0,0.0,0.0,0.0,0.0,0.0,0.0,0.0,0.0,0.0,0.0,0.0,0.0,0.0,0.0,0.0,0.0,0.0,0.0,0.0,0.0,0.1389,0.1284,0.121,0.1232,0.0,0.0,0.0,0.0,0.0,0.0,0.0,0.0,0.0,-0.1215,0.0,-0.1042,-0.1017,-0.0784,-0.0096,0.0,0.0,0.0,0.0,0.0,0.0,0.0,0.0,0.0,0.0,0.0,0.0,0.0,0.0,0.0,0.0,0.0,0.0,0.0,0.0,0.0,0.0,0.0,0.0,0.0,0.0,0.0,0.0,0.0,0.0,0.0,0.0,0.0,0.0,0.0,0.0,0.0,-0.0656,-0.1511,-0.1511,-0.2213,-0.3065,-0.3065,-0.2564,-0.1961,-0.1603,-0.1054,-0.0402,-0.0099,-0.0745,-0.1754,-0.2802,-0.2292,-0.155,-0.1528,-0.0748,0.0,0.0,0.0,0.0,0.0,0.0,0.0,0.0,0.0,0.0,0.0,0.0,0.0,0.0,0.0,0.0,0.0,0.0,0.0,0.0,0.0,0.0,0.0,0.0,0.0,0.0,0.0,0.0,0.0,0.0,0.0,0.0,0.0,0.0,0.0,0.0,0.0,0.1591,0.1403,0.1135,0.0832,0.0,0.0,0.0,0.0,0.0,0.0,0.0,0.0,0.0,-0.0111,-0.04,-0.1142,-0.06,-0.0048,0.0,0.0,0.0,0.0,0.0,0.0,0.0,0.0,0.0,0.0,0.0,0.0,0.0,0.0,0.0,0.0,0.0,0.0,0.0,0.0,0.0,0.0,0.0,0.0,0.0,0.0,0.0,0.0,0.0,0.0,0.0,0.0,0.0,0.0,0.0,0.0,0.0,0.0,-0.005,-0.0151,-0.0151,-0.0202,-0.0303,-0.0303,-0.1058,-0.1756,-0.0543,-0.0944,-0.1605,-0.0345,-0.005,-0.0151,-0.0247,-0.0194,-0.0143,-0.0143,-0.0093,0.0,0.0,0.0,0.0,0.0,0.0,0.0,0.0,0.0,0.0,0.0,0.0,0.0,0.0,0.0,0.0,0.0,0.0,0.0,0.0,0.0,0.0,0.0,0.0,0.0,0.0,0.0,0.0,0.0,0.0,0.0,0.0,0.0,0.0,0.0,0.0,0.0,0.1614,0.1791,0.2022,0.21,0.0,0.0,0.0,0.0,0.0,0.0,0.0,0.0,0.0,0.0,-0.0126,-0.0452,-0.0236,0.0,0.0,0.0,0.0,0.0,0.0,0.0,0.0,0.0,0.0,0.0,0.0,0.0,0.0,0.0,0.0,0.0,0.0,0.0,0.0,0.0,0.0,0.0,0.0,0.0,0.0,0.0,0.0,0.0,0.0,0.0,0.0,0.0,0.0,0.0,0.0,0.0,0.0,0.0,0.0,0.0,0.0,0.0,0.0,0.0,-0.0353,-0.0653,-0.0148,-0.0345,-0.064,-0.0143,0.0,0.0,0.0,0.0,0.0,0.0,0.0,0.0,0.0,0.0,0.0,0.0,0.0,0.0,0.0,0.0,0.0,0.0,0.0,0.0,0.0,0.0,0.0,0.0,0.0,0.0,0.0,0.0,0.0,0.0,0.0,0.0,0.0,0.0,0.0,0.0,0.0,0.0,0.0,0.0,0.0,0.0,0.0,0.0,0.1658,0.1866,0.2187,0.0,0.0,0.0,0.0,0.0,0.0,0.0,0.0,0.0,0.0,0.0,0.0,0.0,-0.019,0.0,0.0,0.0,0.0,0.0,0.0,0.0,0.0,0.0,0.0,0.0,0.0,0.0,0.0,0.0,0.0,0.0,0.0,0.0,0.0,0.0,0.0,0.0,0.0,0.0,0.0,0.0,0.0,0.0,0.0,0.0,0.0,0.0,0.0,0.0,0.0,0.0,0.0,0.0,0.0,0.0,0.0,0.0,0.0,0.0,0.0,0.0,0.0,0.0,0.0,0.0,0.0,0.0,0.0,0.0,0.0,0.0,0.0,0.0,0.0,0.0,0.0,0.0,0.0,0.0,0.0,0.0,0.0,0.0,0.0,0.0,0.0,0.0,0.0,0.0,0.0,0.0,0.0,0.0,0.0,0.0,0.0,0.0,0.0,0.0,0.0,0.0,0.0,0.0,0.0,0.0,0.0,0.0,0.0,0.0,0.1682,0.1472,0.1319,0.0,0.0,0.0,0.0,0.0,0.0,0.0,0.0,0.1456,0.0406,0.0,0.0,-0.1156,-0.0557,0.0,0.0,0.0,0.0,0.0,0.0,0.0,0.0,0.0,0.0,0.0,0.0,0.0,0.0,0.0,0.0,0.0,0.0,0.0,0.0,0.0,0.0,0.0,0.0,0.0,0.0,0.0,0.0,0.0,0.0,0.0,0.0,0.0,0.0,0.0,0.0,0.0,0.0,0.0,0.0,0.0,0.0,0.0,0.0,0.0,0.0,0.0,0.0,0.0,0.0,0.0,0.0,0.0,0.0,0.0,0.0,0.0,0.0,0.0,0.0,0.0,0.0,0.0,0.0,0.0,0.0,0.0,0.0,0.0,0.0,0.0,0.0,0.0,0.0,0.0,0.0,0.0,0.0,0.0,0.0,0.0,0.0,0.0,0.0,0.0,0.0,0.0029,0.0,0.0,0.0,0.0,0.0,0.0,0.0,0.0,0.225,0.2717,0.0,0.0,0.0,0.0,0.0,0.0,0.0,0.0,0.0,0.1527,0.0693,0.0,0.0,-0.0227,-0.0185,0.0,0.0,0.0,0.0,0.0,0.0,0.0,0.0,0.0,0.0,0.0,0.0,0.0,0.0,0.0,0.0,0.0,0.0,0.0,0.0,0.0,0.0,0.0,0.0,0.0,0.0,0.0,0.0,0.0,0.0,0.0,0.0,0.0,0.0,0.0,0.0,0.0,0.0,0.0,0.0,0.0,0.0,0.0,0.0,0.0,0.0,0.0,0.0,0.0,0.0,0.0,0.0,0.0,0.0,0.0,0.0,0.0,0.0,0.0,0.0,0.0,0.0,0.0,0.0,0.0,0.0,0.0,0.0,0.0,0.0,0.0,0.0,0.0,0.0,0.0,0.0,0.0,0.0,0.0,0.0247,0.0876,0.0906,0.0862,0.0774,0.0282,0.0486,0.1526,0.1052,0.0783,0.0783,0.0783,0.0504,0.0,0.0,0.0,0.246,0.0,0.0,0.0,0.0,0.0,0.0,0.0,0.0,0.0,0.0,0.2069,0.0678,0.0772,0.0,0.0138,0.0,0.0,0.0,0.0,0.0,0.0,0.0,0.0,0.0,0.0,0.0,0.0,0.0,0.0,0.0,0.0,0.0,0.0,0.0,0.0,0.0,0.0,0.0,0.0,0.0,0.0,0.0,0.0,0.0,0.0,0.0,0.0,0.0,0.0,0.0,0.0,0.0,0.0,0.0,0.0,0.0,0.0,0.0,0.0,0.0,0.0,0.0,0.0,0.0,0.0,0.0,0.0,0.0,0.0,0.0,0.0,0.0,0.0,0.0,0.0,0.0,0.0,0.0,0.0,0.0,0.0,0.0,0.0,0.0,0.0,0.0,0.0,0.0,0.0,0.0155,0.0588,0.0573,0.0707,0.1129,0.1106,0.1285,0.1812,0.1842,0.1942,0.2088,0.1398,0.1386,0.2187,0.1777,0.1535,0.1535,0.1535,0.1312,0.0867,0.0867,0.0867,0.2442,0.0,0.0,0.0,0.0,0.0,0.0,0.0,0.0,0.0,0.0,0.302,0.0534,0.0221,0.0265,0.0046,0.0,0.0,0.0,0.0,0.0,0.0,0.0,0.0,0.0,0.0,0.0,0.0,0.0,0.0,0.0,0.0,0.0,0.0,0.0,0.0,0.0,0.0,0.0,0.0,0.0,0.0,0.0,0.0,0.0,0.0,0.0,0.0,0.0,0.0,0.0,0.0,0.0,0.0,0.0,0.0,0.0,0.0,0.0,0.0,0.0,0.0,0.0,0.0,0.0,0.0,0.0,0.0,0.0,0.0,0.0,0.0,0.0,0.0,0.0,0.0,0.0,0.0,0.0,0.0,0.0,0.0,0.0,0.0,0.0,0.0,0.008,0.0157,0.0117,0.0231,0.0649,0.1593,0.154,0.1844,0.2817,0.2768,0.2718,0.2811,0.2811,0.3099,0.3694,0.295,0.2476,0.24,0.2343,0.2313,0.2286,0.2286,0.2258,0.2202,0.2202,0.2202,0.0,0.332,0.0,0.0,0.0,0.0,0.0,0.0,0.0,0.0,0.3413,0.4082,0.1115,0.1785,0.2193,0.0322,0.0,0.0,0.0,0.0,0.0,0.0,0.0,0.0,0.0,0.0,0.0,0.0,0.0,0.0,0.0,0.0,0.0,0.0,0.0,0.0,0.0,0.0,0.0,0.0,0.0,0.0,0.0,0.0,0.0,0.0,0.0,0.0,0.0,0.0,0.0,0.0,0.0,0.0,0.0,0.0,0.0,0.0,0.0,0.0,0.0,0.0,0.0,0.0,0.0,0.0,0.0,0.0,0.0,0.0,0.0,0.0,0.0,0.0,0.0,0.0,0.0,0.0,0.0,0.0,0.0,0.0,0.0,0.0,0.0,0.0,0.0709,0.1206,0.1031,0.1847,0.2451,0.2445,0.2519,0.2598,0.2718,0.2715,0.298,0.3685,0.3713,0.3981,0.4589,0.3256,0.2981,0.399,0.3428,0.3121,0.3065,0.3065,0.276,0.2202,0.2202,0.2202,0.0,0.0,0.0,0.0,0.0,0.0,0.0,0.0,0.0,0.0,0.4653,0.4491,0.2275,0.2303,0.2218,0.097,0.0347,0.0,0.0,0.0,0.0,0.0,0.0,0.0,0.0,0.0,0.0,0.0,0.0,0.0,0.0,0.0,0.0,0.0,0.0,0.0,0.0,0.0,0.0,0.0,0.0,0.0,0.0,0.0,0.0,0.0,0.0,0.0,0.0,0.0,0.0,0.0,0.0,0.0,0.0,0.0,0.0,0.0,0.0,0.0,0.0,0.0,0.0,0.0,0.0,0.0,0.0,0.0,0.0,0.0,0.0,0.0,0.0,0.0,0.0,0.0,0.0,0.0,0.0,0.0,0.0,0.0,0.0,0.044,0.0756,0.0747,0.1644,0.2249,0.2082,0.2602,0.3101,0.3384,0.3412,0.3617,0.4052,0.4032,0.418,0.4658,0.4593,0.4632,0.4897,0.4029,0.3847,0.4494,0.4125,0.3901,0.3873,0.3873,0.368,0.3287,0.3287,0.3287,0.0,0.0,0.0,0.0,0.0,0.0,0.0,0.0,0.0,0.0,0.5874,0.4858,0.3642,0.2722,0.2094,0.1885,0.113,0.0543,0.0543,0.0533,0.052,0.0508,0.0383,0.0262,0.0219,0.0074,0.0,0.0,0.0,0.0,0.0,0.0,0.0,0.0,0.0,0.0,0.0,0.0,0.0,0.0,0.0,0.0,0.0,0.0,0.0,0.0,0.0,0.0,0.0,0.0,0.0,0.0,0.0,0.0,0.0,0.0,0.0,0.0,0.0,0.0,0.0,0.0,0.0,0.0,0.0,0.0,0.0,0.0,0.0,0.0,0.0,0.0,0.0,0.0,0.0,0.0,0.0,0.0,0.0,0.0,0.0162,0.0281,0.0276,0.1137,0.1802,0.1607,0.261,0.3271,0.3158,0.3273,0.3653,0.4336,0.432,0.4622,0.5508,0.5467,0.5385,0.5358,0.5203,0.5022,0.4857,0.4758,0.4648,0.4494,0.4491,0.4491,0.4491,0.4491,0.4491,0.4491,0.4491,0.4491,0.0,0.0,0.0,0.0,0.0,0.0,0.0,0.0,0.0,0.0,0.6401,0.607,0.49,0.4566,0.4105,0.3056,0.276,0.2683,0.2683,0.267,0.2646,0.2509,0.1854,0.1309,0.113,0.0438,0.0,0.0,0.0,0.0,0.0,0.0,0.0,0.0,0.0,0.0,0.0,0.0,0.0,0.0,0.0,0.0,0.0,0.0,0.0,0.0,0.0,0.0,0.0,0.0,0.0,0.0,0.0,0.0,0.0,0.0,0.0,0.0,0.0,0.0,0.0,0.0,0.0,0.0,0.0,0.0,0.0,0.0,0.0,0.0,0.0,0.0,0.0,0.0,0.0,0.0,0.0,0.0,0.0,0.0,0.0749,0.1377,0.1372,0.2229,0.2618,0.1723,0.3147,0.4236,0.4062,0.4834,0.538,0.5245,0.5331,0.5409,0.5436,0.5405,0.5337,0.5137,0.511,0.4975,0.4731,0.4701,0.4648,0.4494,0.4491,0.4491,0.4491,0.4491,0.4491,0.4491,0.4491,0.4491,0.0,0.0,0.0,0.0,0.0,0.0,0.0,0.0,0.0,0.5893,0.6051,0.6093,0.5741,0.5202,0.4593,0.4069,0.3474,0.3081,0.3002,0.2969,0.2944,0.2795,0.2458,0.1967,0.1359,0.0952,0.0534,0.0036,0.0,0.0,0.0,0.0,0.0,0.0,0.0,0.0,0.0,0.0,0.0,0.0,0.0,0.0,0.0,0.0,0.0,0.0,0.0,0.0,0.0,0.0,0.0,0.0,0.0,0.0,0.0,0.0,0.0,0.0,0.0,0.0,0.0,0.0,0.0,0.0,0.0,0.0,0.0,0.0,0.0,0.0,0.0,0.0,0.0,0.0,0.0,0.0157,0.0755,0.0876,0.1072,0.1647,0.2112,0.2425,0.2425,0.332,0.3809,0.3301,0.4435,0.5236,0.5,0.5399,0.5599,0.5419,0.5453,0.547,0.5399,0.5281,0.5203,0.5103,0.4945,0.4826,0.4697,0.4638,0.4559,0.4491,0.4491,0.4491,0.4491,0.4491,0.4491,0.4491,0.4491,0.4491,0.0,0.0,0.0,0.0,0.0,0.0,0.0,0.0,0.5406,0.0,0.5674,0.5817,0.6085,0.5503,0.4983,0.4983,0.4292,0.3732,0.3668,0.362,0.3599,0.3436,0.3244,0.2795,0.2048,0.1561,0.1031,0.0382,0.014,0.0,0.0,0.0,0.0,0.0,0.0,0.0,0.0,0.0,0.0,0.0,0.0,0.0,0.0,0.0,0.0,0.0,0.0,0.0,0.0,0.0,0.0,0.0,0.0,0.0,0.0,0.0,0.0,0.0,0.0,0.0,0.0,0.0,0.0,0.0,0.0,0.0,0.0,0.0,0.0,0.0,0.0,0.0196,0.0353,0.0079,0.0392,0.0941,0.1489,0.1802,0.2268,0.332,0.3513,0.3505,0.3446,0.4332,0.4874,0.4492,0.527,0.5837,0.5616,0.5555,0.5521,0.5405,0.5395,0.5378,0.5341,0.5196,0.5066,0.4992,0.4813,0.4674,0.4662,0.4717,0.4759,0.4759,0.4924,0.4952,0.4759,0.4759,0.4759,0.4759,0.457,0.4491,0.0,0.0,0.0,0.0,0.0,0.0,0.0,0.0,0.0,0.5471,0.5596,0.5606,0.5623,0.5696,0.5751,0.5751,0.5715,0.564,0.5633,0.5666,0.5613,0.5467,0.4677,0.4037,0.3892,0.2294,0.1275,0.124,0.0481,0.0,0.0,0.0,0.0,0.0,0.0,0.0,0.0,0.0,0.0,0.0,0.0,0.0,0.0,0.0,0.0,0.0,0.0,0.0,0.0,0.0,0.0,0.0,0.0,0.0,0.0,0.0,0.0,0.0,0.0,0.0,0.0,0.0,0.0,0.0,0.0,0.0,0.0,0.0,0.0,0.0,0.0,0.0745,0.1254,0.0235,0.1487,0.2696,0.1802,0.2347,0.3318,0.4414,0.4608,0.4575,0.4468,0.5283,0.5541,0.438,0.5024,0.5606,0.5593,0.5498,0.5402,0.5395,0.5395,0.5337,0.5123,0.5103,0.4978,0.4731,0.4701,0.4655,0.4508,0.5117,0.546,0.546,0.615,0.615,0.546,0.546,0.546,0.5433,0.4787,0.4491,0.0,0.0,0.0,0.0,0.0,0.0,0.0,0.0,0.4352,0.4494,0.4867,0.5159,0.5159,0.5437,0.5633,0.5569,0.5599,0.5596,0.5366,0.5457,0.543,0.5186,0.4868,0.4394,0.3806,0.3172,0.254,0.1934,0.1152,0.0715,0.0699,0.0257,0.0,0.0,0.0,0.0276,0.084,0.082,0.0841,0.0831,0.0267,0.0,0.0039,0.0712,0.1032,0.1033,0.1042,0.0617,0.0,0.0,0.0,0.0,0.0,0.0,0.0,0.0,0.0,0.0,0.0,0.0,0.0,0.0,0.0,0.0,0.0,0.0,0.0,0.0,0.0,0.0157,0.0863,0.1293,0.1684,0.1917,0.3086,0.4023,0.3673,0.3867,0.4453,0.5512,0.5709,0.5665,0.5485,0.5766,0.5798,0.5204,0.5376,0.5555,0.5491,0.5429,0.5358,0.5223,0.5213,0.5155,0.4975,0.4904,0.4802,0.4697,0.4627,0.4741,0.5113,0.5378,0.5733,0.6199,0.6934,0.6934,0.6199,0.6199,0.6199,0.6199,0.5959,0.5855,0.0,0.0,0.0,0.0,0.0,0.0,0.0,0.0,0.4224,0.4371,0.4737,0.5074,0.5184,0.5241,0.527,0.5255,0.5298,0.5294,0.5056,0.5148,0.5142,0.4911,0.4887,0.4671,0.4086,0.3772,0.3341,0.273,0.1929,0.0,0.1106,0.087,0.0625,0.0376,0.0722,0.1017,0.1309,0.1599,0.1777,0.1766,0.1236,0.0991,0.1007,0.1756,0.2113,0.2074,0.1762,0.1203,0.0499,0.0165,0.0,0.0,0.0,0.0,0.0,0.0,0.0,0.0,0.0,0.0,0.0,0.0,0.0,0.0079,0.0432,0.0549,0.0588,0.094,0.1058,0.1214,0.1918,0.2113,0.2464,0.3826,0.4453,0.4805,0.5157,0.5203,0.5366,0.6065,0.618,0.6061,0.5908,0.5881,0.5796,0.5552,0.5545,0.5511,0.5405,0.5347,0.5243,0.511,0.5056,0.5092,0.518,0.5122,0.5204,0.5493,0.5326,0.547,0.6023,0.6178,0.647,0.6966,0.7696,0.783,0.7343,0.7101,0.6966,0.6966,0.6723,0.6723,0.0,0.0,0.0,0.0,0.0,0.0,0.386,0.0,0.4478,0.5202,0.5316,0.5372,0.5714,0.5182,0.4721,0.4874,0.4908,0.4881,0.4877,0.4881,0.4881,0.4877,0.4874,0.4874,0.4874,0.4112,0.3615,0.3636,0.2748,0.1922,0.1193,0.1817,0.1869,0.1155,0.2173,0.2303,0.137,0.2266,0.2715,0.2719,0.2828,0.29,0.2904,0.3048,0.3117,0.3078,0.2111,0.1705,0.1618,0.0475,0.0,0.0,0.0,0.0,0.0,0.0041,0.0041,0.0041,0.0079,0.0079,0.0079,0.0079,0.0079,0.0275,0.1333,0.1645,0.1841,0.2813,0.3085,0.3124,0.3124,0.3161,0.3705,0.5786,0.5512,0.5038,0.6057,0.6132,0.5986,0.5993,0.5911,0.5762,0.5613,0.5589,0.5538,0.5419,0.5395,0.5395,0.5395,0.523,0.5103,0.5093,0.4972,0.515,0.5752,0.5792,0.6164,0.7023,0.6791,0.6766,0.7097,0.7498,0.7696,0.7723,0.8427,0.8804,0.8804,0.8076,0.7723,0.7723,0.6993,0.7047,0.385,0.0,0.0,0.0,0.0,0.0,0.3523,0.3615,0.3799,0.4359,0.4332,0.4404,0.5045,0.4617,0.4385,0.4965,0.489,0.4714,0.4634,0.4684,0.4714,0.4631,0.4617,0.4617,0.4617,0.4379,0.4257,0.0,0.3464,0.2895,0.2691,0.2386,0.2099,0.1895,0.2852,0.3232,0.2957,0.3333,0.3482,0.3486,0.2982,0.2738,0.279,0.3546,0.3891,0.3895,0.3737,0.3705,0.3501,0.1014,0.0,0.0,0.0,0.0,0.008,0.0874,0.1148,0.1266,0.1999,0.2228,0.2228,0.2228,0.2228,0.2306,0.2579,0.2696,0.2735,0.3007,0.3085,0.3279,0.4062,0.4739,0.5389,0.6115,0.6064,0.5915,0.6039,0.5973,0.5898,0.5973,0.5959,0.5884,0.5633,0.5589,0.5538,0.5419,0.5395,0.5395,0.5395,0.5358,0.5216,0.4968,0.4911,0.5073,0.5536,0.5595,0.5926,0.6678,0.6651,0.6885,0.7498,0.7651,0.7937,0.848,0.8699,0.8804,0.8804,0.8593,0.8507,0.848,0.8289,0.8295,0.0,0.0,0.0,0.0,0.0,0.0,0.3451,0.3607,0.3935,0.0,0.4384,0.4271,0.4928,0.4437,0.4147,0.4812,0.4853,0.4723,0.4539,0.4487,0.4494,0.4494,0.4491,0.4491,0.4491,0.4491,0.4491,0.4491,0.407,0.379,0.379,0.3163,0.2754,0.2707,0.3627,0.3982,0.3592,0.403,0.4256,0.4266,0.3971,0.3838,0.3865,0.4561,0.4862,0.4865,0.453,0.4375,0.4193,0.2037,0.1148,0.1195,0.1145,0.1148,0.1274,0.1929,0.2161,0.2236,0.2812,0.3003,0.2998,0.2966,0.2976,0.3074,0.3459,0.3625,0.3768,0.4191,0.4306,0.4449,0.5014,0.5547,0.5959,0.6047,0.6108,0.6044,0.5956,0.5864,0.581,0.584,0.5793,0.5694,0.5559,0.5528,0.5498,0.5409,0.5395,0.5395,0.5395,0.5286,0.5131,0.4988,0.5223,0.5556,0.604,0.6405,0.6934,0.763,0.7593,0.777,0.829,0.8218,0.8374,0.8778,0.8804,0.8804,0.8804,0.8804,0.8804,0.8804,0.8804,0.8804,0.0,0.0,0.0,0.0,0.3463,0.0,0.3698,0.3966,0.4454,0.5371,0.4864,0.4457,0.5083,0.4394,0.3948,0.4564,0.4779,0.4774,0.4584,0.438,0.4323,0.4426,0.444,0.444,0.444,0.4457,0.4467,0.4467,0.4481,0.4491,0.4491,0.3986,0.3643,0.3524,0.4377,0.4472,0.3709,0.4487,0.4864,0.4897,0.5211,0.5344,0.5354,0.5599,0.5728,0.5657,0.4756,0.4372,0.43,0.3397,0.2973,0.2848,0.2747,0.2761,0.2892,0.3004,0.3042,0.3079,0.3192,0.3229,0.3216,0.307,0.3132,0.3366,0.413,0.4496,0.4835,0.574,0.5956,0.5915,0.5833,0.5789,0.5783,0.5796,0.58,0.5796,0.5783,0.5779,0.5735,0.5593,0.5501,0.5416,0.5399,0.5395,0.5395,0.5395,0.5395,0.5388,0.5371,0.5167,0.5068,0.5164,0.5723,0.635,0.6925,0.7695,0.8432,0.9109,0.8924,0.8898,0.9158,0.8918,0.8804,0.8804,0.8804,0.8831,0.8903,0.8831,0.8804,0.8804,0.8804,0.8804,0.0,0.0,0.0,0.0,0.4121,0.0,0.4466,0.4297,0.4216,0.4587,0.4054,0.3723,0.4378,0.3934,0.3721,0.442,0.4468,0.4506,0.4791,0.4781,0.4597,0.4155,0.4107,0.4107,0.4107,0.419,0.4264,0.4264,0.4395,0.4491,0.4491,0.4376,0.4309,0.4278,0.4478,0.4492,0.4323,0.4616,0.4735,0.4738,0.4918,0.5006,0.5009,0.515,0.5228,0.5241,0.5316,0.5313,0.5313,0.5104,0.4143,0.2742,0.2728,0.2731,0.2853,0.3657,0.3949,0.406,0.4932,0.5222,0.5219,0.5192,0.5201,0.5255,0.5447,0.5532,0.5587,0.5771,0.5766,0.5694,0.5779,0.5718,0.5661,0.5776,0.58,0.5769,0.5654,0.563,0.5586,0.547,0.5515,0.5539,0.5416,0.5395,0.5395,0.5395,0.5395,0.5351,0.5189,0.5624,0.5859,0.5671,0.63,0.6946,0.7508,0.7692,0.8102,0.8838,0.8838,0.8831,0.8865,0.8838,0.8804,0.8804,0.8804,0.9061,0.9614,0.9061,0.8804,0.8804,0.8804,0.8804,0.0,0.0,0.0,0.429,0.0,0.0,0.0,0.4491,0.4259,0.4657,0.4009,0.3508,0.4014,0.3744,0.3659,0.4304,0.435,0.434,0.4474,0.4665,0.4578,0.398,0.395,0.3994,0.3994,0.4065,0.4139,0.419,0.4287,0.4389,0.4487,0.4491,0.4491,0.4491,0.4491,0.4491,0.4491,0.4566,0.4604,0.4607,0.4731,0.4806,0.4809,0.4928,0.5032,0.5106,0.5294,0.5406,0.5511,0.5511,0.4931,0.4045,0.4045,0.4079,0.4199,0.47,0.4915,0.4986,0.5518,0.5694,0.5684,0.5606,0.5633,0.5681,0.5606,0.5637,0.5694,0.5694,0.5644,0.5589,0.5583,0.5562,0.5528,0.56,0.5617,0.5597,0.5525,0.5511,0.5619,0.5962,0.5751,0.5484,0.5409,0.5395,0.5557,0.5976,0.5582,0.5503,0.6203,0.6127,0.6126,0.6413,0.7117,0.7628,0.7774,0.819,0.8548,0.8791,0.8804,0.8804,0.8804,0.8804,0.8956,0.9283,0.8982,0.9283,1.0287,0.9614,0.9458,0.9788,0.9788,0.9614,0.0,0.0,0.0,0.0,0.0,0.4735,0.0,0.0,0.0,0.4864,0.4204,0.0,0.0,0.0,0.0,0.0,0.0,0.0,0.0,0.4315,0.0,0.3663,0.3728,0.3812,0.3815,0.3917,0.4014,0.414,0.4153,0.424,0.444,0.445,0.446,0.4491,0.4491,0.4491,0.4491,0.4491,0.4491,0.4491,0.4614,0.4646,0.4653,0.4806,0.4908,0.5019,0.5073,0.5203,0.5351,0.5382,0.5395,0.5395,0.5395,0.547,0.5545,0.5545,0.5545,0.5545,0.5545,0.5545,0.5559,0.5436,0.5481,0.5556,0.5433,0.5481,0.5545,0.5545,0.5545,0.5552,0.5426,0.5395,0.5395,0.5395,0.5395,0.5418,0.5519,0.5599,0.5903,0.6705,0.6343,0.5851,0.5686,0.5653,0.5881,0.6588,0.6113,0.6093,0.7295,0.6776,0.6543,0.7163,0.7869,0.8257,0.8072,0.8726,0.9031,0.8824,0.8804,0.8804,0.8804,0.8936,0.9237,0.9788,0.9387,0.9788,1.099,1.044,1.0389,1.0788,1.0788,1.0517,0.0,0.0,0.0,0.0,0.539,0.0,0.5491,0.0,0.4927,0.4412,0.0,0.4035,0.0,0.0,0.0,0.0,0.0,0.0,0.3323,0.3861,0.3978,0.2941,0.3002,0.3141,0.3197,0.3572,0.388,0.4008,0.4021,0.4085,0.4237,0.4247,0.4304,0.4487,0.4491,0.4491,0.4491,0.4491,0.4491,0.4491,0.4508,0.4515,0.4522,0.4675,0.4724,0.4755,0.4985,0.511,0.5137,0.5337,0.5395,0.5395,0.5395,0.5405,0.5423,0.5423,0.5423,0.5423,0.5423,0.5423,0.5419,0.5399,0.5405,0.5419,0.5399,0.5405,0.5423,0.5423,0.5423,0.5416,0.5399,0.5395,0.5395,0.5395,0.5395,0.5519,0.6006,0.6346,0.6737,0.7295,0.757,0.7474,0.6687,0.656,0.6593,0.6687,0.7256,0.759,0.7345,0.7787,0.7983,0.7662,0.8304,0.8718,0.8692,0.8798,0.8844,0.8811,0.8804,0.8804,0.8804,0.9361,0.971,0.9788,1.032,1.0939,1.169,1.1616,1.1316,1.0788,1.0788,1.0762,0.0,0.0,0.0,0.0,0.0,0.0,0.548,0.0,0.5247,0.0,0.0,0.0,0.0,0.0,0.0,0.0,0.3816,0.0,0.0,0.0,0.3331,0.0,0.0,0.0,0.3701,0.3381,0.3395,0.3965,0.3758,0.3668,0.3843,0.4069,0.4287,0.4484,0.4491,0.4491,0.4491,0.4491,0.4491,0.4491,0.4491,0.4491,0.4491,0.4556,0.4657,0.4826,0.486,0.4941,0.5096,0.5111,0.5152,0.5226,0.5226,0.5281,0.5395,0.5395,0.5395,0.5395,0.5395,0.5395,0.5395,0.5395,0.5334,0.5243,0.5368,0.5395,0.5395,0.5395,0.5395,0.5375,0.525,0.5327,0.5503,0.5891,0.6071,0.6318,0.6827,0.7227,0.7601,0.8161,0.8122,0.8059,0.8188,0.78,0.7556,0.787,0.7742,0.7873,0.8598,0.8279,0.8096,0.8314,0.8619,0.8804,0.8804,0.8804,0.8804,0.8804,0.9159,0.9562,0.9943,1.0236,1.0568,1.0939,1.0838,1.135,1.2452,1.1996,1.1873,1.2024,1.2024,1.1783,0.7355,0.0,0.0,0.0,0.0,0.0,0.0,0.0,0.0,0.0,0.0,0.0,0.0,0.0,0.0,0.0,0.0,0.3581,0.0,0.3249,0.0,0.0,0.0,0.0,0.0,0.3106,0.2953,0.357,0.3272,0.3216,0.3544,0.3833,0.4147,0.4484,0.4491,0.4491,0.4491,0.4491,0.4491,0.4491,0.4491,0.4491,0.4491,0.4491,0.461,0.4792,0.4721,0.4836,0.5036,0.4972,0.5029,0.5196,0.5196,0.526,0.5395,0.5395,0.5395,0.5388,0.5347,0.533,0.533,0.533,0.525,0.5213,0.5361,0.5395,0.5385,0.5344,0.533,0.5274,0.5127,0.5374,0.5799,0.6353,0.6711,0.7072,0.7613,0.7991,0.837,0.8932,0.8865,0.8881,0.9427,0.8801,0.8349,0.8732,0.831,0.834,0.9422,0.8709,0.8296,0.8758,0.8804,0.8883,0.9061,0.891,0.8883,0.9061,0.9718,1.0287,1.0788,1.099,1.1291,1.1789,1.1525,1.1875,1.2905,1.2369,1.2369,1.2905,1.2905,1.2608,0.0,0.0,0.0,0.7429,0.0,0.0,0.0,0.0,0.5865,0.0,0.0,0.0,0.0,0.0,0.0,0.0,0.0,0.0,0.0,0.0,0.0,0.0,0.0,0.0,0.0,0.2646,0.2684,0.2651,0.2573,0.2814,0.3477,0.3455,0.3764,0.4474,0.4491,0.4491,0.4491,0.4491,0.4491,0.4491,0.4491,0.4491,0.4491,0.4491,0.4494,0.4511,0.4658,0.4779,0.4908,0.5036,0.5213,0.5388,0.5388,0.5392,0.5395,0.5395,0.5395,0.5375,0.5189,0.5106,0.5106,0.5106,0.5237,0.5388,0.5392,0.5395,0.5361,0.5179,0.5106,0.5106,0.51,0.5733,0.6438,0.6636,0.7085,0.7634,0.8244,0.8596,0.895,0.9541,1.013,1.0436,1.0119,0.934,0.8771,0.8795,0.9254,0.9522,0.9264,0.9183,0.9064,0.8838,0.8804,0.9061,0.971,0.9185,0.9087,0.9718,1.0389,1.0788,1.0788,1.1416,1.1789,1.1789,1.2486,1.2856,1.2905,1.2881,1.2881,1.2905,1.2905,1.2881,0.0,0.0,0.8069,0.7791,0.0,0.0,0.0,0.0,0.0,0.0,0.0,0.0,0.0,0.0,0.0,0.0,0.0,0.0,0.0,0.0,0.0,0.0,0.0,0.0,0.0,0.0,0.2478,0.2899,0.2492,0.2453,0.2943,0.3256,0.3688,0.4281,0.444,0.4491,0.4491,0.4491,0.4491,0.4491,0.4491,0.4491,0.4491,0.4491,0.4545,0.4644,0.4667,0.4775,0.4891,0.4938,0.5046,0.5209,0.5209,0.5622,0.6203,0.562,0.5395,0.5437,0.5719,0.5701,0.5594,0.5681,0.5681,0.5597,0.5192,0.5135,0.5179,0.5002,0.5397,0.5798,0.5599,0.6199,0.7003,0.7558,0.7893,0.8238,0.8808,0.9313,0.9652,0.971,1.0,1.0234,1.0134,0.9515,0.9154,0.9375,0.9371,0.9324,0.9224,0.9044,0.8891,0.8818,0.9185,0.9562,0.9788,0.9987,1.0415,1.1091,1.1341,1.1674,1.2181,1.2412,1.2535,1.2535,1.2774,1.2905,1.2905,1.2905,1.2905,1.2905,1.2905,1.2905,0.8831,0.8778,0.0,0.8249,0.8384,0.0,0.7868,0.0,0.8252,0.0,0.0,0.0,0.0,0.0,0.0,0.0,0.0,0.0,0.0,0.3945,0.0,0.0,0.0,0.0,0.0,0.2578,0.2262,0.268,0.2221,0.2183,0.2776,0.303,0.347,0.4184,0.4338,0.4436,0.4491,0.4491,0.4491,0.4491,0.4491,0.4491,0.4491,0.4491,0.4545,0.4641,0.4667,0.4775,0.4891,0.4941,0.5081,0.5238,0.5403,0.5985,0.6588,0.5719,0.5491,0.5655,0.5944,0.6186,0.6339,0.6314,0.6193,0.5918,0.5442,0.5348,0.5403,0.5362,0.5874,0.644,0.635,0.69,0.7634,0.8143,0.8493,0.8792,0.9139,0.9504,0.9717,0.9559,0.976,0.996,0.996,0.9531,0.9277,0.9499,0.9244,0.9058,0.9058,0.8898,0.8804,0.8804,0.9413,0.9891,1.0141,1.1007,1.1633,1.1789,1.2055,1.2393,1.2881,1.2905,1.2974,1.3105,1.2983,1.2983,1.3105,1.2983,1.2905,1.2905,1.2905,1.2905]}]]